GFSMA_prec_cloud_003.txt.gz
Cloud_Cover
96 70 99 100 71 17 5 5 5 5 5 6 5 0 0 0 0 0 2 4 0 0 0 0 0 0 12 62 21 92 87 23 94 84 23 5 5 5 5 5 67 100 100
100 100 100 100 56 66 13 5 6 5 2 7 5 0 0 0 0 0 0 0 0 0 0 0 0 0 0 0 1 1 0 0 0 3 44 97 98 54 16 46 7 27 96
100 100 69 30 96 55 84 6 5 5 2 5 0 5 0 0 0 0 0 0 0 0 0 0 0 0 0 0 0 0 0 0 0 0 0 0 1 14 9 8 15 100 100
100 100 100 96 100 100 91 38 62 5 5 2 5 4 0 0 0 0 0 0 0 0 0 0 0 0 0 1 5 4 4 1 3 1 1 2 5 1 0 0 0 3 5
98 100 100 100 100 100 100 100 51 17 6 5 5 0 0 0 0 0 0 0 0 0 0 0 0 0 0 1 2 1 4 5 5 5 5 5 5 2 0 0 0 0 0
100 100 100 100 100 100 100 83 52 24 98 6 0 0 0 0 0 0 0 0 0 0 0 0 0 0 0 0 0 0 0 0 0 0 0 1 2 0 1 0 0 0 3
97 100 100 100 100 100 98 76 89 98 5 0 0 0 0 0 0 0 0 0 0 0 0 0 0 0 0 0 0 0 0 0 0 0 0 0 0 0 0 0 0 3 5
96 99 100 100 100 100 100 13 5 4 5 0 0 0 0 0 0 0 0 0 0 0 0 0 0 0 0 0 0 0 0 0 0 0 0 1 4 5 5 5 5 5 5
98 84 84 91 51 100 94 5 32 54 5 2 0 0 0 0 0 0 0 0 0 1 4 3 0 0 0 0 0 0 0 0 0 0 3 5 5 5 5 5 5 2 0
60 63 100 14 77 94 6 5 93 56 9 0 0 0 0 0 0 2 0 0 0 5 0 0 2 1 1 0 0 0 0 0 0 2 5 5 5 5 5 31 39 9 26
55 10 5 11 99 78 5 8 51 48 0 0 0 0 0 0 0 0 2 1 4 2 2 0 1 4 4 0 0 2 0 0 0 5 5 5 32 100 85 70 100 100 100
5 5 5 75 75 31 31 26 5 1 0 0 0 0 0 0 0 0 0 0 0 0 0 1 1 2 4 5 5 5 1 2 5 7 94 99 100 100 100 100 100 100 100
3 5 9 88 44 5 5 14 0 0 0 0 0 0 0 0 0 1 0 0 0 0 0 0 0 0 0 0 0 3 5 5 5 7 99 100 100 100 100 100 100 100 100
5 5 38 46 6 5 3 0 0 0 0 0 0 0 0 1 5 5 0 0 0 0 0 0 0 0 0 4 6 5 5 79 27 77 100 100 100 100 100 100 100 100 100
5 5 5 5 5 5 5 1 0 0 0 0 0 2 5 5 5 3 0 0 0 0 0 0 0 1 5 44 26 11 65 100 100 100 100 100 100 100 100 100 100 100 100
5 5 5 5 5 5 5 5 0 0 0 0 0 5 5 5 1 0 0 0 4 5 12 0 1 10 21 16 5 5 27 5 17 56 100 100 100 100 100 100 100 100 100
14 71 5 5 5 5 5 5 1 5 5 5 5 5 4 0 0 0 0 1 5 5 5 5 5 5 5 5 8 81 97 100 95 100 100 100 100 100 100 100 100 100 100
86 54 41 5 5 5 5 5 5 5 5 5 5 2 0 0 1 0 0 3 5 5 26 5 5 5 4 67 100 94 100 90 88 35 100 100 100 100 100 100 100 100 100
75 84 7 5 5 5 5 3 5 5 5 2 0 0 0 0 0 0 1 5 5 6 50 77 8 5 74 84 77 43 9 5 6 79 89 100 100 100 100 100 100 100 100
90 5 5 6 54 24 3 5 5 3 0 2 5 0 0 0 0 2 5 78 100 76 16 14 95 92 56 6 5 5 5 5 85 82 51 100 99 100 100 100 100 100 100
21 36 55 61 77 6 5 2 0 0 5 4 0 0 0 0 5 46 99 96 94 75 97 100 100 69 9 5 5 18 87 90 79 96 8 63 5 5 7 45 98 100 100
98 68 68 98 5 1 0 0 3 5 1 0 0 0 0 2 5 36 54 91 94 100 99 99 92 60 5 63 19 100 100 100 92 46 100 100 30 20 5 5 86 100 100
78 73 69 5 0 0 1 5 5 4 0 0 0 2 5 5 5 5 10 81 100 71 22 5 36 12 93 84 99 96 100 98 100 41 100 98 13 73 5 5 67 100 100
84 8 4 0 1 5 5 5 4 5 2 4 5 5 5 5 32 100 100 100 19 5 5 5 95 96 100 91 100 100 96 100 80 7 96 97 5 72 47 99 100 100 100
5 2 0 4 5 5 5 1 5 5 5 5 0 5 5 97 100 100 100 41 90 13 2 43 96 81 7 22 93 100 87 100 100 48 45 100 85 99 99 94 100 100 100
0 3 5 5 5 5 5 3 5 5 35 8 94 100 24 94 100 100 100 100 86 8 100 90 5 5 5 5 49 96 100 100 100 100 51 100 95 99 90 80 100 100 100

GFSMA_prec_cloud_006.txt.gz
Cloud_Cover
22 23 6 5 5 20 85 67 24 72 9 31 47 43 5 4 0 0 0 0 0 0 0 0 0 0 0 0 5 2 0 0 0 0 0 0 0 0 0 0 0 0 0
25 83 88 92 73 10 59 63 31 32 21 10 62 5 5 5 2 0 0 1 0 0 0 0 0 0 0 0 0 0 0 0 0 0 0 0 0 0 0 0 0 1 0
37 76 98 98 10 20 29 72 80 98 35 50 99 61 57 13 5 3 5 5 0 0 0 0 0 0 0 0 0 0 0 0 0 0 0 0 0 0 0 0 0 0 0
89 100 100 88 14 99 99 93 95 100 100 100 100 94 24 74 5 5 5 4 0 0 0 0 0 0 0 0 0 0 0 0 0 0 0 0 0 0 0 0 0 2 1
100 77 56 12 24 100 100 100 100 100 100 100 100 100 86 30 16 8 5 0 0 0 0 0 0 0 0 0 0 0 0 0 0 0 0 0 0 0 0 0 0 0 2
100 5 5 5 19 76 100 100 100 100 100 100 100 98 49 87 6 5 0 0 0 0 0 0 0 0 0 0 0 0 0 0 0 0 0 0 0 0 0 0 1 2 0
100 7 5 100 100 24 12 56 51 100 100 64 9 39 5 5 4 0 0 0 0 0 0 0 0 0 0 0 0 0 0 0 0 0 0 0 0 0 0 4 3 3 0
100 26 21 67 80 57 79 69 99 100 100 67 5 5 5 12 4 0 0 0 0 0 0 0 0 0 0 0 0 0 0 0 0 0 0 2 1 4 3 4 5 5 5
100 2 65 78 98 60 80 91 80 65 99 100 6 5 45 29 1 0 0 0 0 0 0 0 0 0 0 0 0 0 0 0 0 0 5 5 5 5 5 5 5 5 6
86 4 83 100 84 41 67 99 34 47 93 50 5 6 8 3 0 0 0 0 0 0 0 0 0 0 0 0 0 0 0 0 0 0 1 5 5 5 5 5 38 93 100
9 0 5 6 35 58 22 5 6 100 81 7 5 25 0 0 0 0 0 0 0 0 0 1 5 5 0 0 0 0 0 0 5 5 5 5 5 8 74 100 100 100 100
0 0 0 4 4 5 5 5 21 23 5 5 2 0 0 0 0 0 0 0 0 2 5 5 5 5 0 0 0 0 2 5 5 5 6 65 98 97 100 100 100 100 100
5 5 5 5 5 5 5 5 5 5 2 0 0 0 0 0 0 0 0 0 0 0 0 0 0 0 0 0 0 0 5 2 5 6 34 65 100 100 100 100 100 100 100
5 5 5 46 5 5 5 5 0 0 0 0 0 0 0 0 0 0 0 0 0 0 0 0 0 0 0 0 2 5 5 49 32 84 94 97 74 69 100 100 100 100 100
42 51 51 55 23 5 5 5 0 0 1 0 0 0 0 0 0 0 0 0 0 0 0 0 0 0 0 5 5 26 81 96 100 100 100 100 100 100 100 100 100 100 100
100 95 100 81 59 19 5 5 0 5 5 0 0 0 0 0 0 0 0 0 0 0 0 0 0 0 5 5 32 94 100 95 95 100 100 100 100 100 100 100 100 100 100
99 100 93 53 54 5 5 5 5 5 5 0 0 0 0 0 0 0 0 0 0 0 2 0 0 5 6 81 95 100 100 98 89 52 91 95 100 100 100 100 100 100 100
99 89 50 43 63 26 5 5 5 5 2 0 0 0 0 0 0 0 0 0 0 4 5 5 5 5 64 99 100 100 100 100 48 8 65 100 100 100 100 100 100 100 100
98 83 66 100 63 5 5 5 5 3 0 0 0 0 0 0 0 0 0 3 5 29 80 83 8 7 94 100 100 53 80 72 100 100 100 100 99 100 100 100 100 100 100
93 74 100 58 6 5 5 5 3 0 0 4 4 0 0 0 0 3 5 29 79 88 82 74 74 89 99 46 94 67 92 93 100 100 29 100 81 100 100 52 78 100 100
81 100 77 66 15 5 5 5 0 0 5 5 4 0 0 1 5 42 94 100 100 86 70 98 100 89 5 29 60 100 100 100 46 100 11 84 10 5 5 16 81 100 100
100 86 89 75 46 5 5 5 5 5 5 5 1 5 1 5 35 92 99 100 100 100 100 100 87 77 96 100 99 100 100 90 72 46 100 88 78 15 5 5 40 100 100
99 79 98 15 5 5 5 5 42 6 5 5 3 5 5 23 86 88 99 100 100 99 97 97 100 100 100 99 99 97 88 100 97 20 98 60 58 31 5 58 25 99 100
99 67 45 6 5 5 15 19 5 6 5 5 5 6 54 88 99 100 100 99 96 54 100 99 100 99 100 100 100 100 100 100 84 93 100 90 5 36 5 36 76 95 100
69 61 5 5 5 5 5 14 38 6 13 5 5 31 89 100 100 100 100 83 100 100 100 100 100 100 98 100 100 100 93 100 100 69 74 99 90 59 49 54 74 51 83
6 5 5 5 5 6 77 8 66 12 5 5 59 98 100 99 100 97 91 100 100 100 91 71 100 77 92 100 100 100 100 100 100 99 60 100 80 99 98 78 18 74 100

GFSMA_prec_cloud_009.txt.gz
Cloud_Cover
27 100 100 100 100 100 80 38 79 84 48 57 31 18 5 67 44 75 9 77 43 5 5 5 4 4 0 0 0 0 0 0 0 0 0 21 0 0 0 0 0 0 0
100 35 42 19 35 7 5 24 23 77 37 15 56 60 29 8 39 69 100 100 99 57 5 5 5 5 0 0 0 0 0 0 0 0 0 0 0 0 0 0 0 0 0
40 14 5 5 5 5 3 5 5 5 5 5 5 9 37 23 52 100 100 100 100 56 5 56 9 5 1 0 0 0 0 0 0 0 0 0 0 0 0 0 0 0 0
5 3 4 32 5 2 5 5 5 4 25 88 81 83 76 69 100 100 100 100 100 24 30 15 5 3 0 0 0 0 0 0 0 0 0 0 0 0 0 0 0 0 0
5 18 90 36 0 4 5 5 5 5 36 82 100 96 100 100 100 100 100 100 81 5 51 31 5 0 0 0 0 4 5 0 0 0 0 0 0 0 0 0 0 0 0
10 100 5 3 0 3 5 5 38 43 5 17 24 99 100 94 97 58 39 20 5 5 1 0 0 0 0 0 0 0 0 0 0 0 1 0 0 0 0 1 1 2 0
100 100 6 0 0 0 5 100 100 95 40 5 5 33 19 7 9 5 5 5 9 2 0 0 0 0 0 0 0 0 0 0 0 0 0 0 2 0 0 2 0 3 0
100 100 33 0 0 0 27 69 70 48 32 5 11 5 8 66 91 14 5 2 0 0 0 0 0 0 0 0 0 0 0 0 0 2 1 0 1 0 0 4 4 5 5
100 100 28 3 0 0 7 6 11 87 54 94 90 88 15 5 22 10 5 5 0 0 0 0 0 0 0 0 0 0 0 0 0 5 5 5 5 5 5 5 5 6 6
100 100 72 5 0 0 5 5 18 71 33 5 18 19 4 5 5 5 5 0 0 0 0 0 0 0 0 0 0 0 0 0 0 5 5 5 5 5 5 6 10 22 94
100 100 54 5 2 5 3 3 5 5 5 5 1 3 5 5 5 2 0 0 0 0 0 0 0 0 0 0 0 0 0 0 5 5 5 5 5 2 5 12 49 100 100
100 100 5 5 2 4 3 5 5 5 5 5 5 6 11 5 2 0 0 0 0 0 0 0 0 0 0 0 0 0 0 4 5 5 5 12 81 87 100 100 100 100 100
100 87 5 5 5 5 5 5 5 5 5 5 16 17 2 0 0 0 0 0 0 0 0 0 0 0 0 0 0 0 0 5 5 5 4 14 90 100 100 100 100 100 100
100 38 18 6 44 5 5 5 5 5 5 4 0 0 0 0 0 0 0 0 0 0 0 0 0 0 0 0 0 0 0 5 5 24 52 77 98 100 100 100 100 100 100
100 7 5 5 46 7 9 8 5 17 5 5 0 0 0 0 0 0 0 0 0 0 0 0 0 0 0 0 0 1 4 5 17 13 80 88 100 100 100 100 100 100 100
74 47 14 42 51 68 48 5 5 5 5 3 0 5 0 0 0 0 0 0 0 0 0 0 0 0 0 1 1 5 5 26 8 10 97 100 100 100 100 100 100 100 100
72 60 76 77 62 8 45 5 52 5 5 3 5 0 0 0 0 0 0 0 0 0 0 0 0 3 3 5 5 46 5 5 4 27 89 93 100 100 100 100 100 100 100
78 86 5 17 93 100 7 74 32 5 5 5 4 0 0 0 0 0 0 0 0 0 4 5 5 5 5 5 72 93 19 5 5 6 100 100 100 100 100 100 100 100 100
76 76 96 81 5 5 86 61 5 12 5 5 3 0 0 0 0 0 0 0 4 5 7 27 5 5 5 94 75 20 5 5 5 6 29 55 98 65 100 100 100 100 100
87 88 100 67 20 55 88 9 66 15 5 3 0 0 0 1 0 0 4 5 12 5 28 5 5 5 86 88 5 5 18 5 5 5 4 12 84 52 85 59 98 100 100
100 98 100 48 68 96 86 76 6 5 0 0 0 0 4 0 0 16 66 57 70 66 38 12 94 97 8 5 39 17 82 74 5 75 2 12 5 2 5 5 5 87 100
100 100 96 100 100 100 95 60 5 0 0 5 5 3 0 0 5 65 84 98 96 100 98 100 95 79 12 5 81 100 100 100 84 31 60 10 6 5 5 5 25 100 100
95 100 100 100 100 100 98 88 6 4 5 5 3 2 5 5 11 93 65 87 26 94 93 94 100 99 32 5 95 95 96 100 87 6 12 88 5 5 5 5 18 76 92
100 100 100 100 100 100 66 9 5 38 5 2 5 5 5 13 27 60 37 67 70 43 48 97 99 16 45 92 100 100 100 30 7 5 99 99 5 5 5 5 6 80 100
100 100 100 100 98 40 95 10 6 5 5 2 4 5 5 39 68 100 100 98 44 5 5 81 77 96 100 100 100 100 8 100 90 97 47 95 16 21 26 5 39 98 12
100 100 99 78 100 55 54 5 5 5 5 5 5 5 64 84 100 100 100 45 8 5 6 34 6 6 24 5 97 100 94 100 100 100 26 97 94 99 93 97 8 100 6

GFSMA_prec_cloud_012.txt.gz
Cloud_Cover
5 5 68 31 7 35 55 5 99 100 100 96 100 86 41 5 19 32 14 5 5 16 24 100 100 100 100 100 37 5 5 5 0 0 0 0 0 0 0 0 0 0 0
5 24 4 0 1 64 10 6 5 42 99 78 61 18 23 43 5 5 5 5 21 38 87 100 100 100 100 100 64 5 5 5 3 0 0 0 0 0 0 0 0 0 0
94 5 2 5 5 0 0 0 1 5 1 5 5 0 0 2 6 68 70 93 96 97 100 100 100 100 100 100 17 5 36 5 5 0 0 0 0 0 0 0 0 0 0
62 5 5 5 5 2 0 5 0 0 5 5 5 5 5 1 5 68 89 100 100 100 100 100 100 98 97 67 5 5 34 5 0 0 0 0 0 0 0 0 0 0 0
24 0 3 10 5 3 5 5 0 0 5 5 26 70 54 41 5 6 28 94 95 100 62 56 17 27 23 21 50 4 0 0 0 0 0 0 0 0 0 0 0 0 0
0 0 1 5 5 5 1 0 0 0 5 5 5 97 100 92 59 59 96 98 100 75 5 5 5 5 10 5 0 0 0 0 0 0 0 0 0 0 0 0 0 0 0
5 0 6 11 0 0 0 0 0 0 5 56 66 100 100 96 74 47 7 5 24 77 5 5 4 0 0 0 0 0 0 0 1 0 0 1 0 4 0 0 3 0 5
99 95 100 98 0 0 0 0 0 0 2 5 42 81 83 81 42 58 65 28 5 5 3 4 0 0 0 0 0 0 0 0 0 5 0 4 2 4 4 4 4 5 5
75 100 100 96 26 3 1 4 5 0 0 5 5 5 5 5 5 5 16 4 0 1 1 0 0 0 0 0 0 0 0 0 0 5 5 5 5 5 5 5 5 5 5
77 28 90 26 90 5 5 5 5 4 2 3 5 5 4 0 0 5 5 5 4 5 0 0 0 0 0 0 0 0 0 0 2 5 5 5 5 5 9 21 26 18 23
98 70 50 86 100 5 57 56 19 5 5 3 5 5 5 5 5 5 5 5 0 0 0 0 0 0 0 0 0 0 0 0 0 5 5 5 1 8 18 70 100 100 100
99 100 100 100 100 57 98 43 52 57 6 8 5 5 5 5 5 5 3 0 0 0 0 0 0 0 0 0 0 0 0 0 4 5 5 20 94 91 100 100 100 100 100
96 100 94 100 74 100 75 9 5 21 46 71 30 5 5 2 3 3 0 0 0 0 0 0 0 0 0 0 0 0 0 0 3 5 5 6 94 99 100 100 100 100 100
80 99 100 100 12 21 73 54 21 26 11 8 23 12 5 1 0 0 0 0 0 0 0 0 0 0 0 0 0 0 0 0 2 5 10 88 93 98 100 100 100 100 100
100 99 99 96 10 5 91 95 98 99 73 16 5 43 40 5 2 0 0 0 0 0 0 0 0 0 0 0 0 0 0 0 5 8 33 45 62 100 100 99 100 100 100
100 96 100 45 5 8 54 81 100 90 76 45 30 11 48 5 5 0 0 0 0 0 0 0 0 0 0 1 0 2 0 2 5 5 5 85 90 100 100 100 100 100 100
100 100 100 5 35 46 62 65 62 64 25 6 5 5 5 5 5 5 0 0 0 0 0 0 0 4 5 5 0 0 4 5 2 4 12 100 100 100 100 100 100 100 100
100 100 89 16 82 100 66 84 90 5 5 44 23 5 5 5 5 4 0 0 0 0 0 5 5 5 5 0 4 5 5 4 2 5 82 86 93 100 100 100 100 100 100
100 100 85 100 81 85 74 99 46 5 34 9 48 64 8 5 5 2 0 0 0 0 5 5 5 5 3 5 47 4 0 5 5 3 5 5 15 23 70 100 100 100 100
100 77 86 80 100 89 100 86 74 76 68 46 70 66 7 5 4 0 0 2 5 37 65 5 5 39 36 56 5 5 5 5 5 5 5 3 5 5 16 5 18 81 100
98 100 100 100 100 100 93 89 100 98 100 100 100 78 8 5 5 2 16 74 99 94 37 63 83 94 78 5 21 26 5 5 5 5 12 0 5 1 0 5 5 12 99
99 88 100 100 100 100 99 97 100 100 91 58 57 29 5 5 0 5 38 73 95 100 100 87 100 22 62 68 54 5 9 99 96 6 5 5 5 5 5 5 5 74 100
88 100 100 100 100 100 100 96 100 87 100 86 5 5 2 0 1 5 5 5 5 5 71 98 26 96 81 33 61 31 100 99 91 11 48 13 5 5 5 5 5 48 96
100 100 100 100 100 100 100 97 100 100 83 9 5 4 2 5 5 53 56 5 44 5 5 56 98 91 99 90 100 100 99 76 5 5 74 94 5 6 5 5 5 5 5
100 100 100 100 79 63 100 100 100 72 5 5 34 5 5 5 67 80 98 69 5 5 5 5 39 98 99 94 100 100 31 79 92 70 56 100 10 8 44 5 5 5 5
100 100 92 76 54 100 100 100 42 6 77 94 31 51 5 5 71 100 100 96 70 5 6 26 5 2 2 5 6 30 92 100 100 91 30 100 91 100 91 5 32 65 65

GFSMA_prec_cloud_015.txt.gz
Cloud_Cover
5 5 5 62 0 0 0 0 0 5 11 5 5 5 5 8 43 47 88 14 5 6 5 5 5 5 7 12 17 84 100 100 100 100 62 5 5 5 0 0 0 0 0
5 5 17 22 5 0 0 0 0 1 5 2 2 1 0 0 0 2 0 7 13 17 5 26 82 100 59 87 100 90 100 100 100 100 26 5 5 4 5 0 0 0 0
5 5 5 5 5 0 0 0 0 0 0 0 0 0 0 2 0 0 4 0 0 0 7 36 14 100 100 100 100 100 100 100 100 47 31 5 5 5 2 2 0 0 0
4 5 5 5 5 0 2 5 0 0 0 0 0 0 0 5 5 5 12 7 5 10 65 100 100 100 100 100 100 100 100 95 46 5 5 5 5 4 5 0 0 0 0
71 43 1 0 0 0 0 0 0 0 0 0 0 0 1 5 5 52 35 55 94 100 88 12 61 100 99 65 21 19 16 40 15 15 5 5 0 1 0 0 0 0 0
62 8 6 4 0 0 0 0 0 0 0 0 0 0 1 5 5 29 46 94 87 80 86 82 80 80 99 44 5 5 5 5 5 0 0 0 0 0 0 1 0 0 0
85 42 0 5 4 5 5 1 0 0 0 0 0 0 0 5 5 5 5 76 74 34 8 92 100 40 30 5 5 5 0 0 0 0 0 4 0 5 0 4 0 1 0
100 22 0 1 40 9 6 6 1 0 0 0 1 1 0 1 5 5 5 5 5 5 5 5 78 40 5 5 4 0 0 0 0 5 5 1 2 0 4 5 5 5 5
100 0 0 0 77 22 5 0 4 0 1 5 5 5 0 0 0 5 5 5 4 3 5 5 23 9 5 1 0 0 0 0 0 5 5 5 5 5 5 4 4 6 23
100 19 4 23 100 18 0 9 5 5 22 95 91 5 4 5 0 0 4 5 5 5 5 5 1 0 0 0 0 0 0 0 0 5 5 5 5 5 5 6 65 96 100
100 92 94 94 100 1 7 46 5 5 47 93 100 99 100 30 5 7 9 5 5 5 0 3 0 0 0 0 0 0 0 0 0 0 4 5 5 2 7 93 100 100 100
100 100 100 100 45 86 74 99 5 6 6 5 15 63 37 23 5 7 39 89 69 41 4 0 0 0 0 0 0 0 0 0 3 5 5 5 53 94 100 100 100 100 100
100 99 100 100 100 64 26 58 10 10 8 54 95 90 87 100 80 76 79 88 100 100 100 33 5 2 0 0 0 0 0 0 0 0 5 30 95 100 100 100 100 100 100
95 86 100 100 40 99 66 19 5 5 5 5 5 42 86 95 100 100 92 19 76 93 100 100 58 5 0 0 0 0 0 0 0 5 9 89 100 100 99 100 100 100 100
95 100 100 100 100 100 100 29 32 5 5 5 31 48 74 53 21 36 25 5 5 5 14 9 5 5 4 0 0 0 0 0 5 5 47 98 93 91 100 100 100 100 100
100 100 100 98 100 100 100 6 60 5 9 5 61 66 68 32 18 21 5 5 5 1 0 5 4 2 0 0 0 0 0 0 3 5 9 5 80 100 100 100 100 100 100
100 100 80 100 100 71 86 52 20 36 93 7 60 74 5 5 5 5 5 5 5 0 0 0 0 0 0 0 0 0 0 3 0 1 5 9 94 100 100 100 100 100 100
100 100 100 100 100 100 90 67 75 84 62 76 90 5 5 5 5 5 5 5 5 5 4 0 4 5 0 0 0 5 5 0 0 0 5 5 20 97 97 100 100 100 100
100 100 100 100 100 100 100 98 96 84 100 86 28 5 33 23 5 5 5 5 5 5 5 5 5 5 5 5 13 5 5 0 2 0 2 5 5 19 58 64 94 100 100
100 100 100 100 100 100 85 90 90 100 62 19 17 58 85 24 5 6 38 57 82 51 27 16 9 5 9 22 9 5 5 5 3 2 5 5 53 5 5 5 5 7 47
100 100 100 100 96 96 100 100 100 100 95 93 97 100 70 6 45 68 76 100 49 5 21 78 5 67 96 5 5 5 5 5 5 5 53 5 5 5 2 4 5 5 86
100 100 100 92 98 81 100 100 100 100 100 100 100 96 72 100 100 100 48 5 59 86 100 98 82 92 9 5 5 5 5 81 95 30 5 51 5 5 5 5 6 81 87
100 100 100 100 100 100 100 100 100 100 100 95 100 100 100 100 97 28 5 6 58 87 98 97 16 5 44 5 11 67 100 100 93 51 46 99 5 5 5 5 5 5 94
100 100 100 100 100 100 100 100 100 96 98 100 100 100 100 71 16 31 37 99 100 73 5 5 5 5 38 84 100 100 96 75 5 5 5 99 8 5 5 5 5 5 5
100 100 98 99 92 100 100 93 100 100 100 100 99 97 12 30 21 74 92 54 8 5 5 5 5 83 89 44 79 100 11 91 71 32 5 81 10 5 62 5 2 2 5
91 68 100 95 99 83 100 100 100 98 80 94 86 61 36 59 91 100 100 94 79 5 5 29 6 4 0 1 5 5 25 100 100 100 21 89 71 94 100 5 5 5 5

GFSMA_prec_cloud_018.txt.gz
Cloud_Cover
5 12 16 24 7 3 0 0 0 0 0 0 0 0 2 4 5 48 27 5 0 0 1 0 0 5 5 5 5 5 10 43 71 29 55 52 100 100 100 99 16 5 5
0 5 3 5 5 3 3 5 0 0 0 0 0 0 0 0 0 0 0 0 0 0 0 1 0 0 4 98 55 83 45 68 42 33 100 100 100 100 100 100 18 24 5
0 0 0 3 5 5 5 2 0 0 0 0 0 0 0 0 0 0 0 5 4 5 5 5 5 5 5 5 97 100 98 65 100 100 100 100 100 100 94 93 56 5 9
0 0 1 3 6 5 2 0 0 0 0 0 0 0 0 0 0 0 2 5 5 6 36 48 100 100 100 95 96 100 100 72 98 70 41 58 86 90 37 30 77 97 64
0 0 0 0 0 0 0 0 0 0 0 0 0 0 0 0 0 0 1 5 5 71 13 7 17 20 17 90 42 91 98 100 100 82 5 5 5 5 5 5 22 60 68
20 1 53 22 2 0 0 0 0 0 3 2 0 0 0 0 0 0 0 5 5 19 34 61 68 63 5 5 5 5 6 25 88 82 5 3 1 2 1 3 2 1 0
98 57 100 88 10 0 0 0 3 1 0 5 0 0 0 0 0 0 0 1 5 18 12 10 5 5 5 5 5 7 5 5 5 5 0 0 2 1 3 4 3 2 5
100 98 100 100 8 0 0 0 0 3 14 4 0 0 0 1 5 5 5 0 0 4 5 5 5 5 5 5 7 17 11 5 5 5 3 5 5 5 5 5 5 4 0
100 100 100 99 18 11 3 1 0 0 0 0 3 4 1 5 5 5 5 5 4 2 2 5 5 5 37 63 88 61 18 3 0 4 5 5 5 5 5 5 3 0 2
100 100 100 94 32 33 51 26 26 8 0 1 4 5 5 0 4 5 28 98 96 50 31 16 7 7 8 8 5 5 1 0 0 3 5 5 5 5 5 6 14 40 100
100 100 100 100 72 97 46 98 23 46 25 0 0 0 2 5 5 8 16 78 100 87 100 100 100 80 87 79 30 8 5 4 0 5 5 5 5 5 6 22 56 97 100
6 71 100 100 100 100 100 100 88 96 100 8 0 4 5 5 5 5 13 54 100 100 86 61 57 75 93 100 100 100 100 91 15 5 5 5 5 6 7 35 99 86 100
88 52 91 100 100 100 31 98 92 80 99 1 4 5 5 5 5 5 5 13 48 100 100 100 96 93 73 50 10 5 5 5 5 5 5 5 19 62 96 91 100 97 100
97 82 80 100 100 100 100 100 49 98 99 6 5 5 5 5 5 5 4 5 18 62 100 79 53 7 5 5 5 5 5 5 5 5 5 19 86 93 100 98 100 99 100
98 100 99 100 100 100 100 99 74 100 89 5 5 5 5 5 5 5 5 4 2 4 5 5 5 5 9 11 5 5 4 0 2 5 5 57 55 27 93 100 100 100 100
100 100 100 100 100 100 100 100 100 100 98 47 6 5 32 89 41 5 5 3 3 0 0 0 2 4 5 40 71 5 5 5 4 5 5 25 42 98 100 100 100 100 100
100 100 100 100 100 100 100 99 100 80 100 21 13 5 26 60 67 5 5 5 5 5 1 0 0 4 5 6 26 5 5 5 4 4 5 6 86 100 100 100 97 100 100
100 100 100 100 100 100 100 100 100 100 100 96 6 14 100 100 82 6 21 52 48 5 4 5 5 5 5 5 5 5 4 5 5 1 5 18 8 59 96 100 100 100 100
100 100 100 100 100 100 100 100 100 100 100 22 90 79 100 91 100 100 88 95 5 5 6 5 5 5 19 13 5 5 5 4 2 0 2 5 5 8 75 95 91 80 79
100 100 100 100 100 100 100 100 100 100 92 84 99 100 100 100 100 100 82 59 14 60 58 49 41 98 57 5 5 5 5 5 2 1 5 5 5 5 5 5 5 5 5
100 100 100 100 100 100 100 100 100 100 84 99 100 99 100 100 100 99 38 90 76 99 82 100 91 12 21 6 5 5 5 5 5 5 5 5 5 5 5 5 5 5 5
100 100 100 100 100 100 100 100 100 94 100 100 100 100 99 22 41 47 26 83 64 82 100 94 98 80 7 5 5 5 5 87 96 11 5 5 5 5 5 5 5 50 91
100 100 100 100 100 100 100 100 100 100 100 100 76 52 59 96 34 38 42 81 100 100 94 100 85 5 5 5 7 30 88 100 97 11 5 5 5 5 5 5 4 5 5
100 100 100 100 100 100 100 100 100 99 61 97 15 78 52 40 15 70 100 100 74 69 86 12 5 5 16 73 99 100 62 54 5 5 5 95 5 5 5 4 5 5 5
100 100 100 100 100 100 100 100 100 100 100 76 56 6 34 5 62 24 5 69 63 6 5 5 5 30 59 70 28 91 12 72 96 91 10 77 5 5 5 10 5 8 5
100 100 100 100 100 100 100 100 100 99 72 22 5 5 5 5 41 91 100 100 88 5 8 6 5 4 0 0 4 5 5 100 100 96 5 78 67 48 94 21 12 99 75

GFSMA_prec_cloud_021.txt.gz
Cloud_Cover
31 29 28 31 18 5 5 5 0 0 0 0 0 0 0 0 0 0 0 0 0 0 0 0 0 0 4 0 0 1 5 76 44 16 33 5 60 96 100 100 100 100 100
9 21 27 30 4 5 5 5 5 5 3 0 0 0 0 0 0 0 0 0 0 0 0 0 0 0 0 3 0 4 5 19 65 99 100 34 11 5 33 100 100 100 100
0 10 16 0 0 5 0 5 5 1 0 0 0 0 0 0 0 0 0 0 0 0 0 5 5 5 5 5 81 89 99 92 98 100 100 100 100 92 100 100 100 100 100
0 0 0 0 3 5 4 4 0 0 0 0 0 0 0 0 0 0 0 0 0 0 3 5 5 20 100 92 100 100 100 100 85 100 100 98 100 100 100 85 89 100 100
0 2 1 0 0 0 13 0 0 0 0 0 0 0 0 0 0 0 0 0 0 0 0 5 5 18 99 97 98 86 64 62 82 100 83 96 58 53 5 5 5 10 35
8 5 5 5 5 5 2 0 0 0 0 0 0 0 0 0 0 0 0 0 0 0 0 0 4 16 5 5 5 5 5 5 5 4 5 5 37 71 5 5 5 3 0
50 16 77 18 78 81 16 5 3 0 0 0 0 0 0 0 0 0 0 0 0 1 5 5 4 2 0 0 5 2 0 0 0 0 4 5 8 100 90 5 5 2 1
96 95 100 100 96 100 69 11 5 1 0 0 0 0 0 0 0 0 0 0 0 3 5 5 5 10 15 6 5 5 5 5 5 5 5 34 58 64 9 5 5 5 3
98 100 100 100 100 100 90 23 5 4 3 0 0 0 0 0 0 0 0 0 0 5 5 36 41 72 100 100 100 97 83 97 64 84 16 12 5 5 5 5 8 5 1
94 100 100 100 100 100 100 53 5 5 1 1 5 3 0 0 0 0 0 0 0 4 1 4 20 65 97 100 100 100 100 100 100 100 99 96 8 5 9 9 5 18 70
15 96 100 100 100 100 100 100 22 8 6 5 5 5 0 0 0 0 2 4 5 5 5 0 0 4 5 8 49 100 100 100 100 100 100 99 72 24 6 5 37 7 98
92 41 99 100 100 100 79 100 100 40 99 66 57 49 48 0 0 5 5 5 5 5 5 2 0 0 3 15 37 45 69 66 58 68 84 98 100 99 96 32 28 81 90
25 62 91 73 100 100 97 100 100 100 85 97 99 77 27 5 5 5 5 5 5 5 26 65 5 0 0 2 0 0 1 1 0 4 5 5 5 5 8 38 75 99 86
11 27 80 80 57 75 94 100 100 100 100 98 94 100 70 71 44 5 5 5 5 5 5 5 5 3 0 0 0 0 0 0 0 2 5 5 5 5 5 67 70 77 99
100 60 5 5 17 100 100 100 100 100 100 100 82 100 53 100 50 93 23 5 63 6 30 7 5 5 5 5 0 0 0 4 5 5 5 5 5 6 74 87 98 95 100
96 11 5 5 55 69 100 100 100 100 100 100 100 100 100 63 100 88 42 62 63 5 5 5 5 5 5 5 5 5 5 5 5 5 5 5 22 100 100 100 100 100 100
100 75 12 14 74 100 100 100 100 100 100 100 100 100 100 100 100 100 74 78 28 5 5 5 5 5 5 5 5 5 5 4 5 2 5 5 76 91 100 99 100 100 100
78 100 100 100 100 100 100 100 100 100 100 100 100 100 100 100 98 99 71 75 5 5 5 5 5 5 5 5 5 5 4 1 5 5 5 7 54 24 100 100 100 100 100
57 100 100 100 100 100 100 100 100 100 100 100 100 100 100 81 100 90 81 85 64 46 5 5 5 5 5 5 5 5 5 8 5 4 4 5 5 50 97 66 87 70 58
100 100 86 100 100 100 100 100 100 100 100 100 100 100 100 100 100 88 99 99 46 21 49 5 5 5 5 5 5 7 9 5 5 5 5 5 5 5 5 5 5 5 5
100 100 96 100 100 100 100 100 100 100 100 100 100 100 100 100 100 100 76 66 72 5 11 65 88 63 16 5 5 5 5 5 33 5 5 5 5 5 3 4 3 3 5
79 100 100 100 100 100 100 100 100 100 100 100 100 100 80 100 100 100 76 96 6 11 98 100 77 75 50 5 5 5 30 100 96 10 5 5 5 5 2 2 4 5 5
100 100 100 100 100 100 100 100 100 100 100 100 100 100 100 100 100 37 73 12 21 12 33 92 92 21 33 5 10 80 81 99 100 26 5 5 5 5 0 0 1 5 5
100 100 100 100 100 100 100 100 100 100 100 100 100 100 100 99 100 71 59 5 18 5 5 5 5 5 5 70 100 100 98 42 5 5 5 77 5 5 3 5 4 5 5
100 100 100 100 100 100 100 100 100 100 100 100 100 99 89 100 96 84 20 87 74 5 5 5 5 12 31 67 33 6 5 46 70 34 5 86 11 5 5 5 0 5 6
100 100 100 100 100 100 100 100 100 100 100 58 8 58 100 84 48 66 99 99 84 5 5 5 5 5 3 0 4 5 5 54 100 94 5 90 21 90 77 5 5 8 30

GFSMA_prec_cloud_024.txt.gz
Cloud_Cover
50 89 60 41 28 4 5 5 3 5 5 5 0 0 0 0 0 0 0 0 0 0 0 0 0 0 0 0 0 0 0 0 0 0 5 65 100 100 100 100 51 5 44
29 42 47 38 30 0 1 3 0 2 5 3 0 0 0 0 0 0 0 0 0 0 0 0 0 0 0 0 3 5 5 5 5 5 5 38 76 100 100 100 100 98 91
4 20 34 38 8 0 0 0 0 4 5 0 0 0 0 0 0 0 0 0 0 0 0 0 0 0 0 3 5 41 99 99 98 57 19 31 96 100 100 100 100 100 100
4 14 24 17 0 0 0 0 5 1 0 0 0 0 0 0 0 0 0 0 0 0 0 0 0 0 0 0 4 5 19 28 22 23 74 100 98 96 86 63 71 99 100
8 86 14 5 2 0 0 4 1 1 0 0 0 0 0 0 0 0 0 0 0 0 0 0 0 0 0 0 0 0 4 5 4 4 5 5 6 31 40 39 13 5 20
10 10 5 5 4 0 0 5 1 4 5 2 4 0 0 0 0 0 0 0 0 0 0 0 0 0 0 5 5 5 5 5 5 4 5 4 1 2 0 0 1 5 5
16 5 0 0 4 5 5 62 6 5 5 5 5 5 0 0 0 0 0 0 0 0 0 0 0 0 1 5 5 5 5 5 20 57 96 21 5 5 5 5 5 5 5
5 5 26 4 51 68 100 100 70 5 5 2 1 0 3 3 0 0 0 0 0 0 0 0 0 0 0 0 4 6 14 22 17 22 32 98 79 40 28 5 5 5 5
14 6 46 37 83 100 100 100 100 19 5 35 5 8 3 0 0 0 0 0 0 0 0 0 0 0 0 0 0 2 8 14 5 5 6 28 47 90 91 77 90 46 5
44 52 16 78 100 100 100 100 100 63 50 51 27 5 5 5 5 5 5 0 0 0 0 0 0 0 0 0 0 0 5 5 5 5 5 5 5 5 8 13 30 47 26
96 100 73 98 98 100 100 100 100 100 100 97 31 13 8 5 5 5 5 5 5 0 0 0 0 1 0 2 0 0 0 0 2 5 5 5 5 5 5 5 15 13 15
83 95 99 90 96 100 100 100 100 100 100 100 100 83 100 20 5 5 5 5 5 5 5 2 4 5 5 5 2 1 0 0 0 2 5 5 5 5 9 19 14 17 48
95 100 98 100 100 100 100 100 100 100 100 100 100 100 100 100 92 78 34 5 5 5 35 5 5 5 5 2 0 2 0 0 0 3 5 5 5 5 5 11 8 14 14
13 5 6 86 100 100 100 100 100 100 100 100 100 100 100 100 100 100 100 98 17 49 50 57 62 87 5 5 5 5 0 0 0 5 5 5 5 5 5 5 4 9 73
100 100 100 100 100 100 100 100 100 100 100 100 100 100 100 100 100 100 100 100 99 44 89 100 98 78 28 14 5 5 0 0 5 5 5 5 5 5 1 5 75 66 85
100 100 100 100 100 100 100 100 100 100 100 100 100 100 100 100 100 100 100 100 87 12 85 51 98 65 51 36 5 5 5 2 5 5 5 5 5 21 97 95 94 99 98
100 100 100 100 100 100 100 100 100 100 100 100 100 100 100 100 100 100 100 99 85 73 59 89 64 5 48 6 5 5 4 3 2 3 5 5 34 88 99 95 96 94 99
100 100 100 100 100 100 100 100 100 100 100 100 100 100 100 100 100 100 100 99 100 100 98 41 6 5 5 47 5 5 5 5 5 0 5 5 5 6 7 93 98 94 100
100 100 100 100 100 100 100 100 100 100 100 100 100 100 100 100 100 100 100 100 100 100 100 71 51 26 24 50 5 4 5 5 4 0 2 5 5 5 5 29 59 46 34
100 100 100 100 100 100 100 100 100 100 100 100 100 100 100 100 100 100 100 100 99 96 100 77 60 88 29 5 5 6 5 5 5 4 3 5 5 5 5 5 5 5 5
100 100 100 100 100 100 100 100 100 100 100 100 100 100 100 100 100 100 100 100 100 100 99 92 99 64 35 5 5 5 5 5 5 5 5 5 5 5 4 5 3 3 5
100 100 100 100 100 90 100 100 100 100 100 100 100 100 100 100 100 100 100 100 100 100 100 100 100 71 13 29 5 5 5 75 89 5 5 5 5 5 4 0 0 5 5
100 100 100 100 100 100 100 100 100 100 100 100 100 100 100 100 100 100 100 100 100 100 95 80 75 19 88 68 13 83 28 89 86 42 5 81 5 5 0 0 0 5 5
100 100 100 100 100 100 100 100 100 100 100 100 100 100 100 100 100 100 100 100 100 93 29 16 10 48 74 99 100 100 94 58 31 5 5 94 5 5 0 0 3 5 5
100 100 100 100 100 100 100 100 100 100 100 100 100 100 100 100 100 73 61 41 67 100 100 100 22 21 15 42 19 5 5 55 94 44 5 79 5 5 5 5 0 0 5
100 100 100 100 100 100 100 100 100 100 100 100 100 100 100 88 91 88 100 100 100 100 68 6 5 5 3 0 2 5 22 88 100 94 5 84 6 36 71 5 5 5 0

GFSMA_prec_cloud_027.txt.gz
Cloud_Cover
83 48 100 82 48 0 0 4 4 0 3 2 5 5 0 0 0 0 0 0 0 0 0 0 0 0 0 0 0 0 0 0 0 3 1 5 5 5 60 100 100 100 100
36 55 100 97 53 2 0 0 1 0 0 0 1 4 0 0 0 0 0 0 0 0 0 0 0 0 0 0 0 0 0 0 0 5 5 5 5 5 44 55 100 100 100
5 56 73 90 44 5 4 0 0 0 0 0 2 0 0 0 0 0 0 0 0 0 0 0 0 0 0 0 0 0 0 0 2 5 5 5 5 46 7 42 19 24 96
6 28 53 63 17 5 5 0 0 0 0 0 1 0 0 0 0 0 2 0 0 0 0 0 0 0 0 0 0 0 0 0 0 0 0 5 5 5 5 13 66 97 63
30 17 70 62 16 5 0 1 2 5 0 0 0 0 3 0 0 0 0 0 0 0 0 0 0 0 0 0 0 0 0 4 5 5 5 5 5 3 2 3 1 3 2
23 85 85 21 5 5 5 5 5 5 1 0 0 5 5 5 0 0 0 1 0 0 0 0 0 0 0 0 0 0 0 0 0 1 5 5 5 5 5 5 5 4 0
99 39 5 6 19 20 5 5 5 10 1 4 5 5 5 5 5 5 2 4 0 0 0 0 0 0 0 0 0 0 0 0 0 0 1 5 5 5 5 5 5 5 5
17 6 37 80 38 48 24 17 6 99 5 5 12 40 5 5 5 5 5 3 0 0 4 3 0 0 0 0 0 0 0 0 0 0 1 0 1 2 5 5 5 5 5
89 20 6 21 14 44 68 100 100 100 80 26 100 99 69 31 8 37 11 5 5 5 5 5 5 4 4 0 0 0 0 0 0 0 2 2 1 3 5 5 5 5 5
100 84 94 85 99 74 100 100 100 100 100 100 100 100 100 100 61 100 98 100 56 29 5 5 5 5 4 5 7 5 0 1 5 2 4 5 5 5 5 5 5 5 5
100 100 100 100 100 99 100 100 100 100 100 100 100 100 100 100 100 100 100 98 91 100 17 5 5 5 5 52 92 16 5 0 4 0 3 5 5 5 5 5 5 2 0
100 100 100 100 100 100 100 100 100 100 100 100 100 100 100 100 100 100 100 100 100 100 84 71 5 5 5 38 51 11 5 4 5 6 43 5 5 40 9 16 5 11 1
100 97 44 98 100 100 83 100 100 100 100 100 100 100 100 100 100 100 100 100 100 100 99 24 5 5 5 5 46 5 5 2 1 0 5 5 5 5 5 5 5 6 15
28 42 25 11 6 39 100 100 100 100 100 100 100 100 100 100 100 100 100 100 100 100 100 100 61 58 28 5 5 5 5 5 0 3 5 5 5 5 5 5 5 5 5
10 12 13 48 40 13 89 100 100 100 100 100 100 100 100 100 100 100 100 100 100 100 100 100 97 69 30 5 5 5 5 4 1 5 5 5 5 5 5 4 4 4 5
57 39 14 23 72 100 100 100 100 100 100 100 100 100 100 100 100 100 100 100 100 100 100 100 100 93 85 35 38 5 7 25 18 5 5 5 5 5 5 58 45 73 67
97 92 88 78 57 95 100 100 100 100 100 100 100 100 100 100 100 100 100 100 100 100 100 100 100 100 100 100 64 9 16 5 7 71 45 5 5 6 57 86 83 56 76
90 100 100 100 100 100 100 100 100 100 100 100 100 100 100 100 100 100 100 100 100 100 100 100 100 100 100 100 98 52 88 70 77 96 24 5 5 5 5 7 74 88 100
95 96 100 100 100 100 100 100 100 100 100 100 100 100 100 100 100 100 100 100 100 100 100 100 100 100 100 100 98 100 93 100 100 100 19 5 5 5 5 5 20 55 25
100 100 100 100 100 100 100 100 100 100 100 100 100 100 100 100 100 100 100 100 100 100 100 100 100 100 100 100 100 93 100 92 75 41 29 80 6 5 5 5 5 5 5
100 100 100 100 100 100 100 100 100 100 100 100 100 100 100 100 100 100 100 98 100 100 100 100 100 100 100 100 100 95 100 80 83 100 32 85 5 5 2 4 3 5 5
100 100 100 100 100 100 100 100 100 100 100 100 100 100 100 100 100 91 100 100 100 100 100 100 100 100 92 86 89 96 100 100 97 47 17 60 5 5 2 0 0 5 5
100 100 100 100 100 100 100 100 100 100 100 100 100 100 100 100 100 100 100 100 100 100 100 100 100 100 98 99 90 96 87 100 99 61 65 35 5 5 5 0 2 5 5
100 100 100 100 100 100 100 100 100 100 100 100 100 100 100 100 100 100 100 100 100 100 100 100 75 77 85 72 98 100 85 76 42 10 20 88 5 5 5 4 5 5 5
100 100 100 100 100 100 100 100 100 100 100 100 100 100 100 100 100 100 100 100 100 100 100 100 54 82 17 45 19 10 64 90 82 47 5 82 5 38 6 5 1 1 5
100 100 100 100 100 100 100 100 100 100 100 100 100 100 100 100 100 88 100 100 100 100 100 61 5 5 5 2 4 5 59 99 99 87 5 93 66 62 76 13 5 5 5

GFSMA_prec_cloud_030.txt.gz
Cloud_Cover
24 59 100 86 100 94 2 0 0 0 0 5 0 0 0 0 0 0 0 0 0 0 0 0 0 0 0 0 0 0 0 0 0 0 0 0 0 0 0 5 5 43 100
6 20 100 42 94 82 29 0 0 0 0 1 0 0 0 4 0 0 0 0 0 0 0 0 0 0 0 0 0 0 0 0 0 0 0 0 2 5 5 5 5 5 5
4 5 78 77 99 96 27 2 0 0 1 0 0 0 0 0 0 0 0 0 0 0 0 0 0 0 0 0 0 0 0 0 0 0 0 0 0 5 5 85 97 97 14
5 5 22 100 95 91 5 5 5 5 5 5 5 5 3 0 2 5 0 0 0 0 0 0 0 0 0 0 0 0 0 0 0 0 0 0 0 4 5 5 5 3 2
5 9 34 60 98 73 17 7 7 5 5 11 6 5 8 21 4 0 0 0 0 0 0 0 0 0 0 0 0 0 0 0 0 0 0 0 0 0 0 3 4 6 7
44 55 99 100 84 67 59 36 57 49 16 98 97 36 6 14 5 5 5 5 5 3 4 0 0 0 0 0 0 0 0 0 0 0 0 0 0 0 0 0 0 5 5
81 92 65 48 69 63 47 36 44 93 61 96 72 14 17 98 24 6 6 6 5 5 5 5 5 4 5 5 5 0 0 0 0 0 0 0 0 0 0 4 0 7 0
74 64 64 78 100 88 10 15 17 76 71 9 59 99 91 100 100 94 100 52 50 35 46 30 64 14 3 5 5 3 5 5 5 5 5 0 0 2 1 2 0 2 4
53 87 100 100 100 68 27 14 64 66 42 70 99 93 100 100 100 100 100 94 72 100 100 100 74 20 23 8 4 5 5 5 5 5 5 5 0 2 3 1 4 4 5
100 100 100 100 100 100 100 100 100 100 100 100 100 100 100 100 100 100 100 100 100 100 100 100 100 100 100 100 13 5 5 5 5 5 5 5 5 0 4 3 5 5 5
100 100 100 100 100 100 100 100 100 100 100 100 100 100 100 100 100 100 100 100 100 100 100 100 100 100 100 100 10 5 5 5 1 0 2 5 5 5 5 5 5 5 5
100 100 100 100 100 100 100 100 100 100 100 100 100 100 100 100 100 100 100 100 100 100 100 100 100 100 100 100 5 5 5 4 3 4 1 5 5 5 5 5 5 5 4
100 100 100 100 100 99 100 100 100 98 100 100 100 100 100 100 100 100 100 100 100 100 100 100 100 100 100 98 53 99 98 94 5 5 5 5 7 5 5 5 5 5 5
100 100 100 100 100 100 100 92 77 90 100 100 100 100 100 100 100 100 100 100 100 100 100 100 100 100 100 100 100 100 100 100 7 5 5 5 5 5 5 5 5 5 5
95 100 100 100 100 100 100 100 100 100 100 100 100 100 100 100 100 100 100 100 100 100 100 100 100 100 100 100 100 100 76 66 90 90 96 6 7 5 5 5 5 4 5
100 100 100 100 100 100 100 100 100 100 100 100 100 100 100 100 100 100 100 100 100 100 100 100 100 100 100 100 100 100 100 100 100 90 6 5 66 36 35 5 1 3 43
74 100 100 100 100 100 100 100 100 100 100 100 100 100 100 100 100 100 100 100 100 100 100 100 100 100 100 100 100 100 100 99 54 100 100 73 58 88 6 5 5 32 39
100 100 100 100 100 100 100 100 100 100 100 100 100 100 100 100 100 100 100 100 100 100 100 100 100 100 100 100 93 100 100 100 100 100 75 59 16 32 5 5 29 10 19
100 100 100 100 100 100 100 100 100 100 100 100 100 100 100 100 100 100 100 100 100 100 100 100 100 100 100 92 77 94 100 100 100 100 100 100 87 100 93 24 55 5 79
100 100 100 100 100 100 100 100 100 100 100 100 100 100 100 100 100 100 100 100 100 100 100 100 100 94 100 96 86 87 99 100 100 100 100 96 73 94 100 48 55 8 8
100 100 100 100 100 100 100 100 100 100 100 100 100 100 100 100 100 100 100 100 100 100 100 100 100 100 100 91 100 100 100 100 100 100 100 100 35 32 5 10 5 5 4
100 100 100 100 100 100 100 100 100 100 100 100 100 100 100 100 100 100 100 100 100 100 100 100 99 97 100 77 92 100 100 100 100 94 78 61 41 100 28 5 0 4 5
100 100 100 100 100 100 100 100 100 100 100 100 100 100 100 100 100 100 100 100 100 99 95 100 91 100 100 100 100 100 100 100 95 80 100 100 100 39 5 1 1 5 5
100 100 100 100 100 100 100 100 100 100 100 100 100 100 100 100 100 100 100 98 99 100 100 100 100 100 100 100 100 100 97 92 91 72 96 84 5 5 5 1 0 5 5
100 100 100 100 100 100 100 100 100 100 100 100 100 100 100 100 100 98 100 100 100 100 100 100 100 76 100 79 20 81 14 99 84 62 61 83 5 75 6 3 0 4 5
100 100 100 100 100 100 100 100 100 100 100 100 100 100 97 99 100 100 100 100 100 100 100 100 95 100 92 27 5 5 69 92 100 99 77 32 9 76 86 19 7 5 5

GFSMA_prec_cloud_033.txt.gz
Cloud_Cover
99 100 100 100 100 78 27 4 0 0 0 0 0 0 0 0 0 0 0 0 0 0 0 0 0 0 0 0 0 0 0 0 0 0 0 0 0 0 0 1 2 3 5
48 46 87 100 100 100 84 7 5 1 0 0 0 0 0 0 0 0 0 0 0 0 4 0 0 0 0 0 0 0 0 0 0 0 0 0 0 0 0 0 1 4 5
51 30 6 76 100 82 100 52 5 5 2 0 2 0 5 26 5 5 5 5 5 5 2 0 0 0 0 0 0 0 0 0 0 0 0 0 0 0 0 0 0 0 0
2 1 0 5 68 57 94 82 5 5 5 8 9 7 5 27 5 5 7 20 5 4 3 0 0 0 0 0 0 0 0 0 0 0 0 0 0 0 0 0 0 0 0
37 13 6 42 20 98 41 53 5 5 28 69 76 63 96 100 72 69 14 7 5 5 5 5 4 0 0 1 2 3 0 0 0 0 0 0 0 0 0 0 0 0 6
32 44 65 63 56 46 85 14 5 6 94 97 54 70 20 68 100 94 45 6 39 93 86 35 6 5 5 6 5 5 5 0 0 0 0 0 0 0 0 0 4 0 0
70 66 35 44 64 98 100 43 53 44 66 60 96 18 44 49 66 45 89 98 100 100 100 100 91 62 10 87 62 100 17 5 5 1 0 0 0 0 0 2 0 3 0
16 99 79 68 97 91 100 77 44 91 98 100 74 86 63 18 42 5 51 100 100 100 100 100 100 100 100 100 53 96 100 97 99 6 6 5 4 1 0 4 5 3 0
55 99 100 98 88 82 100 91 70 32 47 74 48 33 45 100 99 95 99 100 100 100 100 100 100 100 100 100 100 100 100 100 61 10 25 5 5 5 5 1 3 5 5
100 42 100 100 100 100 100 100 100 100 100 97 100 100 100 100 100 100 100 100 100 100 100 100 100 100 100 100 84 99 100 79 100 100 62 5 5 3 4 2 3 3 4
100 100 100 100 100 100 100 100 100 100 100 100 100 100 100 100 100 100 100 100 100 100 100 100 100 100 100 100 100 100 100 100 100 100 11 6 5 6 5 5 5 5 5
94 100 100 100 100 100 100 76 50 52 72 94 100 100 100 100 100 100 100 100 100 100 100 100 100 100 100 100 100 100 100 100 100 100 89 93 99 100 96 5 5 5 5
90 100 100 100 100 100 100 100 100 51 25 61 88 100 100 100 100 100 100 100 100 100 100 100 100 100 100 100 100 100 100 100 96 100 100 100 100 100 78 5 5 5 5
76 99 100 100 100 100 100 100 100 100 99 84 94 100 100 100 100 100 100 100 100 100 100 100 100 100 100 100 100 100 100 100 100 100 100 84 100 99 100 94 15 5 5
30 45 70 100 100 100 100 100 100 100 100 100 100 100 100 100 100 100 100 100 100 100 100 100 100 100 99 100 100 100 100 100 100 100 100 91 84 36 90 25 28 5 5
0 41 100 100 100 100 100 100 100 100 100 100 100 100 100 100 100 100 100 100 100 100 100 100 100 100 100 100 100 100 100 100 100 100 100 100 94 90 100 68 90 83 5
0 5 38 100 100 100 100 100 100 100 100 100 100 100 100 100 100 100 100 100 100 100 100 100 100 100 100 100 100 100 100 100 100 100 100 100 81 95 86 100 100 100 100
5 80 92 94 100 100 100 100 100 100 100 100 100 100 100 100 100 100 100 100 100 100 100 100 100 100 100 100 100 100 100 100 100 100 100 100 91 98 92 69 93 100 100
9 24 50 67 100 100 100 100 100 100 100 100 100 100 100 100 100 100 100 100 100 100 100 100 100 100 100 100 100 100 100 100 100 97 100 97 21 19 95 93 95 100 100
9 60 86 100 100 100 100 100 100 100 100 100 100 100 100 100 100 77 100 100 100 100 100 100 100 100 100 100 100 100 100 100 100 87 95 16 5 5 5 5 18 24 88
26 74 36 89 100 100 100 100 100 100 100 100 100 100 100 100 100 100 100 100 100 100 100 100 100 100 100 100 100 85 98 99 87 67 69 13 7 27 24 23 16 5 32
50 85 100 100 100 100 100 100 100 100 100 100 100 100 100 100 100 100 100 100 100 100 100 100 100 100 100 100 100 99 88 99 100 96 82 81 8 9 29 95 68 18 5
100 100 100 100 100 100 100 100 100 100 100 100 100 100 100 100 100 100 100 100 100 100 79 100 100 91 96 98 100 100 54 39 49 76 17 100 70 52 5 4 4 5 5
100 100 100 100 100 100 100 100 100 100 100 100 100 100 100 100 100 100 100 100 100 86 49 99 92 74 94 92 97 100 99 100 97 94 79 14 5 5 0 0 2 4 5
100 100 100 100 100 100 100 100 100 100 100 100 100 100 100 100 96 89 98 96 100 100 100 100 100 78 96 100 100 100 100 99 52 5 5 5 3 5 5 0 0 0 3
100 100 100 100 99 100 97 99 100 100 100 96 100 100 100 100 100 100 100 100 100 99 99 96 100 100 100 100 99 86 18 5 82 87 24 5 6 34 67 3 0 0 0

GFSMA_prec_cloud_036.txt.gz
Cloud_Cover
92 69 77 54 91 45 14 5 5 5 4 2 0 0 0 0 0 5 1 5 5 5 5 5 3 5 5 4 0 0 0 0 0 0 0 0 0 0 0 0 0 0 0
87 79 57 44 5 18 92 31 5 5 4 1 5 4 0 2 3 5 7 8 5 5 5 5 4 5 5 5 0 0 0 0 0 0 0 0 0 0 0 0 0 0 0
76 13 5 7 0 1 99 100 55 5 5 5 5 5 4 6 5 28 98 17 12 5 17 10 6 5 5 0 0 0 0 0 1 5 0 0 0 0 0 0 0 0 0
19 2 0 0 0 0 100 96 100 18 5 5 20 30 6 5 12 14 57 100 28 5 92 100 100 22 31 5 5 0 0 0 0 4 5 0 0 0 0 0 2 0 2
39 5 0 4 0 2 8 62 71 94 97 100 100 99 96 80 5 6 65 36 94 16 98 90 86 100 100 97 77 10 5 1 5 5 4 0 5 1 0 0 0 0 0
17 0 0 0 1 4 5 5 25 100 14 68 60 74 100 81 47 82 100 92 64 84 23 14 52 100 100 100 100 100 95 5 11 5 26 36 88 5 3 0 0 0 0
22 5 1 3 0 5 5 16 70 58 65 82 100 100 79 100 100 100 99 79 15 5 72 66 55 100 100 100 100 100 100 100 100 75 100 56 87 5 4 5 4 0 0
72 92 25 7 29 13 92 99 100 100 34 5 15 16 37 56 56 14 14 41 73 83 84 100 100 100 100 100 100 100 100 100 100 64 5 5 5 7 6 5 4 3 5
0 0 65 93 75 98 100 100 100 100 97 76 80 84 87 100 100 100 100 100 100 100 100 100 100 100 100 100 100 100 100 100 100 59 80 63 31 39 99 100 39 5 2
5 3 4 28 5 90 100 100 41 100 100 100 88 100 100 100 100 100 100 100 100 100 100 100 100 100 100 100 100 100 100 100 100 100 100 59 100 100 100 96 96 7 14
98 49 47 25 63 100 100 100 100 98 100 100 100 99 100 87 90 98 98 100 100 100 100 100 100 100 100 100 100 100 100 100 100 100 100 100 100 96 96 100 80 100 100
90 98 99 100 100 100 100 100 100 100 100 100 70 40 91 95 64 77 100 100 100 100 100 100 100 100 100 100 100 100 100 100 100 100 100 100 100 100 100 99 100 100 78
98 6 30 100 100 100 100 97 100 100 100 100 100 91 84 100 97 100 100 100 100 100 100 100 97 100 100 100 100 100 100 100 100 100 100 100 100 91 100 100 100 42 79
51 100 100 98 92 100 100 100 69 88 100 100 100 100 100 100 100 100 100 100 100 100 100 100 100 100 100 100 100 100 100 100 100 100 100 100 100 100 100 59 99 25 5
30 70 61 4 97 100 100 100 100 100 100 100 100 100 100 100 100 100 100 100 100 100 100 100 100 100 100 100 100 100 100 100 100 100 100 100 100 100 52 45 90 82 61
17 0 0 0 16 100 100 100 100 100 100 100 100 100 100 100 100 100 100 100 100 100 100 100 100 100 100 100 100 100 100 100 100 100 100 100 100 100 100 40 85 57 99
0 0 0 0 0 28 77 88 99 74 100 100 100 100 100 100 100 100 100 100 100 100 100 100 100 100 100 100 100 100 100 100 100 100 100 95 77 92 99 100 100 100 100
0 0 0 0 0 5 5 68 100 96 100 100 100 100 100 100 100 100 100 100 100 100 100 100 100 100 100 100 100 100 100 100 100 100 100 100 99 46 5 96 100 53 15
49 18 2 48 14 41 60 96 99 100 100 100 100 100 100 100 100 100 100 100 100 100 100 100 100 100 100 100 100 100 100 100 100 100 100 100 100 85 100 93 34 5 5
0 0 0 0 5 10 45 42 8 77 94 100 100 100 100 100 100 100 100 100 100 100 100 100 100 100 100 100 100 100 100 100 100 100 46 73 99 100 100 89 59 17 83
40 21 6 69 100 98 72 71 91 100 100 100 100 100 100 100 100 100 100 100 100 100 100 100 100 100 100 100 100 100 99 100 100 100 100 100 100 80 54 46 5 5 5
86 61 34 78 100 100 100 100 100 100 100 100 100 100 100 100 100 100 100 100 100 100 100 100 100 100 99 100 100 100 100 100 100 98 99 99 13 64 99 59 3 5 7
100 100 100 100 97 100 100 100 100 100 100 100 100 100 100 100 100 100 100 100 100 100 100 100 100 100 100 100 100 100 93 81 54 58 100 100 48 9 5 0 0 5 5
100 100 100 100 100 100 100 100 100 100 100 100 100 100 100 100 100 100 100 100 100 100 100 100 100 100 100 98 100 92 99 87 96 65 22 76 5 5 5 1 0 0 5
100 100 100 100 100 100 100 100 84 92 84 79 98 100 100 100 100 100 100 100 100 100 98 89 78 100 85 95 94 98 94 59 30 5 2 5 5 5 2 0 0 0 0
100 100 100 100 74 61 95 95 24 35 53 34 70 74 100 100 100 100 98 63 41 32 35 10 5 5 20 6 5 5 5 5 65 10 5 5 6 23 16 5 0 0 2

GFSMA_prec_cloud_039.txt.gz
Cloud_Cover
67 9 30 5 18 13 43 58 28 26 6 5 5 3 1 2 5 6 6 5 5 5 7 5 5 5 12 14 5 5 4 0 2 0 0 0 0 1 0 0 0 0 0
54 73 81 100 100 100 100 85 13 7 0 0 4 2 5 5 5 12 50 51 5 7 69 84 53 40 78 86 91 81 6 5 0 0 0 0 1 0 0 0 0 0 0
100 100 100 100 100 99 22 5 90 69 1 5 5 5 5 5 6 100 88 55 69 48 91 100 98 100 100 100 100 77 10 5 5 4 0 0 0 0 0 1 0 0 0
100 100 100 100 88 20 6 4 38 100 42 0 4 3 5 5 5 100 86 100 100 84 81 99 55 97 100 100 99 96 100 91 25 5 5 6 5 4 5 5 2 4 0
100 100 64 66 91 5 0 0 0 67 94 2 5 3 4 5 7 17 100 100 100 100 34 10 29 88 100 65 35 71 100 55 86 60 93 5 35 74 5 6 100 6 0
29 5 9 5 5 5 0 0 0 0 9 5 55 28 5 5 5 5 39 100 100 100 87 37 66 83 17 5 64 97 100 99 100 100 100 98 92 94 64 87 7 5 11
7 52 21 37 5 4 0 0 0 12 5 5 100 90 90 97 89 100 91 46 100 99 51 98 94 99 95 72 98 100 100 100 100 100 100 100 100 54 10 5 0 6 0
100 100 97 54 2 1 0 1 5 37 100 100 100 100 100 100 100 100 100 100 100 100 100 100 100 100 100 100 100 100 100 100 100 100 100 65 79 100 81 5 2 0 1
0 2 0 1 40 97 72 5 5 6 71 100 97 62 5 5 14 19 99 99 100 98 100 100 100 100 100 100 100 100 100 100 100 100 100 100 100 81 32 2 8 21 100
0 0 0 2 12 7 38 5 5 39 98 88 100 98 47 92 98 53 85 94 89 100 100 100 100 100 100 100 100 100 100 100 100 100 100 100 100 100 66 59 31 71 100
2 1 0 0 8 12 6 99 82 45 81 100 100 100 92 42 46 19 77 100 100 100 82 100 100 100 100 100 100 100 100 100 100 100 100 100 100 100 100 100 92 100 100
5 5 82 14 5 92 94 23 44 55 72 100 100 100 98 38 26 99 100 52 90 100 100 100 100 100 100 100 100 100 100 100 100 100 100 100 100 100 94 100 100 100 40
8 71 11 96 50 75 93 98 92 58 100 100 100 100 100 86 100 100 100 100 100 100 100 92 100 100 100 100 100 100 100 100 100 100 100 100 100 100 100 100 100 100 100
5 5 5 52 100 100 75 48 99 100 99 86 100 100 100 97 96 100 100 100 100 100 100 100 100 100 100 100 100 100 100 100 100 100 100 100 100 100 100 100 100 100 100
5 5 2 5 30 54 9 45 95 92 100 100 100 92 93 100 100 100 100 100 100 100 100 100 100 100 100 100 100 100 100 100 100 100 100 100 100 100 100 100 100 100 100
58 83 13 2 30 5 2 9 33 41 59 89 100 100 100 100 100 100 100 100 100 100 100 100 100 100 100 100 100 100 100 100 100 100 100 100 100 100 100 100 100 100 100
4 5 13 46 1 0 0 0 0 18 40 62 63 99 100 100 100 100 100 100 100 100 100 100 100 100 100 100 100 100 100 100 100 100 100 100 100 100 100 100 100 100 100
0 5 0 0 0 0 9 38 45 50 90 100 99 100 100 98 100 100 100 100 100 100 100 100 100 100 100 100 100 100 100 100 100 100 100 100 100 100 100 100 100 100 100
12 0 0 0 0 0 1 16 99 87 100 100 100 100 100 100 100 100 100 100 100 100 100 100 100 100 100 100 100 100 100 100 100 100 100 100 100 100 100 100 100 100 100
1 1 0 0 0 0 11 46 86 79 71 74 100 100 100 100 100 100 100 100 100 100 100 100 100 100 100 100 100 100 100 100 100 100 100 100 100 100 100 100 100 100 100
30 0 0 0 0 19 59 57 55 88 100 100 100 100 100 100 100 100 100 100 100 100 100 100 100 100 100 100 100 100 100 100 100 100 100 100 100 100 100 100 100 92 24
95 44 34 39 100 100 99 100 95 100 100 100 100 100 100 100 100 100 100 100 100 100 100 100 100 100 100 100 100 100 100 100 100 100 100 100 100 79 84 65 6 5 5
96 97 79 77 98 100 100 100 58 100 100 100 100 100 99 100 100 100 100 100 100 99 98 90 100 100 100 100 99 100 100 100 97 98 87 23 5 33 5 4 1 3 5
100 100 100 100 100 100 100 99 98 85 81 67 80 69 97 100 100 100 100 100 100 100 99 86 88 70 23 33 70 81 78 81 33 5 5 26 5 5 5 4 0 3 5
100 100 100 100 100 100 100 98 83 73 28 33 31 5 7 7 5 15 74 50 40 59 74 94 100 100 100 100 100 100 80 8 16 5 5 6 5 5 5 4 4 0 4
100 100 86 21 5 12 5 5 13 18 5 5 4 0 5 5 6 59 7 5 5 5 5 5 5 5 5 5 5 5 6 5 56 20 5 7 11 21 11 5 5 4 5

GFSMA_prec_cloud_042.txt.gz
Cloud_Cover
6 64 73 30 36 28 13 76 35 79 10 34 47 46 26 5 5 5 5 0 1 1 2 11 12 34 82 75 100 72 46 100 100 100 39 5 5 5 0 0 3 8 6
55 55 20 9 79 95 100 81 99 100 81 7 5 10 7 4 5 5 5 5 5 2 42 96 97 90 100 96 100 90 15 100 100 100 98 5 5 5 0 0 7 2 3
66 75 95 97 100 100 100 100 100 74 40 5 5 4 5 4 5 5 5 5 5 8 95 100 54 23 72 100 100 40 5 14 99 100 100 26 5 5 4 2 0 0 2
98 100 100 100 100 100 100 100 92 14 4 5 0 0 0 0 0 5 5 10 39 12 60 100 11 67 100 94 100 97 95 98 96 76 100 99 99 99 63 5 5 4 5
100 100 100 100 100 100 100 75 5 8 5 4 8 12 1 5 5 10 95 100 82 72 67 100 100 35 41 85 100 99 100 100 76 99 100 100 100 100 100 80 98 31 5
100 100 100 100 100 98 53 25 5 4 0 0 40 100 88 9 69 95 100 100 90 100 98 100 100 100 100 100 100 100 100 100 100 100 100 100 100 100 100 100 100 95 5
100 100 100 100 100 100 26 5 5 5 0 2 5 52 73 59 69 91 10 79 87 56 100 100 100 100 100 100 100 100 100 100 100 100 100 100 100 100 100 100 100 82 64
100 100 92 100 91 89 36 5 13 5 4 23 9 48 80 23 5 5 5 4 15 60 92 100 100 100 100 100 100 100 100 100 100 100 100 100 100 100 100 100 100 100 43
100 55 62 89 31 5 5 0 0 22 16 4 5 2 20 10 4 5 5 19 65 100 100 100 100 100 100 100 100 100 100 100 100 100 100 100 100 100 100 100 100 100 100
33 5 5 6 7 10 3 7 8 25 57 64 18 1 5 7 66 34 35 12 5 6 55 53 80 100 100 100 100 100 100 100 100 100 100 100 100 100 100 100 100 100 45
85 74 4 2 12 32 20 8 17 54 65 86 66 85 75 70 78 99 80 64 8 31 43 99 100 100 100 100 100 100 100 100 100 100 100 100 100 100 100 100 100 100 95
58 14 6 12 3 14 18 21 22 77 50 68 99 100 100 100 100 100 100 94 100 100 100 100 100 100 100 100 100 100 100 100 100 100 100 100 100 100 100 100 100 100 100
30 58 5 15 12 4 100 65 99 96 58 76 75 100 100 100 100 100 100 88 100 99 79 100 100 100 100 100 100 100 100 100 100 100 100 100 100 100 100 100 100 100 100
5 10 5 5 5 5 5 31 39 7 38 73 94 100 100 99 100 98 98 100 96 65 100 100 100 100 100 100 100 100 100 100 100 100 100 100 100 100 100 100 100 100 100
5 34 12 34 5 5 5 5 9 33 61 93 80 100 100 99 75 98 100 100 100 100 100 100 100 100 100 100 100 100 100 100 100 100 100 100 100 100 100 100 100 100 100
60 83 98 32 5 5 7 26 36 32 46 98 100 100 100 98 100 100 100 100 78 84 100 100 100 100 100 100 100 100 100 100 100 100 100 100 100 100 100 100 100 100 100
100 100 100 51 5 6 7 5 18 30 100 100 100 100 100 100 100 100 100 100 100 100 100 100 100 100 100 100 100 100 100 100 100 100 100 100 100 100 100 100 100 100 100
100 100 45 7 5 5 1 4 0 2 92 100 100 100 100 100 100 100 100 100 100 100 100 100 100 100 100 100 100 100 100 100 100 100 100 100 100 100 100 100 100 100 100
43 30 5 5 2 5 3 0 0 8 50 100 100 99 100 100 100 98 99 100 96 89 100 100 100 100 100 100 100 100 100 100 100 100 100 100 100 100 100 100 100 100 100
22 5 5 4 5 4 0 0 2 11 20 27 64 99 100 100 100 100 97 100 100 100 100 100 100 100 100 100 100 100 100 100 100 100 100 100 100 100 100 100 100 100 100
52 5 5 1 1 8 11 0 10 37 72 99 100 100 89 100 100 100 76 98 100 100 100 100 100 100 100 100 100 100 100 100 100 100 100 100 100 100 100 100 100 100 100
100 100 97 100 100 100 100 93 33 98 100 100 100 100 100 100 100 100 100 100 84 100 100 100 99 74 99 95 100 100 100 100 100 100 100 100 100 87 88 100 100 57 5
100 100 100 100 100 100 100 99 58 20 38 42 62 36 35 59 98 96 94 92 99 100 96 87 89 100 86 48 89 52 30 17 53 99 100 100 100 100 100 99 69 81 46
100 100 100 100 100 100 100 100 100 79 48 13 7 5 5 7 6 11 8 6 5 5 5 5 7 5 29 54 69 98 99 87 63 63 86 37 5 5 5 5 0 5 5
100 100 100 100 100 81 33 13 16 16 5 5 5 5 2 1 5 5 5 5 5 5 5 6 6 11 7 61 67 77 72 63 16 5 5 5 5 5 5 5 5 3 5
100 40 29 51 6 5 5 5 14 8 5 5 0 3 5 5 6 54 5 5 5 5 5 5 5 4 5 5 5 5 5 5 48 15 5 30 10 12 46 2 5 2 4

GFSMA_prec_cloud_045.txt.gz
Cloud_Cover
5 11 16 23 30 31 20 6 5 26 61 27 68 5 40 59 80 29 37 5 5 5 5 8 37 50 11 68 95 100 97 43 37 100 100 100 75 51 19 12 1 3 7
10 19 8 18 31 36 43 28 88 100 100 71 5 35 71 63 65 67 8 1 3 5 5 5 14 27 23 39 48 94 79 12 45 53 27 47 53 61 58 84 6 11 6
72 95 80 13 15 97 100 100 100 100 84 25 5 5 5 54 39 4 0 1 3 5 5 5 5 5 28 34 100 100 71 100 100 98 28 16 33 100 74 100 98 34 24
89 100 92 100 100 100 100 100 100 96 13 5 5 5 91 82 5 1 0 2 2 5 5 5 5 5 99 41 16 66 86 100 100 100 100 100 100 100 100 100 100 97 100
99 100 100 100 100 100 100 100 100 51 34 5 5 13 9 68 60 4 5 5 5 5 6 5 16 88 86 100 100 100 100 100 100 100 100 100 100 100 100 100 100 100 100
100 100 100 100 100 100 100 86 59 82 11 5 13 22 6 53 56 5 5 5 5 5 5 5 5 56 86 95 100 100 100 100 100 100 100 100 100 100 100 100 100 100 100
100 100 100 100 100 100 100 100 100 44 49 59 45 9 5 5 2 5 5 5 5 5 5 5 5 50 76 98 100 100 100 100 100 100 100 100 100 100 100 100 100 100 100
100 100 100 100 100 100 100 50 34 71 59 97 90 83 23 5 5 0 0 5 5 5 5 5 48 92 97 94 100 90 99 100 100 100 100 100 100 100 100 100 100 100 100
100 100 100 99 96 98 56 13 5 37 42 29 32 96 100 51 15 5 6 4 4 5 5 50 10 83 99 84 100 100 100 94 100 100 100 100 100 100 100 100 100 100 100
100 81 84 81 56 37 24 18 10 14 50 100 72 70 82 100 100 94 77 68 65 89 10 100 97 100 100 100 100 100 100 100 100 100 100 100 100 100 100 100 100 100 100
22 65 22 29 28 29 19 55 36 50 63 99 100 99 100 100 97 100 100 80 100 22 86 70 89 50 100 100 100 100 100 100 100 100 100 100 100 100 100 100 100 100 100
98 59 74 75 24 30 29 24 43 51 81 99 100 95 97 92 100 100 89 84 99 54 81 53 25 89 100 100 100 100 100 100 100 100 100 100 100 100 100 100 100 100 100
96 82 70 40 37 43 30 12 12 98 100 82 100 100 37 76 65 100 100 100 100 99 78 29 28 19 28 94 100 100 100 100 100 100 100 100 100 100 100 100 100 100 100
88 79 40 25 19 6 46 28 14 22 25 100 100 100 88 37 100 100 100 100 100 100 86 100 14 23 20 86 100 100 100 100 100 100 100 100 100 100 100 100 100 100 100
100 100 96 94 16 7 23 27 70 96 100 100 100 100 100 100 100 100 100 100 100 100 100 92 31 2 3 14 85 100 100 100 100 100 100 100 100 100 100 100 100 100 100
100 100 99 99 66 18 37 10 44 100 100 100 100 100 100 100 100 100 100 100 100 100 100 100 90 100 95 100 100 100 100 100 100 100 100 100 100 100 100 100 100 100 100
100 100 76 33 88 73 75 49 57 34 99 100 100 100 100 100 100 100 100 100 100 100 100 90 100 90 99 100 100 100 100 100 100 100 100 100 100 100 100 100 100 100 100
100 75 82 95 100 89 52 72 38 5 5 4 22 57 72 100 100 100 100 57 100 100 100 100 100 100 100 100 100 100 100 100 100 100 100 100 100 100 100 100 100 100 100
29 94 92 93 8 8 82 54 14 5 2 2 5 3 12 0 1 67 53 79 100 98 100 100 100 100 100 100 100 100 100 100 100 100 100 100 100 100 100 100 100 100 100
99 100 42 24 7 10 5 7 4 26 42 52 36 23 6 2 28 68 95 100 98 100 100 100 100 100 100 100 100 100 100 100 100 100 100 100 100 100 100 100 100 100 100
100 59 43 70 85 84 56 21 84 100 100 100 100 100 100 100 100 100 100 100 100 100 100 100 100 100 100 100 76 90 83 85 86 99 100 100 100 100 100 100 100 100 100
100 100 100 100 100 100 100 100 99 100 100 100 100 100 99 100 100 100 100 100 99 39 96 96 91 85 62 28 17 73 81 72 87 45 27 10 98 91 99 100 100 100 100
100 100 100 100 100 100 99 86 85 51 17 20 12 18 21 26 52 64 59 78 91 90 97 68 11 12 10 5 5 5 6 5 5 12 20 45 74 50 55 52 90 18 6
100 100 100 100 100 99 89 56 8 5 6 5 5 5 5 5 5 5 5 5 5 5 8 5 5 5 5 5 5 5 5 5 5 5 5 67 5 5 5 5 5 5 5
100 100 100 93 5 5 4 5 6 5 5 5 1 5 2 5 10 32 5 5 5 5 6 6 5 5 5 7 14 12 80 70 18 5 5 5 5 5 5 5 5 12 54
100 65 40 24 6 5 5 5 4 5 4 0 0 0 4 5 21 46 6 9 6 5 5 5 5 5 3 0 0 4 5 5 54 5 5 35 10 5 10 2 5 4 5

GFSMA_prec_cloud_048.txt.gz
Cloud_Cover
33 17 17 22 40 28 36 39 5 5 5 13 31 34 57 5 6 5 13 5 5 6 10 5 17 90 100 56 4 22 13 4 17 92 16 91 89 61 62 100 100 100 37
60 77 70 64 67 90 99 52 19 6 41 44 77 89 68 5 21 5 2 5 5 5 2 2 3 9 62 100 46 20 10 14 25 29 26 42 100 100 100 100 100 100 100
100 87 60 57 99 100 99 72 97 98 17 77 100 14 5 69 5 5 5 6 5 2 5 5 0 2 8 86 89 92 11 36 66 64 99 100 100 100 100 100 100 100 100
100 100 100 100 100 94 100 100 84 96 52 59 5 5 5 5 5 5 5 5 5 5 5 5 5 5 5 5 44 56 93 100 100 100 100 100 100 100 100 100 100 100 100
100 100 100 75 72 98 100 100 100 92 13 10 21 12 20 35 90 8 5 5 5 5 6 64 70 7 5 5 6 29 99 100 100 100 100 100 100 100 100 100 100 100 100
100 100 100 99 100 100 100 100 100 81 24 9 6 12 5 5 6 5 5 5 5 5 59 19 6 5 5 5 5 18 84 100 97 61 100 100 100 100 100 100 100 100 100
100 91 100 100 100 83 64 85 55 33 46 34 95 100 65 5 15 5 5 5 5 11 15 11 30 20 10 0 1 20 27 90 100 100 100 100 100 100 100 100 100 100 100
96 100 97 61 50 87 98 47 46 96 99 98 100 100 100 72 16 5 5 5 30 44 62 38 9 6 5 5 4 81 100 100 99 100 100 97 100 100 100 100 100 100 100
98 94 62 81 96 98 90 99 100 100 100 100 81 100 100 100 88 46 14 100 40 81 65 5 16 73 64 34 100 100 100 100 100 100 100 99 83 100 100 100 100 100 100
100 100 100 100 100 100 100 100 100 100 100 100 100 99 81 90 100 100 100 81 100 64 81 25 82 52 74 54 94 100 100 100 100 100 100 100 100 100 100 100 100 100 100
100 100 100 100 100 100 100 97 100 99 77 99 100 100 100 99 100 99 100 60 87 97 5 99 79 66 22 80 43 100 100 100 100 100 100 100 100 100 100 100 100 100 100
100 100 100 97 100 67 80 82 79 100 100 98 95 100 76 12 26 100 100 88 100 75 5 6 90 56 68 22 53 98 100 100 100 100 100 100 100 100 100 100 100 100 100
100 100 100 100 100 100 100 100 100 100 93 100 99 100 100 100 100 100 100 100 100 92 48 0 22 0 18 0 0 0 26 99 100 100 100 100 100 100 100 100 100 100 100
100 100 100 100 100 100 100 100 100 100 98 99 100 100 100 99 100 100 100 100 100 99 100 87 8 0 0 0 0 0 13 92 100 100 100 100 100 100 100 100 100 100 100
100 100 100 100 100 100 100 100 100 99 100 100 97 100 100 95 100 100 100 97 100 100 100 100 97 28 15 14 81 71 86 79 100 100 100 100 100 100 100 100 100 100 100
100 100 100 100 100 100 82 75 100 100 100 100 100 100 100 100 76 100 100 100 79 100 100 100 100 97 100 100 48 98 92 100 100 100 100 100 100 100 100 100 100 100 100
100 100 100 100 78 14 5 5 42 94 99 99 54 88 36 55 67 93 99 84 99 99 100 100 100 100 100 97 100 100 100 100 100 100 100 100 100 100 100 100 100 100 100
100 100 77 32 6 26 12 5 5 5 5 14 14 62 13 11 12 20 31 32 40 78 100 100 100 100 100 100 100 100 100 100 100 100 100 100 100 100 100 100 100 100 100
56 45 59 5 25 24 6 9 67 82 39 91 91 26 35 36 56 82 82 96 100 99 100 100 100 100 100 100 100 100 100 100 100 100 100 100 100 100 100 100 100 100 100
100 67 62 69 75 26 66 37 96 100 100 100 100 100 91 94 100 100 100 100 100 100 95 100 100 100 100 100 100 100 100 100 100 94 100 96 100 100 98 92 100 100 100
100 92 99 100 100 96 69 100 100 100 100 100 100 100 100 100 100 100 100 100 100 100 100 100 99 96 99 100 100 97 47 28 9 8 33 11 46 39 7 96 66 99 100
100 100 100 100 100 100 100 100 93 99 100 100 100 98 93 100 100 100 100 100 100 95 95 95 38 41 26 18 16 5 9 5 5 5 5 5 5 5 5 47 99 79 6
100 100 100 100 100 100 100 94 15 5 5 5 5 5 5 5 5 8 29 21 46 56 58 5 5 5 5 5 5 5 12 25 5 5 5 5 5 5 3 5 5 5 5
100 100 100 98 100 84 71 22 5 5 5 5 5 5 5 5 18 5 5 5 5 5 7 5 18 12 5 5 5 5 5 5 5 5 5 82 5 5 4 5 5 5 5
100 100 99 100 100 8 5 3 4 5 5 5 2 5 5 5 34 84 5 5 7 29 74 70 34 6 8 18 7 6 35 60 17 5 5 5 5 5 5 5 5 11 95
100 100 100 100 30 5 5 2 2 5 4 0 0 4 7 53 47 50 92 100 38 44 46 12 5 5 5 5 5 5 21 6 63 5 4 41 10 5 5 0 5 2 4

GFSMA_prec_cloud_051.txt.gz
Cloud_Cover
5 14 55 55 85 84 69 98 34 5 32 16 19 79 51 11 51 17 5 5 5 5 5 5 10 0 69 100 80 15 1 0 0 0 1 1 6 5 18 53 100 100 100
6 36 16 18 50 98 100 79 96 22 25 62 29 86 98 61 29 5 5 5 5 5 5 5 5 1 6 32 100 100 13 86 25 63 28 5 5 17 100 100 100 100 100
5 28 60 84 92 97 100 80 100 99 100 100 79 100 66 72 12 27 5 5 5 5 5 5 4 5 5 43 82 100 100 100 71 15 6 11 2 11 100 100 100 100 100
88 64 37 50 63 89 78 100 100 100 100 58 71 43 7 5 5 5 5 5 5 5 5 5 5 5 5 5 6 100 100 100 100 24 38 81 25 54 99 100 100 100 100
46 57 51 48 80 73 53 100 100 100 100 38 5 12 5 13 30 5 5 5 33 5 5 5 5 5 36 71 6 67 100 100 100 98 8 89 77 96 100 100 100 100 100
72 74 39 31 36 85 100 67 100 100 42 5 52 9 43 7 5 6 66 67 10 5 5 5 5 5 5 84 89 38 81 100 100 98 35 8 41 9 94 100 100 100 100
63 99 100 99 100 100 100 71 23 30 98 97 98 84 38 5 52 100 75 100 10 5 5 5 5 5 5 5 5 2 40 70 99 72 74 36 8 21 40 100 100 100 100
100 100 100 100 100 100 100 55 70 89 100 100 100 100 85 100 100 70 98 20 5 5 5 15 12 16 5 5 59 74 85 95 100 100 100 93 91 96 71 100 100 100 100
100 100 100 100 100 100 100 86 100 100 100 100 100 97 98 100 100 100 60 12 14 47 63 30 45 15 34 4 7 95 100 100 100 100 100 100 93 98 83 100 100 100 100
56 64 59 91 100 100 100 100 93 100 100 100 100 100 70 100 100 94 85 48 36 97 100 18 7 5 0 0 60 100 100 100 100 72 100 100 100 100 100 99 100 100 100
33 57 99 100 100 100 100 100 100 100 100 100 99 100 100 100 76 94 96 31 93 58 5 5 5 1 20 52 65 50 89 24 54 95 98 97 100 100 100 100 100 100 100
100 100 100 100 100 100 100 100 100 100 100 100 100 100 100 66 62 100 100 100 100 65 5 5 1 0 0 0 0 1 0 0 14 83 80 100 89 91 100 100 100 100 100
100 100 100 100 100 100 100 100 100 100 100 100 100 100 100 100 100 100 100 100 100 90 80 5 2 0 0 0 0 0 0 0 5 68 86 100 100 100 100 100 100 100 100
100 100 100 100 100 100 100 100 100 100 100 100 100 100 100 94 100 97 89 100 97 100 17 0 0 6 0 0 8 0 0 4 13 90 100 100 100 100 100 100 100 100 100
100 100 100 100 100 100 100 100 100 100 100 100 100 99 83 88 100 61 97 100 100 99 74 29 26 94 100 70 100 33 48 48 91 89 100 100 100 100 100 100 100 100 100
100 100 100 100 100 100 100 100 100 100 100 100 100 81 98 100 98 100 100 100 92 96 100 100 100 100 58 100 99 89 100 81 100 71 100 100 100 100 100 100 100 100 100
100 100 100 100 100 100 100 100 100 100 100 100 90 91 56 63 48 74 61 77 70 100 100 100 100 100 100 100 95 57 99 100 100 100 100 100 100 100 100 100 100 100 100
100 100 100 100 100 100 98 73 57 59 45 57 35 22 27 7 44 20 26 36 99 100 100 100 79 96 100 100 99 87 87 100 95 99 95 35 99 100 100 100 100 100 100
89 100 100 96 92 53 100 39 34 65 81 68 37 83 33 29 68 100 96 100 100 100 100 82 78 88 86 100 99 100 100 96 80 74 88 44 80 100 100 100 100 100 100
100 100 61 69 72 48 88 100 100 100 100 100 100 97 96 99 100 100 100 100 100 100 96 94 90 100 99 100 100 100 71 89 58 7 30 41 35 18 28 26 32 37 40
100 100 100 100 100 92 100 100 100 100 100 100 100 100 100 100 100 100 100 85 46 70 95 100 100 63 58 37 29 17 12 5 5 5 3 2 2 2 2 1 1 1 1
100 100 100 100 100 100 100 100 100 100 100 100 100 100 100 100 100 100 100 100 100 77 89 34 6 5 5 5 5 5 5 5 2 3 1 0 0 0 0 2 5 1 0
100 100 100 100 100 100 100 100 99 100 96 5 14 5 5 6 3 4 5 7 11 5 5 5 5 5 6 10 7 12 5 5 5 5 5 0 0 5 5 5 4 5 5
100 100 100 100 100 100 100 100 100 96 20 15 30 5 5 5 7 0 5 5 5 8 43 17 78 52 18 8 5 5 5 5 5 5 5 5 1 0 0 0 4 5 5
100 100 100 100 100 100 96 100 100 60 74 63 5 5 1 5 39 5 5 5 15 61 57 60 22 8 5 9 5 5 6 5 4 0 4 5 5 5 5 5 5 18 5
100 100 100 99 100 100 100 100 100 100 99 2 0 0 5 6 5 49 5 5 6 21 5 5 5 5 5 5 5 5 5 5 5 5 5 5 5 5 5 5 5 5 5

GFSMA_prec_cloud_054.txt.gz
Cloud_Cover
8 5 5 5 5 5 5 5 5 24 49 32 49 21 8 80 17 73 21 5 6 31 5 40 16 23 24 6 5 90 50 17 2 12 2 5 5 9 25 13 8 37 63
48 6 14 87 63 11 5 5 6 73 91 39 15 14 56 100 37 37 5 5 59 8 24 12 59 5 6 22 76 100 100 98 48 3 5 5 5 10 5 3 7 53 91
18 18 12 17 14 5 8 39 76 68 5 6 5 28 100 100 11 5 6 40 5 10 6 5 5 2 4 0 2 30 100 100 100 97 41 7 4 3 1 1 5 94 100
48 36 21 59 67 64 70 85 16 19 23 17 83 48 52 41 24 37 26 16 5 10 8 5 5 5 0 0 78 90 35 100 98 98 30 1 75 5 6 6 5 26 100
12 10 18 57 74 61 28 26 39 48 46 79 100 100 53 60 96 99 41 17 50 5 5 5 5 4 3 4 1 36 100 93 82 93 19 0 62 44 5 5 100 100 100
5 11 37 53 84 73 46 41 64 96 100 100 100 88 78 99 100 100 100 33 5 5 5 5 5 1 0 0 0 19 90 98 100 68 70 18 14 5 5 51 100 100 100
100 83 50 34 60 55 65 94 100 100 100 100 100 100 100 100 100 95 66 5 24 5 5 5 5 5 0 0 4 5 0 40 99 36 100 100 34 8 44 82 95 100 100
97 100 100 100 100 100 100 100 100 100 100 100 100 100 100 95 100 78 23 12 21 81 20 5 3 3 0 5 11 10 7 14 96 100 100 100 100 94 85 100 100 100 89
100 100 100 100 100 100 100 100 100 100 100 100 100 100 83 93 99 100 100 97 55 14 5 5 1 2 5 26 4 20 16 21 1 95 100 100 100 100 100 100 100 100 100
100 100 100 100 100 100 100 100 100 100 100 100 100 100 100 100 99 100 100 89 48 5 5 5 5 5 3 5 2 0 0 3 93 100 97 16 78 54 100 100 100 100 100
100 100 100 100 100 100 100 100 100 100 100 100 100 100 100 100 100 100 100 100 29 5 5 5 52 10 13 5 0 0 0 0 0 0 0 57 100 100 70 94 37 100 100
100 100 100 100 100 100 100 100 100 100 100 100 100 100 100 100 100 96 94 100 100 46 5 20 5 66 32 6 0 0 0 0 0 8 51 100 100 100 89 95 77 100 100
100 100 100 100 100 100 100 100 100 100 100 100 100 100 100 100 100 100 100 100 32 62 37 67 58 33 5 1 0 0 0 0 10 50 97 100 100 25 100 91 100 52 100
100 100 100 100 100 100 100 100 100 100 100 100 100 100 100 100 100 100 100 84 62 90 6 97 16 2 0 0 7 0 16 25 92 57 96 100 75 82 100 100 100 99 100
100 100 100 100 100 100 100 100 100 100 100 100 100 100 100 100 100 71 100 81 56 93 89 98 48 10 82 86 45 34 72 100 100 2 65 100 92 100 100 100 100 100 100
100 100 100 100 100 100 100 100 100 100 100 100 100 100 100 39 21 40 44 100 100 100 97 94 45 75 100 99 62 88 74 96 100 100 100 100 100 100 100 100 100 100 100
100 100 100 100 100 100 100 100 100 100 100 100 92 65 43 63 50 98 30 39 54 64 87 88 52 98 99 100 97 99 94 88 78 100 100 100 100 100 100 100 100 100 100
100 100 100 100 85 81 100 100 100 100 84 56 46 50 36 99 74 100 60 61 62 93 96 100 94 98 82 76 81 92 100 58 66 92 100 100 100 100 100 99 100 100 100
36 70 85 100 100 60 76 60 39 19 26 20 16 100 100 93 100 99 100 100 100 100 100 100 100 90 99 100 100 100 100 96 37 8 5 6 5 5 5 26 95 100 95
82 86 95 89 56 46 65 90 86 100 94 94 100 100 100 99 100 100 100 100 97 88 94 83 100 95 94 99 99 59 44 17 16 5 5 5 5 5 5 56 97 100 100
100 100 100 96 88 100 100 100 100 100 100 100 100 100 100 100 99 100 59 61 90 87 91 100 100 92 94 63 60 60 48 13 5 4 0 1 0 1 2 1 1 1 2
100 100 100 100 100 100 100 100 100 100 100 100 100 100 100 95 100 100 100 100 98 99 90 100 78 10 38 73 31 31 5 5 5 3 0 0 0 0 0 0 0 1 5
100 100 100 100 100 100 100 100 100 100 100 100 100 100 74 42 66 14 17 20 8 5 5 5 4 5 58 11 5 5 5 5 5 1 0 2 3 0 0 1 0 3 5
100 100 100 100 100 100 100 100 100 100 100 100 100 100 61 90 5 33 0 0 3 5 5 4 5 5 5 6 5 7 5 5 5 5 4 2 5 2 4 5 5 5 5
100 100 100 100 100 100 100 100 100 100 100 100 100 100 100 33 27 5 5 3 0 4 4 5 2 1 5 5 5 5 33 5 5 5 5 5 5 5 5 5 5 5 5
100 100 100 100 100 100 100 100 100 100 100 100 100 100 100 90 5 5 5 1 3 5 5 5 5 5 5 5 5 5 5 5 5 12 6 6 5 5 6 5 48 61 83

GFSMA_prec_cloud_057.txt.gz
Cloud_Cover
0 0 5 3 5 5 5 5 6 11 10 19 5 5 5 5 5 2 5 8 5 5 5 5 19 28 16 10 5 3 21 16 3 3 6 4 5 1 0 8 3 0 38
5 3 5 5 5 5 5 5 21 22 25 22 15 23 12 6 5 56 50 5 5 5 6 22 70 95 13 9 28 9 6 32 67 11 62 5 3 0 0 0 1 5 61
61 20 52 27 7 5 5 5 58 40 17 20 16 28 28 52 82 98 98 38 5 22 99 100 99 7 5 5 6 27 11 4 10 79 14 6 0 0 1 3 5 34 8
70 44 48 40 50 43 19 18 52 32 20 46 97 48 100 100 100 99 45 30 93 100 100 45 5 5 5 5 5 0 48 41 0 0 5 3 0 0 4 5 5 5 99
100 94 85 96 100 78 56 67 90 100 99 83 29 46 100 100 100 100 100 98 91 38 5 5 5 5 5 5 3 5 0 4 9 14 7 12 0 4 5 5 5 5 81
99 100 99 88 100 100 100 100 100 27 87 98 68 100 100 100 92 78 76 27 11 8 5 5 5 20 4 5 2 1 1 5 39 42 99 100 96 53 28 6 6 42 98
87 98 100 100 100 100 100 99 86 100 83 100 100 100 100 100 100 100 100 66 40 5 60 40 6 5 5 0 1 6 14 5 5 36 47 100 100 100 100 77 66 42 94
100 100 100 100 100 100 100 100 100 100 100 100 100 100 100 100 100 100 100 41 94 68 92 10 32 8 0 9 14 6 36 82 67 12 40 99 72 100 100 100 100 98 68
100 100 98 100 100 100 100 100 100 100 100 100 100 100 89 98 100 100 100 100 100 100 34 39 5 0 0 0 4 0 5 90 5 9 4 13 61 15 97 100 98 72 29
99 72 64 99 100 100 100 100 100 100 100 98 100 100 100 100 100 100 100 100 100 92 79 68 32 0 0 4 0 1 27 5 0 0 0 1 40 63 61 76 100 50 43
100 100 94 100 100 100 100 100 100 100 100 100 100 100 100 100 100 100 100 100 98 82 11 78 17 2 0 0 0 5 4 0 0 0 23 30 27 55 38 100 100 94 100
100 100 100 100 100 100 100 100 100 100 100 100 100 100 100 100 100 100 100 100 100 100 11 92 57 0 0 2 1 0 0 0 0 0 1 23 100 100 96 76 100 100 100
100 100 100 100 100 100 100 100 100 100 100 100 100 100 100 100 100 100 100 100 99 99 5 83 5 5 0 0 0 0 0 29 66 10 13 43 100 97 31 53 56 100 100
100 100 100 100 100 100 100 100 100 100 100 100 100 100 100 100 100 100 100 96 96 96 18 96 72 16 0 0 0 0 2 100 100 96 8 62 99 49 0 6 17 100 100
100 100 100 100 100 100 100 100 100 100 100 100 100 100 100 100 100 100 100 100 100 50 15 96 100 22 1 0 0 14 91 100 100 100 100 100 100 93 100 100 100 100 100
100 100 100 100 100 100 100 100 100 100 100 100 100 100 100 100 98 86 86 68 44 10 100 100 100 5 0 2 8 91 88 100 100 100 100 100 100 100 100 100 100 100 100
100 100 100 100 100 100 100 100 100 100 100 100 100 100 100 96 100 28 7 7 67 20 100 100 77 24 22 29 58 48 99 98 97 100 100 100 100 100 100 100 100 100 100
100 100 100 100 100 100 100 100 100 100 100 100 100 100 100 100 36 29 52 100 100 99 100 77 79 95 91 81 68 99 100 94 100 91 100 100 100 100 100 100 100 68 88
100 100 100 100 100 100 100 100 100 100 99 100 100 100 97 60 100 100 100 100 81 100 100 100 100 100 54 100 100 99 87 6 5 5 5 5 7 13 8 5 82 92 5
100 93 100 99 100 100 100 100 100 100 97 82 84 42 59 97 100 77 100 93 100 99 96 100 100 100 47 100 60 20 11 11 5 5 5 5 5 5 5 5 5 5 48
99 95 100 100 100 100 100 100 100 100 100 100 100 82 100 100 100 100 100 100 100 100 100 100 100 100 100 92 30 5 2 5 5 5 5 2 0 0 0 0 1 4 5
100 100 100 100 100 100 100 100 100 100 100 98 100 100 100 100 100 100 100 100 100 100 100 100 100 79 19 5 0 0 2 4 5 0 0 0 0 0 0 0 0 4 5
100 100 100 100 100 100 100 100 100 100 100 100 99 100 100 100 100 100 100 99 100 88 14 5 1 0 0 0 5 5 5 5 5 0 0 0 4 3 0 1 5 5 5
100 100 100 100 100 100 100 67 93 100 100 100 100 100 100 100 100 100 100 100 41 100 15 2 4 5 5 5 5 5 5 5 5 5 5 5 5 5 5 5 5 5 5
100 100 100 100 100 100 82 100 100 100 100 100 100 100 100 100 100 100 100 100 98 73 56 0 0 2 2 5 5 5 5 5 5 5 5 5 5 5 8 48 40 5 5
100 100 100 99 100 100 100 100 100 100 100 100 100 100 100 100 100 100 100 100 100 100 7 3 0 5 5 5 0 1 5 5 5 15 6 8 6 12 22 5 36 7 5

GFSMA_prec_cloud_060.txt.gz
Cloud_Cover
5 5 5 3 0 0 4 1 1 0 0 0 2 5 5 5 5 5 5 5 5 7 55 69 5 7 57 28 5 5 5 5 30 17 3 5 5 4 4 3 1 6 2
64 6 4 14 23 5 5 5 5 7 11 29 45 5 6 5 5 5 5 5 85 74 78 29 5 9 5 10 43 28 5 10 8 5 0 5 4 0 1 3 0 6 5
83 31 5 60 37 18 14 17 12 5 5 5 5 5 47 76 80 8 27 92 89 92 6 5 5 5 5 5 6 26 96 37 3 0 0 0 5 5 5 5 5 2 5
100 100 44 18 61 50 50 89 100 100 100 99 96 100 100 100 97 77 93 52 58 85 73 7 11 5 5 49 45 14 45 56 91 0 0 0 4 9 100 4 0 0 12
100 100 52 16 31 68 75 92 100 99 100 100 100 100 100 99 65 73 68 7 5 48 100 100 26 8 5 6 83 56 5 1 7 89 88 48 24 46 24 7 4 5 5
100 94 96 100 100 100 100 100 100 100 100 77 100 100 100 100 59 82 45 36 17 61 65 93 92 48 9 5 5 5 5 4 1 2 54 100 100 100 100 73 24 3 5
100 100 98 99 100 100 100 100 100 100 77 100 100 100 100 98 51 98 100 93 96 92 88 61 99 100 29 7 5 5 3 10 28 18 5 6 56 96 100 100 72 49 5
100 100 100 100 100 100 100 100 100 100 100 100 100 100 100 100 100 100 100 100 92 98 100 60 20 25 22 37 5 3 0 0 70 46 91 34 7 20 26 94 100 100 100
100 100 100 100 100 100 100 99 100 100 100 100 100 100 100 100 100 100 100 100 100 98 100 100 15 36 5 5 1 0 1 0 0 0 0 3 5 3 6 12 76 100 100
100 100 100 100 100 100 100 100 98 100 100 100 100 100 100 100 100 97 71 64 91 77 88 100 85 92 45 2 0 1 19 0 0 0 6 20 6 1 40 83 97 89 62
100 100 100 100 100 100 100 100 100 100 100 100 100 100 100 100 100 100 100 100 100 100 100 100 100 77 6 5 2 84 99 5 4 0 0 0 6 52 85 46 49 99 100
100 100 100 100 100 100 100 100 100 100 100 100 100 100 100 100 100 100 100 100 100 97 100 100 88 66 5 5 4 95 100 33 12 7 2 11 25 98 91 58 100 25 83
100 100 100 100 100 100 100 100 100 100 100 100 100 100 100 100 100 100 100 100 100 100 99 100 77 10 5 1 10 100 10 73 100 100 93 88 100 95 65 17 37 8 2
100 100 100 100 100 100 100 100 100 100 100 100 100 100 100 100 100 100 100 100 100 100 100 100 94 5 5 5 89 100 5 100 100 100 100 100 100 84 32 5 58 15 51
100 100 100 100 100 100 100 100 100 100 100 100 100 100 100 100 100 100 100 100 100 100 100 100 47 6 92 68 100 72 32 100 100 100 100 100 100 100 100 99 100 100 100
100 100 100 100 100 100 100 100 100 100 100 100 100 100 100 100 100 100 100 100 100 100 100 63 46 7 95 79 100 88 98 96 72 99 100 100 100 100 100 100 100 100 100
100 87 99 85 100 100 100 100 100 100 100 100 100 100 100 100 100 100 100 100 100 100 100 100 52 93 97 100 63 90 46 26 81 24 87 100 100 100 100 99 100 100 100
86 100 100 94 100 100 64 99 100 100 100 100 100 100 100 100 100 100 100 100 100 98 29 100 100 84 95 92 43 100 16 0 0 2 5 34 100 100 100 100 100 95 94
100 100 100 98 90 100 98 99 100 100 100 100 100 100 100 100 100 100 100 99 90 21 46 100 100 100 100 100 67 7 0 0 4 5 5 5 5 5 5 8 74 91 27
100 100 100 100 96 95 63 80 73 100 100 100 86 88 88 99 100 94 98 80 94 100 100 100 100 100 100 100 41 5 5 5 2 0 0 0 1 3 5 5 5 5 6
100 100 91 100 100 100 99 100 100 100 100 100 100 100 100 100 100 100 100 100 100 100 100 100 100 100 100 90 5 5 2 3 0 0 0 0 1 2 4 4 2 5 5
100 100 100 100 100 100 100 100 100 100 100 100 100 100 100 100 100 100 100 100 100 100 100 100 100 77 100 100 44 5 1 5 5 0 1 5 5 5 5 5 5 5 5
100 100 100 100 100 100 100 100 100 100 100 100 100 100 100 100 100 100 98 100 100 100 100 100 100 100 69 75 5 5 5 5 5 3 0 1 2 5 4 0 0 2 5
47 100 100 100 100 100 100 100 100 100 100 89 100 98 97 100 98 100 100 100 100 100 100 100 100 100 100 67 5 5 5 5 5 3 5 5 5 2 1 5 5 5 5
100 100 100 100 100 100 77 29 96 100 100 100 100 100 100 100 100 100 100 100 100 100 100 100 100 100 100 58 8 6 5 5 5 0 3 5 5 5 5 5 5 35 52
100 100 100 100 96 100 96 94 100 100 100 100 100 100 100 100 100 100 100 100 100 100 100 100 100 100 100 47 5 6 5 5 18 6 5 5 6 5 11 5 5 5 5

GFSMA_prec_cloud_063.txt.gz
Cloud_Cover
100 26 22 6 5 5 5 5 4 0 4 5 5 24 27 23 26 33 52 20 42 5 5 5 5 12 16 27 7 5 5 5 5 5 2 5 0 0 0 1 3 4 100
100 100 93 90 16 19 5 5 5 5 5 3 5 12 35 23 5 12 62 53 8 10 5 5 5 5 5 5 15 74 90 5 5 5 4 1 0 0 0 0 5 5 40
100 100 100 100 93 5 7 90 97 5 5 5 5 5 49 99 100 99 95 84 93 100 100 100 16 5 5 22 52 5 14 78 100 36 4 0 0 0 0 0 0 0 0
100 100 100 100 100 100 18 32 94 100 91 100 73 100 100 100 93 52 29 28 42 98 63 100 100 60 5 5 46 100 35 8 96 100 78 4 2 0 5 5 0 0 0
100 100 100 100 100 94 95 99 99 100 98 100 100 100 91 54 5 11 48 24 5 37 68 60 60 5 26 5 8 77 65 34 23 8 98 100 99 63 36 13 12 5 5
100 100 100 100 100 100 100 100 100 100 100 78 100 100 100 100 100 94 82 8 33 100 20 5 25 6 6 5 8 6 76 6 34 10 3 28 86 100 100 86 81 5 1
100 100 100 100 100 100 100 100 100 100 76 99 100 100 100 100 81 82 100 89 98 63 83 98 5 5 12 100 100 100 5 5 3 47 88 24 5 30 100 100 96 39 5
100 100 100 100 100 100 100 100 100 100 98 92 93 55 76 100 100 100 100 100 99 100 100 67 16 24 94 98 67 27 46 2 3 4 4 7 26 15 0 38 96 64 81
100 100 100 100 100 100 100 100 100 100 99 100 96 61 81 98 100 100 100 100 100 100 100 100 97 42 46 46 82 100 5 2 10 32 27 31 21 5 2 0 5 53 60
100 100 100 100 100 100 96 85 91 70 82 98 96 100 96 61 99 100 100 100 100 100 100 100 100 100 100 96 86 5 5 5 3 5 17 89 100 100 86 85 12 31 98
100 100 100 100 100 100 100 100 100 100 96 80 87 54 97 100 100 100 100 100 100 100 100 100 100 100 100 100 30 85 5 5 0 5 5 6 47 100 100 93 100 50 94
100 100 100 100 100 100 100 100 100 100 100 100 100 100 100 100 100 100 100 100 100 100 100 100 100 100 100 100 78 7 5 7 100 94 18 75 100 100 67 31 57 98 55
100 100 100 100 100 100 100 100 100 100 100 100 100 100 100 100 100 100 100 100 100 100 100 100 100 100 100 96 28 57 14 100 100 100 100 100 100 100 99 0 0 5 46
100 100 100 100 100 100 100 100 100 100 100 100 100 100 100 100 100 100 100 100 100 100 100 100 100 100 100 92 14 5 19 100 100 100 100 100 100 99 100 29 48 27 90
100 100 100 100 100 100 100 100 100 100 100 100 100 100 100 100 100 100 100 100 100 100 100 100 100 100 100 100 15 4 10 100 100 100 100 100 100 100 100 100 100 93 76
98 100 100 100 96 100 100 100 97 100 97 100 100 100 100 100 100 100 100 100 100 100 100 100 100 100 98 36 58 28 90 100 100 99 100 100 98 76 100 100 100 100 100
100 100 85 88 95 100 100 84 99 100 100 100 100 100 100 100 100 99 100 99 98 100 100 100 100 100 88 59 38 56 30 100 100 100 92 81 34 16 44 89 96 100 100
100 100 100 100 100 100 96 78 100 100 100 100 100 100 100 100 100 100 100 100 100 100 100 100 100 100 84 68 8 100 100 100 100 100 12 4 0 0 4 36 52 91 100
100 100 100 100 100 100 100 100 76 100 100 100 100 100 100 100 100 100 100 100 100 94 100 100 100 100 100 100 27 94 100 100 100 100 41 4 0 2 4 5 11 40 23
83 71 80 54 98 100 100 100 100 100 100 100 100 100 100 100 100 100 100 100 100 98 100 94 100 100 100 99 100 100 100 100 98 100 17 4 0 0 0 0 1 2 5
6 47 100 100 100 100 100 100 100 100 100 100 100 100 100 100 100 100 100 100 100 100 100 100 100 100 100 100 100 100 100 100 100 19 93 5 5 0 0 0 0 0 0
90 11 99 100 100 85 100 100 100 100 100 100 100 100 100 100 100 100 100 100 100 100 100 100 100 100 100 100 100 100 100 100 100 34 6 5 5 0 1 0 0 0 0
89 33 85 43 100 100 100 100 100 100 100 100 100 100 100 100 100 100 100 100 100 100 100 100 100 100 100 100 100 100 100 100 100 81 12 5 1 1 4 4 0 0 0
20 44 95 99 100 100 100 100 100 100 100 100 100 100 100 100 100 100 100 100 100 100 100 100 100 100 100 100 100 100 100 100 100 71 9 6 5 5 3 2 2 0 2
100 100 100 100 100 100 99 100 70 52 91 82 86 100 100 100 100 100 100 100 100 100 100 100 100 100 100 100 100 100 100 100 86 26 15 5 5 5 5 5 5 0 3
100 100 100 100 100 100 69 46 27 86 22 82 100 100 100 100 99 100 100 100 100 100 100 100 100 100 100 100 100 100 100 96 69 41 17 5 6 5 7 5 5 5 5

GFSMA_prec_cloud_066.txt.gz
Cloud_Cover
100 100 100 98 96 88 18 63 44 25 5 5 25 100 86 62 98 13 5 48 32 6 5 5 5 7 8 21 60 46 24 9 0 0 4 0 0 0 0 0 2 2 16
100 100 93 71 99 100 99 31 40 5 5 5 5 64 81 83 16 70 86 65 28 99 89 95 97 26 81 5 6 5 71 100 93 39 0 0 0 0 0 0 0 6 3
100 100 100 100 100 100 100 100 97 98 10 56 57 48 29 63 84 100 100 94 55 10 100 100 43 100 100 5 5 6 5 36 100 100 100 16 2 0 0 0 4 5 0
100 100 100 100 100 100 100 100 100 88 90 100 100 100 100 100 100 86 55 29 50 100 100 100 99 100 56 100 50 7 8 78 83 100 100 100 61 7 5 5 3 5 4
96 100 100 100 100 100 100 100 100 100 100 100 100 100 100 100 74 56 56 58 47 54 58 69 96 100 100 100 100 84 35 10 40 45 13 77 100 98 48 5 8 5 5
100 100 100 100 100 100 100 100 100 100 100 100 100 100 100 100 100 40 82 53 27 44 30 76 75 95 100 100 100 100 100 99 100 100 34 5 43 100 100 92 12 12 5
100 100 100 100 100 100 100 100 100 100 100 100 100 100 100 90 72 94 24 17 5 31 70 100 98 100 100 100 100 100 100 100 100 97 89 50 69 2 9 98 76 51 100
100 100 100 100 100 100 100 100 100 100 100 100 97 100 100 100 62 49 26 7 11 100 100 100 100 100 100 100 100 100 100 100 90 97 100 98 29 10 9 0 24 100 100
100 100 100 100 100 100 100 100 100 100 100 100 100 98 100 100 100 100 100 100 89 100 100 100 100 100 100 100 100 100 100 100 100 99 84 84 96 100 70 0 1 1 81
100 100 100 100 100 100 100 100 100 100 100 100 100 100 80 100 100 100 100 100 100 100 100 100 100 100 100 100 100 100 100 100 99 14 5 22 94 100 100 3 38 11 43
100 100 100 100 100 100 100 100 100 100 100 100 99 87 91 96 100 100 100 100 100 100 100 100 100 100 100 100 100 100 100 100 100 94 54 6 63 100 48 97 100 100 68
100 100 100 100 85 99 100 99 92 100 99 100 100 100 100 100 100 100 100 100 100 100 100 100 100 100 100 100 100 100 100 100 76 100 100 100 100 100 100 92 11 20 100
100 100 100 100 100 100 92 78 58 71 85 100 100 100 100 100 100 100 100 100 100 100 100 100 100 100 100 92 100 100 100 100 96 100 100 100 100 100 99 87 45 38 54
100 100 100 100 100 100 100 100 100 94 100 100 100 100 61 100 100 100 100 100 100 100 100 100 100 100 88 100 100 100 100 100 100 95 100 100 100 100 100 100 100 94 91
100 100 100 100 100 92 86 37 78 99 92 100 100 99 100 100 100 99 87 100 100 100 100 100 100 99 100 100 100 100 73 59 51 63 96 100 100 100 100 100 100 100 96
100 100 100 100 100 100 100 80 90 66 60 74 94 100 100 100 100 100 100 100 100 100 100 100 96 100 95 54 28 92 100 96 100 85 61 55 100 100 88 66 86 91 100
86 78 94 96 97 98 81 98 64 85 99 100 100 100 100 100 100 100 100 100 98 100 100 100 100 100 100 100 71 100 100 68 14 98 100 100 100 100 40 40 99 44 91
96 82 100 100 96 100 89 23 91 100 100 100 100 100 100 100 100 100 100 100 100 100 100 100 100 100 100 100 100 100 100 29 100 59 60 65 100 100 25 47 59 48 31
100 100 100 100 100 89 95 88 97 100 99 100 100 100 100 100 100 100 100 100 100 100 100 100 100 100 100 100 100 96 100 100 100 100 100 100 100 100 41 13 13 5 51
100 100 98 53 18 11 100 87 31 86 100 100 100 100 100 100 100 100 100 100 100 100 100 100 99 100 99 100 100 100 97 100 100 100 100 100 100 100 76 72 57 5 5
3 5 4 44 5 92 90 81 55 81 100 100 100 100 100 100 100 100 100 100 100 99 100 100 100 100 100 100 100 100 100 100 100 100 100 100 100 100 6 10 33 5 5
0 0 0 2 5 22 97 100 100 99 100 100 100 100 100 100 100 100 100 100 100 100 100 100 100 100 100 100 100 100 100 100 100 100 100 100 100 93 19 5 5 7 5
0 3 4 1 0 0 20 100 100 100 100 100 100 100 100 100 100 100 100 100 100 100 100 100 100 100 100 100 100 100 100 100 100 100 100 100 100 49 40 12 7 5 5
0 0 3 10 16 6 100 100 100 100 100 100 100 100 100 100 100 100 100 100 100 100 100 100 100 100 100 100 100 100 100 100 100 100 100 97 100 46 43 50 24 5 5
92 90 100 100 73 96 100 100 100 100 100 100 100 100 79 79 100 100 100 100 100 100 72 100 100 100 100 100 100 100 100 100 100 100 100 100 100 18 36 35 5 5 5
98 100 100 100 100 100 100 76 50 25 74 78 47 78 100 100 100 100 100 100 100 100 100 100 100 100 100 100 100 100 100 100 100 100 100 100 65 52 67 13 5 5 5

GFSMA_prec_cloud_069.txt.gz
Cloud_Cover
40 78 62 94 92 89 99 62 66 100 99 80 69 19 22 16 40 98 24 8 41 34 96 59 20 45 5 5 9 52 99 99 93 50 51 68 28 6 5 4 1 2 9
93 100 53 54 79 100 98 92 64 93 100 100 100 100 96 97 96 100 97 100 100 100 89 73 100 98 9 87 4 11 5 87 100 100 100 100 64 5 5 16 5 0 0
100 84 87 93 42 65 100 60 88 100 100 100 100 100 99 97 100 100 100 100 100 91 99 88 100 78 17 5 5 5 20 82 100 51 100 100 92 58 5 5 4 2 0
82 100 90 88 73 58 90 100 100 100 100 100 100 100 97 100 100 100 100 88 100 97 89 44 50 8 11 33 15 51 99 100 100 100 100 100 100 73 16 8 5 5 0
100 100 89 85 56 91 98 100 100 100 100 100 100 100 100 100 100 100 100 100 100 100 100 100 100 95 94 52 100 100 100 100 93 100 100 100 85 100 93 30 9 5 5
100 100 100 96 69 45 81 97 100 100 100 100 100 100 100 100 100 100 57 100 100 100 99 54 51 9 32 100 100 100 100 100 100 100 100 79 98 22 100 100 20 5 5
100 100 100 100 84 82 89 100 100 100 100 100 100 100 100 100 100 100 100 100 86 100 97 96 76 100 100 100 100 100 100 100 100 100 100 100 55 32 17 5 69 64 5
100 100 100 100 100 100 100 100 100 100 100 100 99 100 100 100 100 98 86 69 77 97 95 100 100 100 98 100 100 100 100 100 100 100 100 100 100 100 29 16 0 6 100
100 100 100 100 100 100 100 100 100 100 100 100 100 78 100 100 100 100 100 94 78 57 84 100 100 100 100 100 100 100 100 100 100 100 100 52 100 94 100 13 8 7 2
100 100 100 100 100 100 100 100 100 100 100 100 94 70 66 100 100 99 100 100 100 100 100 100 100 100 100 100 100 100 100 100 100 100 100 6 70 94 100 92 62 74 7
100 100 100 100 100 100 100 100 97 100 98 100 100 100 91 96 58 98 100 100 100 100 100 100 100 100 100 100 100 100 100 100 100 100 98 100 100 100 100 85 27 97 100
100 100 100 100 100 100 100 100 100 58 68 30 38 63 98 69 84 85 98 100 100 100 100 100 100 100 100 100 100 94 100 100 100 100 100 100 100 100 100 100 100 100 37
100 100 100 100 100 100 100 100 100 100 100 99 95 100 96 96 100 100 100 100 99 100 100 100 100 99 100 46 100 100 100 100 97 83 100 100 63 100 100 98 59 100 96
100 100 100 100 100 100 100 100 100 100 100 100 100 100 100 99 61 59 98 99 100 100 97 100 100 74 98 100 100 100 98 100 70 24 94 92 100 100 100 100 100 91 100
100 100 100 100 100 100 100 100 100 100 100 100 99 100 100 96 40 100 100 100 94 98 100 100 91 100 100 100 100 100 99 100 99 100 15 93 100 100 100 100 100 100 100
100 100 100 100 100 100 100 100 100 100 100 100 100 100 99 100 100 100 100 100 100 100 97 100 100 100 100 100 100 100 100 100 100 100 88 74 99 99 100 100 100 100 100
100 100 100 100 100 100 100 100 100 79 52 93 100 79 79 98 100 100 100 100 100 100 100 100 100 100 100 100 100 100 100 100 99 98 100 100 100 93 100 100 100 100 100
100 100 100 100 100 100 80 63 5 6 5 17 99 100 100 100 100 100 100 100 100 100 100 100 100 100 100 100 100 100 100 100 100 100 16 100 100 100 100 100 100 100 100
100 100 96 100 100 100 74 74 65 81 98 62 94 100 100 100 100 100 100 100 100 100 100 100 100 100 100 100 100 100 100 95 100 100 100 100 100 100 100 100 100 100 100
100 100 100 100 100 100 100 100 100 100 100 100 100 100 100 100 100 100 100 100 100 100 100 100 100 100 100 100 100 100 99 100 100 100 100 100 100 100 100 100 100 100 94
0 0 0 6 22 28 45 81 17 8 13 33 100 100 100 100 100 100 100 100 100 100 100 93 100 100 100 100 100 100 100 100 100 100 100 100 100 100 100 100 100 100 100
4 0 0 0 0 0 0 0 4 2 41 100 100 100 100 100 100 100 100 100 100 100 100 100 100 100 100 100 100 100 100 100 100 100 100 100 100 100 100 100 100 100 80
0 0 0 0 0 0 1 23 77 77 100 100 100 100 100 100 100 100 100 100 100 100 99 100 100 100 100 100 100 100 100 100 99 100 100 100 100 100 100 100 100 100 98
0 0 0 0 0 0 41 47 95 79 98 100 100 100 100 100 100 100 39 5 51 93 99 100 100 100 100 100 100 100 100 100 100 100 100 100 100 100 100 100 100 100 81
5 31 0 89 100 61 26 82 100 100 100 100 100 100 100 100 92 6 20 8 82 100 100 100 100 100 100 100 100 100 94 100 100 100 100 100 100 100 100 100 100 100 61
68 100 100 100 100 99 47 100 96 100 100 100 100 100 99 27 80 81 22 45 100 100 100 100 100 100 100 100 100 91 100 100 100 100 100 100 100 100 100 100 100 96 72

GFSMA_prec_cloud_072.txt.gz
Cloud_Cover
52 82 98 70 12 5 5 5 37 21 49 8 7 35 86 100 100 100 65 100 91 50 100 100 60 87 100 79 100 90 52 53 100 92 52 50 98 100 100 79 56 21 5
30 23 26 59 52 80 81 30 63 78 56 62 100 100 100 100 100 100 95 100 100 100 100 100 100 99 98 80 100 89 5 5 11 54 86 87 100 100 100 100 9 57 1
83 75 93 55 78 75 49 39 83 58 49 81 78 64 100 100 100 100 99 51 100 100 100 100 100 100 100 100 83 29 77 6 65 5 95 100 100 100 100 100 100 13 0
100 89 99 100 25 28 62 63 68 86 47 34 36 100 100 100 100 100 100 83 85 74 100 100 99 100 86 18 39 13 16 64 64 72 100 100 100 100 100 100 94 5 5
98 52 82 99 60 20 100 100 100 100 46 85 76 100 100 100 85 82 14 93 100 100 100 90 97 64 100 100 100 100 100 96 45 100 100 100 100 100 100 100 60 5 5
89 100 100 67 100 98 100 99 100 86 100 100 100 99 51 49 37 40 99 100 100 100 99 96 85 100 82 100 98 100 100 98 100 100 100 100 100 100 100 100 100 34 2
100 100 100 100 100 100 100 100 100 100 100 100 100 33 5 38 100 45 55 47 99 100 89 72 94 100 100 100 34 99 100 100 100 100 100 100 100 100 100 100 9 100 97
100 100 100 100 100 100 100 100 100 100 98 100 100 95 28 14 5 11 57 12 48 84 89 54 5 87 100 99 87 100 100 100 100 100 32 54 100 100 100 67 18 6 13
100 100 100 100 100 100 100 100 100 100 100 100 74 87 100 95 98 70 38 40 30 5 4 5 92 99 100 100 100 100 100 100 100 90 31 45 100 100 100 100 6 5 2
100 100 100 100 100 100 100 100 100 100 100 100 75 48 60 67 29 29 84 96 73 93 100 26 75 100 100 89 100 100 92 68 44 98 10 99 86 100 100 94 27 32 7
100 100 100 100 100 100 100 100 100 100 88 98 63 77 12 56 100 100 100 81 100 100 100 100 100 100 100 100 100 100 94 72 15 80 100 100 100 100 100 100 42 71 85
100 100 100 100 100 100 100 100 100 100 100 100 91 51 87 47 100 98 100 100 100 100 100 100 100 68 21 98 99 77 97 80 5 87 44 100 99 100 100 100 84 100 52
100 100 100 100 100 100 100 100 100 100 100 100 99 100 89 99 100 100 89 90 81 100 100 100 100 88 70 100 86 86 100 99 100 90 95 100 100 100 100 100 100 100 100
100 100 100 100 100 100 100 100 100 100 100 100 100 100 100 100 100 100 100 53 95 100 100 100 100 78 98 100 100 99 100 100 100 100 100 100 100 100 100 100 100 94 100
100 100 100 100 100 100 100 100 100 100 100 100 100 100 95 100 100 100 100 100 98 100 100 100 100 87 100 100 100 100 100 100 100 100 100 100 100 100 100 100 91 79 100
100 100 100 100 100 100 100 100 100 100 100 100 100 100 100 100 100 100 100 100 100 100 100 79 98 100 100 100 100 100 100 100 97 100 23 100 100 100 100 100 100 100 100
100 100 100 100 100 100 100 100 100 100 100 100 100 100 100 100 100 100 100 100 100 100 100 100 100 100 100 100 100 100 100 100 100 100 100 100 100 100 100 100 100 100 100
100 100 100 100 100 100 100 100 100 100 100 100 100 100 100 100 100 100 100 100 100 100 100 100 100 100 100 100 100 100 100 100 100 100 100 100 100 100 100 100 100 100 100
100 100 100 100 100 100 100 100 100 100 100 100 100 100 100 99 100 100 100 100 100 100 100 100 100 100 100 100 100 100 100 100 100 90 93 100 100 100 94 100 100 100 100
100 100 100 100 100 100 100 100 100 100 100 100 91 50 4 90 100 100 100 100 100 100 100 100 100 100 100 100 100 100 100 100 99 100 100 100 100 100 100 100 100 100 100
96 100 77 44 7 29 25 12 39 18 5 0 0 0 89 100 100 100 100 100 100 100 100 100 100 100 100 100 100 100 100 100 100 100 100 100 100 100 100 100 100 100 100
4 30 5 5 5 0 0 0 0 1 0 1 15 77 100 100 100 100 100 100 100 100 100 100 100 100 100 100 100 100 100 100 100 100 100 100 100 100 100 100 100 100 100
0 0 0 0 0 0 0 0 7 92 54 85 100 100 100 100 100 100 100 100 100 100 100 100 100 100 100 100 100 94 100 100 100 100 100 100 100 100 100 100 100 100 100
0 0 0 0 0 0 11 11 69 100 56 71 100 100 100 100 100 100 100 100 76 23 23 26 86 100 99 100 100 100 100 100 100 100 100 100 100 100 100 100 100 100 100
5 10 0 5 0 45 28 100 100 42 91 94 100 100 100 100 100 100 66 5 5 46 87 21 51 96 100 100 100 100 100 100 100 100 100 100 100 100 100 100 100 100 100
74 100 100 21 8 73 100 95 87 100 100 100 100 100 100 100 100 34 5 72 71 65 99 100 100 100 100 100 100 100 100 100 100 100 100 100 100 100 100 100 100 100 100

GFSMA_prec_cloud_075.txt.gz
Cloud_Cover
100 100 77 59 55 5 5 6 5 5 44 56 19 33 11 5 61 35 28 100 85 100 97 100 100 91 100 100 100 100 94 90 10 71 55 3 11 100 96 62 100 100 100
62 92 73 26 14 5 5 5 5 70 99 43 75 100 58 5 6 10 94 100 81 77 100 100 100 94 100 100 100 27 78 5 5 5 25 5 63 100 95 100 100 100 100
54 67 13 10 6 10 5 6 86 51 32 32 92 97 86 9 5 5 6 96 79 99 99 100 99 100 78 44 100 58 5 5 1 3 5 63 93 89 71 100 100 100 100
57 50 82 78 14 23 64 68 6 6 5 24 100 57 33 5 1 14 6 49 53 45 32 5 98 21 5 7 5 5 4 4 5 47 100 80 100 75 96 84 98 100 100
97 100 99 91 99 28 57 54 59 49 40 85 11 36 99 11 14 49 6 5 10 99 26 95 13 5 17 9 0 4 5 7 98 93 100 100 52 72 55 80 100 100 100
100 97 85 98 100 84 62 71 6 84 96 100 100 100 8 1 4 0 0 4 54 22 5 5 4 8 7 3 29 5 5 98 100 94 100 57 93 24 20 13 93 100 83
87 100 100 95 100 100 100 97 54 40 100 98 99 43 0 0 3 4 0 5 9 32 5 0 0 0 4 97 100 24 100 26 96 96 95 100 100 13 32 36 46 96 100
100 100 100 100 100 100 99 100 100 72 98 89 96 98 4 34 5 5 5 5 5 4 4 1 0 100 16 100 72 100 50 87 15 100 21 5 36 100 47 40 10 11 5
100 100 100 100 100 100 91 84 92 100 82 88 100 99 59 99 39 18 5 5 5 1 1 4 0 58 93 86 48 92 6 90 100 100 5 6 84 100 100 95 66 57 5
100 100 100 100 100 100 100 92 100 100 100 97 49 10 39 38 32 17 23 5 5 5 45 100 100 20 8 97 82 40 100 100 44 60 96 100 100 100 100 94 36 100 18
100 100 100 100 100 100 100 100 100 100 100 100 100 57 100 69 53 88 15 6 12 100 100 83 49 100 44 98 96 26 87 99 100 33 37 100 100 100 53 100 100 100 100
100 100 100 100 100 100 100 100 100 100 100 100 100 100 100 99 90 100 100 100 100 97 100 19 18 96 100 100 92 29 100 100 86 100 98 100 100 100 100 59 100 100 100
100 100 100 100 100 100 100 100 100 100 100 100 100 100 100 97 100 100 100 55 88 61 57 66 62 100 100 100 100 100 100 100 100 100 100 100 100 100 100 100 100 100 100
100 100 100 100 100 100 100 100 100 100 100 100 100 100 100 100 100 100 95 100 85 55 14 86 98 99 100 100 100 100 100 100 100 100 100 100 100 100 100 100 100 100 100
100 100 100 100 100 100 100 100 100 100 100 100 100 100 100 100 100 100 99 100 100 70 85 100 94 100 100 100 99 100 100 100 100 100 100 100 100 100 100 100 100 100 100
100 100 100 100 100 100 100 100 100 100 100 100 100 100 100 100 100 100 100 100 100 100 99 100 100 100 100 100 100 100 100 100 100 100 100 100 100 100 100 100 100 100 100
100 100 100 100 100 100 100 100 100 100 100 100 100 100 100 100 93 99 97 100 96 100 100 100 100 100 100 100 100 100 100 100 100 100 100 100 100 100 100 100 100 100 100
100 100 100 100 100 100 100 100 100 100 100 100 100 100 100 100 100 100 100 100 100 100 100 100 100 100 100 100 100 100 100 100 100 100 100 100 100 100 100 100 100 100 100
96 59 100 100 100 100 100 100 100 100 100 100 41 100 100 100 100 100 100 100 100 100 100 100 100 100 100 100 100 100 100 100 100 100 100 100 100 100 100 100 100 100 100
100 100 100 100 100 100 100 100 100 100 100 100 100 100 100 100 89 64 91 100 100 100 100 100 100 100 100 100 100 100 100 100 100 100 100 100 100 100 100 100 100 100 100
100 100 100 100 100 100 100 100 100 36 100 100 96 100 38 13 80 100 100 100 100 100 100 100 100 100 100 100 100 100 100 100 100 100 100 100 100 100 100 100 100 100 100
100 100 100 100 100 100 100 100 82 100 100 99 99 99 44 22 65 90 100 100 100 100 100 100 100 100 100 100 100 100 100 90 99 96 100 100 100 100 100 100 100 100 100
100 100 100 100 100 96 45 16 90 35 4 19 31 67 94 62 87 100 100 100 100 100 100 100 100 100 100 100 100 100 91 100 100 100 100 100 100 100 100 100 100 100 100
100 100 100 100 100 100 100 78 4 3 60 18 64 100 100 100 100 100 100 100 100 100 94 60 100 100 100 100 99 74 51 95 100 100 100 100 100 100 100 100 100 100 100
23 66 87 100 74 7 2 68 100 100 41 36 32 73 100 100 100 100 100 100 46 6 5 5 5 5 38 100 96 100 100 100 100 100 100 100 100 100 100 100 100 100 100
100 15 100 13 0 25 2 79 100 89 41 44 100 99 98 100 100 100 100 26 0 5 5 5 5 33 100 100 99 89 100 100 100 100 100 100 100 100 100 100 100 100 100

GFSMA_prec_cloud_078.txt.gz
Cloud_Cover
100 91 100 100 100 100 99 30 32 17 16 5 5 10 9 5 19 7 5 5 5 53 87 5 14 9 5 5 40 7 5 17 7 12 6 4 11 19 6 5 4 4 0
66 91 100 100 99 71 23 83 85 40 5 5 5 5 5 5 24 72 6 19 8 94 7 5 34 63 19 93 100 98 6 0 0 19 9 37 17 100 100 5 0 0 0
100 100 100 78 100 99 19 27 18 24 100 21 51 53 19 58 64 27 64 48 56 100 44 96 100 17 5 49 96 5 0 0 1 8 5 5 42 100 90 5 25 0 5
100 100 80 75 100 79 44 24 67 17 100 79 46 40 27 22 14 10 7 91 62 100 17 4 4 5 18 5 5 1 0 0 5 4 6 17 91 100 66 77 30 1 5
100 100 92 94 100 100 100 81 74 90 77 66 54 78 60 10 15 1 5 6 20 14 4 2 4 5 5 4 5 9 0 0 5 2 3 6 94 94 97 90 53 5 5
84 100 100 100 100 88 87 78 57 69 87 82 27 93 99 32 0 0 2 0 0 0 3 5 6 5 5 1 5 5 2 5 1 2 5 5 8 100 100 82 48 70 46
100 100 100 98 81 82 43 68 71 49 84 30 41 96 77 27 5 2 0 4 4 2 4 5 10 63 8 2 5 71 100 41 4 0 82 99 100 100 100 100 28 99 100
100 100 100 100 100 100 26 48 67 89 22 89 17 5 48 13 5 4 5 5 5 5 5 5 24 13 2 0 100 71 45 2 0 3 16 100 100 100 100 98 99 90 100
100 100 100 100 100 100 100 100 98 99 92 100 66 38 18 31 5 3 5 23 5 5 5 5 5 4 80 18 69 83 30 0 0 7 100 100 100 100 100 96 98 100 100
100 100 100 100 100 100 100 100 100 100 100 100 98 100 94 93 97 54 98 94 56 5 6 13 3 5 7 9 5 13 74 2 6 8 89 100 100 100 100 98 100 100 100
100 100 100 100 100 100 100 100 100 100 100 94 100 100 100 100 100 100 100 55 64 8 5 99 16 51 53 5 100 91 91 5 47 48 100 100 100 100 100 100 100 100 100
100 100 100 100 100 100 100 100 100 100 100 100 100 100 100 100 100 93 98 100 100 98 92 100 93 98 100 6 63 100 100 100 88 100 100 100 100 100 100 100 100 100 100
100 100 100 100 100 100 100 100 100 100 100 100 100 100 100 100 100 100 84 100 100 100 100 100 97 40 65 12 54 100 98 100 100 100 86 100 100 100 100 100 98 100 100
100 100 100 100 100 100 100 100 100 100 100 100 100 100 100 86 96 100 99 94 100 94 93 100 100 100 47 96 94 100 100 100 100 100 100 100 99 59 100 99 99 100 100
100 100 100 100 100 100 100 100 100 100 100 100 100 100 100 98 100 100 100 100 100 100 100 100 99 98 100 100 100 100 100 100 100 100 100 100 100 91 100 100 100 100 100
100 100 100 100 100 100 100 100 100 100 100 100 100 100 100 100 100 100 100 100 100 100 100 100 100 100 96 100 100 100 100 100 100 100 100 100 100 59 100 100 100 100 100
100 100 100 100 100 100 100 100 100 100 100 100 100 100 100 100 100 100 100 100 100 100 100 100 100 100 100 100 100 100 100 100 100 100 100 100 100 100 100 100 100 100 100
100 100 100 100 100 100 100 100 100 100 100 100 100 100 100 100 100 100 100 100 100 100 100 100 100 100 100 100 100 100 100 100 100 100 91 100 100 100 100 100 100 100 100
100 100 100 100 100 100 100 100 100 100 100 100 100 100 100 100 100 100 96 100 96 100 100 100 100 100 100 100 100 100 100 100 100 100 100 100 100 100 100 100 100 100 100
100 100 100 100 100 100 100 100 100 100 100 100 84 100 100 100 46 63 100 81 99 69 86 100 100 100 100 100 100 100 100 100 100 100 100 86 100 100 100 100 100 100 100
100 100 100 100 100 100 100 100 100 100 100 95 98 100 65 27 5 94 99 95 100 100 100 100 100 100 100 100 100 100 100 100 100 100 94 99 100 100 100 100 100 100 100
100 100 100 100 100 100 100 66 79 100 58 5 98 100 27 100 100 8 100 100 88 100 100 100 100 100 100 100 100 100 100 100 100 86 52 59 100 98 100 100 100 100 100
100 100 100 100 100 100 86 100 99 100 100 100 100 98 100 100 98 100 63 97 98 71 85 99 100 100 100 100 100 100 100 100 99 6 39 94 100 100 100 100 100 100 100
92 100 100 100 100 100 100 100 100 100 100 100 100 100 100 81 100 100 99 92 92 96 100 100 100 100 100 100 100 100 100 99 100 73 72 100 100 100 100 100 100 100 100
100 100 100 100 100 88 100 100 100 100 100 100 91 98 100 100 100 100 63 92 100 100 93 31 10 11 89 100 100 91 42 79 98 100 100 100 100 100 100 100 100 100 100
100 100 100 100 100 100 100 100 100 100 100 97 75 95 96 100 100 96 99 99 93 41 5 5 5 1 5 5 15 9 58 96 99 100 100 100 100 100 100 100 100 100 100

GFSMA_prec_cloud_081.txt.gz
Cloud_Cover
100 100 100 100 100 100 100 100 100 100 45 9 5 5 18 20 49 43 53 75 64 61 57 90 50 100 100 57 57 5 5 12 8 7 36 5 3 3 0 4 62 100 78
100 100 100 100 100 100 100 100 100 98 88 38 5 12 28 15 6 41 78 52 23 91 77 97 100 93 34 38 5 100 6 5 3 5 3 30 23 0 0 0 27 85 100
100 100 100 100 100 100 100 100 95 100 90 38 28 28 19 23 42 24 6 26 6 11 70 33 16 4 3 11 40 60 5 4 0 5 6 18 17 30 6 6 97 98 100
100 100 100 100 100 100 100 81 72 95 94 69 33 15 68 14 14 11 49 34 15 5 9 4 5 0 2 32 5 2 5 0 5 0 58 4 16 14 84 97 100 100 22
100 100 100 100 100 100 100 87 86 79 100 100 89 75 100 98 8 24 10 12 14 8 5 5 4 4 2 2 4 39 1 0 2 4 0 1 4 8 23 100 100 100 100
100 100 100 100 100 100 100 86 69 94 100 100 97 100 100 14 36 6 8 4 5 15 7 5 5 2 0 0 5 0 0 0 0 0 1 0 1 4 10 23 99 100 76
100 100 100 100 100 100 100 100 100 100 100 93 100 90 7 5 8 23 0 1 3 5 5 5 10 24 0 0 0 0 0 0 0 9 1 0 5 2 54 92 100 100 100
100 100 100 100 100 100 100 100 100 100 100 89 64 21 38 71 3 5 5 3 5 4 4 5 5 84 66 0 0 0 34 10 4 1 1 5 5 13 88 100 100 100 100
100 100 100 100 100 100 100 100 100 100 100 98 100 82 36 7 73 5 6 5 5 2 1 5 5 5 10 2 0 30 70 0 0 5 29 5 57 91 99 100 100 100 100
100 100 100 100 100 100 100 100 100 100 100 100 99 100 70 80 38 58 91 78 7 5 5 47 5 5 3 7 22 33 22 0 5 14 90 38 100 100 100 100 100 100 100
100 100 100 100 100 100 100 100 100 100 100 100 100 100 100 100 100 100 99 88 99 89 19 49 5 82 99 10 98 13 6 66 100 74 91 64 100 100 100 100 100 100 100
100 100 100 100 100 100 100 100 100 100 100 100 100 100 100 100 100 100 100 100 93 89 95 80 96 100 35 82 29 31 93 100 100 100 100 100 100 100 100 100 100 100 100
100 100 100 100 100 100 100 100 100 100 100 100 100 100 100 100 100 100 100 100 100 100 100 100 100 46 12 100 87 74 100 100 100 100 100 100 100 100 100 100 100 100 81
100 100 100 100 100 100 100 100 100 100 100 100 100 100 100 100 100 100 100 100 100 100 98 93 98 96 98 66 100 100 100 100 100 100 100 100 100 95 100 96 96 100 96
100 100 100 100 100 100 100 100 100 100 100 100 100 100 100 100 100 100 100 100 100 100 100 100 100 100 98 85 100 100 100 100 100 100 100 100 100 100 100 100 100 100 100
100 100 100 100 100 100 100 100 100 100 100 100 100 100 100 100 100 100 100 100 100 100 100 100 100 100 97 100 100 100 100 100 100 100 100 94 100 100 100 100 100 100 70
100 100 100 100 100 100 100 100 100 100 100 100 100 100 100 100 100 100 100 100 100 100 100 100 100 100 100 100 100 100 100 100 100 100 100 100 100 81 100 100 100 100 100
100 100 100 100 100 100 100 100 100 100 100 100 100 100 100 100 100 100 100 100 100 100 100 100 100 100 100 100 100 100 100 100 100 100 100 100 100 96 97 73 100 100 100
100 100 100 100 100 100 100 100 100 100 100 100 100 100 100 100 100 100 100 100 100 100 100 100 100 100 100 100 100 100 100 100 100 100 100 100 100 90 7 100 92 94 100
100 100 100 100 100 100 100 100 100 100 100 100 100 100 100 100 100 100 100 100 100 100 100 100 100 100 100 100 100 100 100 100 100 100 100 100 100 68 5 100 100 91 100
100 100 100 100 100 100 100 100 100 100 100 100 100 100 100 100 100 100 100 100 100 100 100 100 100 100 100 100 100 100 100 100 100 100 100 100 100 21 4 25 2 100 100
100 100 100 100 100 100 100 100 100 100 100 100 76 99 100 100 100 100 100 56 100 99 100 100 100 100 100 100 100 100 100 100 100 100 100 100 30 5 5 29 81 93 100
97 89 100 99 100 100 100 100 100 100 100 100 100 90 100 34 81 100 100 100 100 100 98 100 100 100 98 100 100 100 100 100 100 100 100 11 78 100 6 64 100 100 100
31 20 9 9 5 10 73 96 83 98 100 100 70 100 94 99 100 100 100 95 100 100 99 100 100 100 44 100 100 100 100 100 100 100 11 44 100 51 100 98 100 100 100
100 97 34 5 14 100 93 100 42 16 60 100 96 88 100 100 100 100 99 100 100 100 100 100 100 100 100 100 100 100 100 100 91 8 5 54 92 98 100 100 100 100 100
100 100 100 97 100 97 100 100 100 100 75 100 100 100 100 100 100 100 100 100 100 100 100 96 66 31 3 14 83 100 100 51 46 6 5 36 70 100 100 97 87 79 100

GFSMA_prec_cloud_084.txt.gz
Cloud_Cover
46 7 70 100 100 100 100 100 100 75 100 98 80 100 24 5 5 5 16 49 62 54 16 47 40 96 100 47 59 6 36 5 5 5 12 23 0 0 1 4 3 50 100
100 100 100 100 100 100 100 100 100 98 100 97 83 98 45 5 9 87 100 81 13 5 5 5 15 100 88 6 5 5 5 5 5 5 3 2 32 17 4 0 3 5 91
100 100 100 100 100 100 100 100 100 100 100 100 95 96 79 46 88 81 40 8 22 7 5 7 55 100 5 5 57 35 5 5 3 0 0 0 0 22 41 28 79 5 92
99 100 100 100 100 100 100 100 100 100 100 86 95 89 88 97 96 100 97 100 99 5 3 5 36 54 81 22 99 42 7 16 4 5 0 0 0 1 10 80 77 89 100
100 100 100 100 100 100 100 100 100 100 100 99 99 43 65 100 98 100 25 26 11 1 1 4 32 88 39 33 82 34 5 5 5 2 0 0 2 1 93 100 76 42 76
100 100 100 100 100 100 100 100 100 100 100 100 85 57 99 100 100 100 94 86 8 4 0 5 5 4 4 5 21 33 2 1 5 5 5 1 4 5 46 100 63 100 100
100 100 100 100 100 100 100 100 99 100 100 100 97 100 100 100 100 100 100 19 38 29 4 4 96 5 51 91 83 5 4 5 5 0 100 28 36 5 88 100 100 100 100
100 100 100 100 100 100 100 100 100 100 100 100 99 100 100 100 100 100 100 87 26 5 18 3 4 17 55 5 5 5 4 5 0 61 17 5 10 30 100 100 99 55 100
100 100 100 100 100 100 100 100 100 100 100 100 100 100 100 100 100 100 98 65 5 5 5 5 5 27 26 13 5 2 0 0 13 43 17 0 2 100 100 100 86 100 100
100 100 100 100 100 100 100 100 100 100 100 100 100 100 100 100 100 87 96 55 47 5 17 79 34 5 64 10 5 3 2 100 95 91 100 48 27 100 100 100 100 100 100
100 100 100 100 100 100 100 100 100 100 100 100 100 100 100 100 100 100 100 100 100 100 98 67 100 97 83 56 28 5 5 5 29 56 20 100 42 100 100 100 100 100 88
100 100 100 100 100 100 100 100 100 100 100 100 100 100 100 100 100 100 100 100 100 99 95 93 83 100 96 47 86 34 67 65 96 54 100 92 100 100 100 100 100 100 99
100 100 100 100 100 100 100 100 100 100 100 100 100 100 100 100 100 100 100 100 100 98 100 100 79 40 29 100 38 16 5 8 18 77 98 100 100 100 100 75 37 81 99
100 100 100 100 100 100 100 100 100 100 100 100 100 100 100 100 100 100 100 100 100 100 88 100 100 100 40 40 7 80 34 99 55 100 100 100 100 100 18 7 77 100 100
100 100 100 100 100 100 100 100 100 100 100 100 100 100 100 100 100 100 100 100 100 100 100 100 100 100 100 100 96 96 94 98 100 100 100 100 100 100 65 100 100 100 100
100 100 100 100 100 100 100 100 100 100 100 100 100 100 100 100 100 100 100 100 100 100 100 100 100 100 98 96 65 100 98 100 100 100 100 100 100 87 100 100 98 100 100
100 100 100 100 100 100 100 100 100 100 100 100 100 100 100 100 100 100 100 100 100 100 100 100 100 100 100 100 100 100 100 100 100 100 100 100 96 100 100 72 100 100 100
100 100 100 100 100 100 100 100 100 100 100 100 100 100 100 100 100 100 100 100 100 100 100 100 100 100 100 100 100 100 100 100 100 100 100 100 100 100 100 58 91 72 73
100 100 100 100 100 100 100 100 100 100 100 100 100 100 100 100 100 100 100 100 100 100 100 100 100 100 100 100 100 100 100 100 100 100 100 100 100 100 100 81 3 0 1
100 100 100 100 100 100 100 100 100 100 100 100 100 100 100 100 100 100 100 100 100 100 100 100 100 100 100 100 100 100 100 100 100 100 100 100 100 100 100 41 3 1 4
100 100 100 100 100 100 100 100 100 100 100 100 100 100 100 100 100 100 100 100 100 93 100 100 100 100 100 100 100 100 100 100 100 100 100 100 100 100 100 5 5 5 0
100 100 100 100 100 100 100 100 100 100 100 100 100 100 100 100 100 100 100 100 100 100 100 100 100 100 100 100 100 100 100 100 100 100 100 100 100 100 26 5 5 4 5
100 100 100 100 100 100 82 100 100 100 100 100 100 100 100 100 100 100 100 100 100 100 100 100 100 100 100 100 97 100 100 100 100 100 100 100 79 5 5 5 52 84 8
100 75 100 100 100 100 100 100 100 100 100 100 100 100 100 100 100 100 100 100 100 100 100 100 100 100 100 100 100 100 100 100 100 100 100 100 10 6 5 5 7 94 100
100 100 100 100 100 100 100 100 100 71 100 100 100 100 100 100 100 100 100 100 100 100 100 100 87 82 99 100 100 100 100 100 100 100 99 57 5 5 5 5 22 93 98
100 100 100 100 100 100 100 84 63 86 100 98 100 100 100 100 100 100 100 100 100 100 99 34 100 100 100 100 100 100 100 100 100 88 5 4 5 5 5 5 25 97 76

GFSMA_prec_cloud_087.txt.gz
Cloud_Cover
100 100 100 60 15 30 89 100 67 80 100 100 100 100 100 97 40 88 55 41 20 5 17 5 5 5 5 26 93 90 100 16 14 23 95 85 9 5 5 5 1 68 100
100 100 79 42 35 69 96 97 100 100 100 100 100 100 100 97 100 92 88 100 11 5 5 6 7 10 5 5 100 98 97 100 32 100 100 99 14 28 16 0 0 88 100
100 99 86 100 100 100 100 100 100 100 100 100 98 100 100 93 100 90 64 11 18 98 5 14 90 36 5 79 100 100 18 98 10 86 100 100 55 5 5 88 4 4 100
92 100 100 100 100 100 100 100 100 100 100 100 100 100 100 100 64 84 100 100 100 100 9 7 8 5 2 97 74 92 7 100 84 60 100 100 5 5 2 7 16 3 99
100 100 100 86 87 100 100 100 100 100 100 100 100 100 100 100 88 99 86 78 100 67 48 14 5 25 5 6 46 32 9 27 58 100 100 99 5 5 2 6 41 33 100
100 100 100 98 96 100 100 100 100 100 100 100 100 100 100 100 16 100 100 93 100 81 62 100 56 5 85 5 6 45 75 52 43 100 100 80 5 2 5 5 16 89 100
100 100 100 100 100 100 100 100 100 100 100 100 100 100 100 100 100 84 100 97 100 100 100 68 97 27 47 5 5 41 33 5 24 65 93 5 5 4 5 85 10 100 99
100 100 100 100 100 100 100 100 100 100 100 100 100 100 100 100 100 23 70 100 95 100 100 69 48 5 4 4 75 71 3 5 4 3 5 3 4 1 1 100 19 90 100
100 100 100 100 100 100 100 100 100 100 100 100 100 100 100 100 100 100 100 100 100 100 100 28 5 5 5 5 5 4 1 5 2 6 0 10 2 1 4 91 79 100 100
100 100 100 100 100 100 100 100 100 100 100 100 100 100 100 100 100 100 100 99 99 99 38 11 48 72 5 5 27 6 7 40 100 45 36 23 2 0 4 28 73 100 100
100 100 100 100 100 100 100 100 100 100 100 100 100 100 100 100 100 100 100 100 100 100 100 100 100 57 64 99 35 5 6 5 12 18 51 36 7 96 3 7 12 100 100
100 100 100 100 100 100 100 100 100 100 100 100 100 100 100 100 100 100 100 100 100 100 100 100 100 100 62 98 10 5 5 7 5 5 16 100 90 40 21 8 80 100 100
100 100 100 100 100 100 100 100 100 100 100 100 100 100 99 100 94 100 100 100 100 100 100 100 100 100 98 52 88 60 78 5 5 4 31 100 84 81 5 84 88 100 100
100 100 100 100 100 100 100 100 100 100 100 100 100 100 100 100 100 100 100 100 100 100 100 100 100 100 100 97 81 62 6 5 5 5 99 100 96 6 55 100 100 100 100
100 100 100 100 100 100 100 100 100 100 100 100 100 100 100 100 100 100 100 100 100 100 100 100 100 100 100 100 94 73 80 90 91 46 100 100 99 98 100 100 100 100 100
100 100 100 100 100 100 100 100 100 100 100 100 100 100 100 100 100 100 100 100 100 100 100 100 100 100 100 100 100 100 100 90 99 98 100 100 100 100 100 100 100 98 100
100 100 100 100 100 100 100 100 100 100 100 100 100 100 100 100 100 100 100 100 100 100 100 100 100 100 100 100 100 100 96 100 100 100 100 100 100 100 100 100 100 100 100
100 100 100 100 100 100 100 100 100 100 100 100 100 100 100 100 100 100 100 100 100 100 100 100 100 100 100 100 100 100 100 100 100 100 100 100 100 100 100 100 100 100 100
100 100 100 100 100 100 100 100 100 100 100 100 100 100 100 100 100 100 100 100 100 100 100 100 100 100 96 100 100 100 100 100 100 100 100 100 100 100 100 100 100 88 13
100 100 100 100 100 100 100 100 100 100 100 100 100 100 100 100 100 100 100 100 100 100 100 100 100 100 100 100 100 99 100 100 100 100 100 100 100 100 100 100 88 37 10
100 100 100 100 100 100 100 100 100 100 100 100 100 100 100 100 100 100 100 100 100 100 100 100 100 100 100 100 100 100 100 100 100 100 100 100 100 100 100 100 98 9 5
100 100 100 100 100 100 100 100 100 100 100 100 100 100 100 100 100 100 100 100 100 100 100 100 100 100 100 100 100 100 100 100 100 100 100 100 100 100 100 98 16 6 8
100 100 100 100 100 100 100 100 100 100 100 100 100 100 100 100 100 100 100 100 100 100 100 100 100 100 100 100 100 100 100 99 100 100 100 100 100 100 90 28 39 4 5
100 100 100 100 100 100 100 100 100 100 95 98 100 100 100 100 100 100 100 100 100 100 100 100 100 100 100 100 100 100 100 100 100 100 100 100 100 98 66 100 56 3 5
100 100 100 100 100 100 100 100 100 100 100 100 100 100 100 100 100 100 100 100 100 100 100 100 100 100 100 100 100 100 100 100 100 100 100 100 81 56 7 99 18 8 5
5 56 100 87 100 96 94 100 100 100 100 100 100 100 100 100 100 100 100 100 100 100 100 100 100 100 100 100 100 100 100 100 100 100 100 99 26 56 72 83 5 18 50

GFSMA_prec_cloud_090.txt.gz
Cloud_Cover
100 86 94 100 100 100 97 63 64 94 97 100 100 97 100 100 100 100 96 100 5 8 5 5 5 5 5 14 13 61 100 100 100 100 66 46 96 18 59 100 30 16 5
100 100 100 100 100 100 100 100 100 100 100 100 100 100 100 100 100 100 100 65 77 46 19 7 5 41 5 5 5 52 100 100 100 52 24 100 100 51 96 98 31 42 4
100 100 100 100 100 100 100 100 100 100 100 100 100 100 100 100 100 100 100 99 93 46 79 5 5 31 5 6 7 43 84 100 100 90 100 100 64 96 100 89 83 17 1
100 100 100 100 100 100 100 100 100 100 100 100 100 100 100 100 100 100 100 82 100 99 92 8 28 46 17 85 5 27 54 85 92 21 100 100 90 95 100 96 86 20 33
100 100 100 100 100 100 100 100 100 100 100 100 100 100 100 100 89 100 100 100 99 24 27 6 5 15 5 45 5 5 88 68 13 12 95 94 18 76 99 11 23 5 7
100 100 100 100 100 100 100 100 100 100 100 100 100 100 100 100 100 88 100 100 100 88 10 5 17 94 39 81 12 35 100 5 5 1 2 7 53 51 100 17 5 5 0
100 100 100 100 100 100 100 100 100 100 100 100 100 100 100 100 100 100 100 100 100 98 48 5 5 5 44 86 16 9 98 27 0 3 5 5 7 16 5 5 5 5 5
100 100 100 100 100 100 100 100 100 100 100 100 100 100 100 100 98 94 100 99 91 100 78 43 9 31 14 22 5 20 54 68 5 4 5 3 3 5 5 5 7 31 5
100 100 100 100 100 100 100 100 100 100 100 100 100 100 100 100 100 100 100 100 83 46 57 24 47 86 57 5 5 42 60 49 13 5 10 10 4 26 40 28 76 32 6
100 100 100 100 100 100 100 100 100 100 100 100 100 100 100 100 100 100 97 100 100 86 98 97 96 26 57 56 35 5 5 61 60 29 96 89 77 13 5 5 35 5 19
100 100 100 100 100 100 100 100 100 100 100 100 100 100 100 100 100 100 100 100 100 100 100 100 100 100 100 100 93 91 100 100 97 13 87 73 79 95 5 24 41 22 7
100 100 100 100 100 100 100 100 100 100 100 100 100 100 100 100 100 99 100 89 100 100 96 100 100 100 100 100 100 100 83 5 12 13 88 100 100 94 77 50 9 43 84
100 100 100 100 100 100 100 100 100 100 100 100 100 100 100 100 100 100 100 100 100 88 100 100 100 100 100 100 74 100 71 40 42 54 14 99 98 68 60 77 20 76 100
100 100 100 100 100 100 100 100 100 100 100 100 100 100 100 100 100 100 100 100 100 99 99 100 99 100 100 100 100 100 100 100 100 92 38 100 100 86 99 97 69 83 100
100 100 100 100 100 100 100 100 100 100 100 100 100 100 100 100 100 100 100 100 100 100 100 100 100 100 100 100 100 100 100 100 98 100 100 100 100 100 100 97 55 100 100
100 100 100 100 100 100 100 100 100 100 100 100 100 100 100 100 100 100 100 100 100 100 100 100 100 100 100 100 100 100 100 100 100 100 100 100 100 51 100 100 100 100 100
100 100 100 100 100 100 100 100 100 100 100 100 100 100 100 100 100 100 100 100 100 100 100 100 100 100 100 100 100 100 100 100 100 100 100 100 100 100 100 100 100 100 100
100 100 100 100 100 100 100 100 100 100 100 100 100 100 100 100 100 100 100 100 100 100 100 100 100 100 100 100 100 100 100 100 100 100 100 100 96 100 100 100 100 100 100
100 100 100 100 100 100 100 100 100 100 100 100 100 100 100 100 100 100 100 100 100 100 100 100 100 100 100 100 100 100 100 100 100 100 100 100 100 100 100 100 100 100 100
100 100 100 100 100 100 100 100 100 100 100 100 100 100 100 100 100 100 100 100 100 100 100 100 100 100 100 100 100 100 100 100 100 100 100 100 100 100 100 100 100 100 100
100 100 100 100 100 100 100 100 100 100 100 100 100 100 100 100 100 100 100 100 100 100 100 100 100 100 100 100 100 100 100 100 100 100 100 100 100 100 100 100 100 100 100
100 100 100 100 100 100 100 100 97 68 100 100 100 100 100 100 100 100 100 100 100 100 100 100 100 100 100 100 100 100 100 100 100 100 100 100 100 100 100 100 100 100 99
100 100 100 100 100 100 100 100 100 100 100 100 100 100 100 100 100 100 100 100 100 100 100 100 100 100 100 100 100 100 100 100 100 100 100 100 100 100 100 100 100 100 39
100 100 100 100 100 100 100 100 100 100 100 100 100 100 100 100 100 100 100 100 100 100 100 100 100 100 100 100 100 100 100 100 100 100 100 100 100 100 100 100 100 100 100
99 100 98 76 74 100 99 100 100 100 100 100 100 100 100 100 100 100 100 100 100 100 100 100 100 100 100 100 100 100 100 100 100 100 100 100 100 100 100 100 100 100 100
4 0 0 1 4 5 39 66 83 100 100 100 100 100 100 100 100 100 100 100 100 100 100 100 100 100 100 100 100 100 100 100 100 100 100 100 100 100 100 100 97 28 100

GFSMA_prec_cloud_093.txt.gz
Cloud_Cover
76 97 100 90 100 85 100 100 100 99 100 100 100 100 81 88 65 87 100 100 100 100 100 55 5 5 22 14 11 71 51 89 47 93 100 100 100 78 49 57 5 14 99
100 100 99 99 100 100 86 100 99 100 78 100 100 100 100 100 98 100 100 65 100 96 100 100 26 57 5 7 47 9 7 5 65 26 100 100 94 99 100 24 15 32 22
89 95 100 100 100 100 100 100 100 100 100 98 100 100 100 100 100 100 100 100 100 100 100 6 69 68 5 5 5 5 5 24 98 100 37 32 99 74 6 7 99 100 13
94 97 100 99 100 100 100 100 100 100 97 98 100 100 100 100 100 100 100 100 100 100 100 100 86 62 5 5 5 14 97 93 100 100 100 70 95 100 100 86 100 100 95
79 100 87 100 100 100 100 100 100 100 100 100 100 100 100 100 100 100 100 100 99 100 100 81 82 51 10 34 11 74 91 53 66 100 100 70 84 100 100 100 97 100 100
100 100 96 100 100 100 100 100 100 100 100 100 100 100 100 100 100 100 100 100 100 100 91 42 100 56 29 24 5 6 34 58 79 91 79 17 52 100 81 100 84 88 100
100 100 100 100 100 100 100 100 100 100 100 100 100 100 100 100 100 100 100 100 100 100 100 100 94 5 20 5 5 18 63 100 29 30 54 5 100 100 100 100 100 100 100
100 100 99 100 100 100 100 100 100 100 100 100 100 100 100 100 100 100 100 100 100 100 100 100 100 14 65 44 5 5 17 99 84 23 5 25 6 95 99 94 96 100 100
100 100 100 100 100 100 100 100 100 100 100 100 99 100 100 100 100 100 100 100 100 100 100 100 100 75 60 39 17 16 98 100 96 62 47 6 32 44 100 12 100 97 98
100 100 100 100 100 100 100 100 100 100 100 100 100 100 100 100 100 100 100 100 100 100 100 100 100 91 77 99 95 97 64 67 43 71 90 28 76 5 97 22 79 63 29
100 100 100 100 100 100 100 100 100 100 100 100 100 100 100 100 100 88 76 98 100 92 100 100 100 100 100 100 100 100 100 100 100 100 62 74 100 66 81 99 18 100 100
100 100 100 100 100 100 100 100 100 100 100 100 100 100 100 100 100 100 100 99 95 98 78 94 100 85 90 95 100 100 100 100 29 92 47 100 86 33 5 63 86 64 94
100 100 100 100 100 100 100 100 100 100 100 100 100 100 100 100 100 100 100 97 98 97 83 68 82 73 86 100 100 100 100 100 96 78 43 81 84 80 93 84 100 93 100
100 100 100 100 100 100 100 100 100 100 100 100 100 100 100 100 100 100 100 100 100 100 100 100 100 100 100 99 100 100 100 97 100 99 22 95 95 100 100 100 76 77 41
100 100 100 100 100 100 100 100 100 100 100 100 100 100 100 100 100 100 100 100 100 100 100 100 100 100 100 100 100 100 100 100 100 100 98 100 100 100 100 100 98 70 100
100 100 100 100 100 100 100 100 100 100 100 100 100 100 100 100 100 100 100 100 100 100 100 100 100 100 100 100 100 100 100 100 100 100 100 100 100 100 100 100 100 93 93
100 100 100 100 100 100 100 100 100 100 100 100 100 100 100 100 100 100 100 100 100 100 100 100 100 100 100 100 100 100 100 100 100 100 100 100 100 100 100 100 100 100 100
100 100 100 100 100 100 100 100 100 100 100 100 100 100 100 100 100 100 100 100 100 100 100 100 100 100 100 100 100 100 100 100 100 100 100 100 100 100 100 100 100 100 100
100 100 100 100 100 100 100 100 100 100 100 100 100 100 100 100 100 100 100 100 100 100 100 100 100 100 100 100 100 100 100 100 100 100 100 100 100 100 100 100 100 100 100
100 100 100 100 100 100 100 100 100 100 100 100 100 100 100 100 100 100 100 100 100 100 100 100 100 100 100 100 100 100 100 100 100 100 100 100 100 100 100 100 100 100 100
100 100 100 100 100 100 100 100 100 100 100 100 100 100 100 100 100 100 100 100 100 100 100 100 100 100 100 100 100 100 100 100 100 100 100 100 100 100 100 100 96 100 100
100 100 100 100 100 100 100 100 100 100 100 100 100 100 100 100 100 100 100 100 100 100 100 100 100 100 100 100 100 100 100 100 100 100 100 100 100 100 100 100 100 100 100
100 100 100 100 100 100 100 100 100 100 100 100 100 100 100 100 100 100 100 100 100 100 100 100 100 100 100 100 100 92 100 100 100 100 100 100 100 100 100 100 100 100 100
100 100 100 100 100 100 100 100 100 100 100 100 100 100 100 100 100 100 100 100 100 100 100 100 100 100 100 100 100 100 100 100 100 100 100 100 100 100 100 100 100 100 100
4 1 14 33 74 100 100 39 83 98 100 100 80 100 100 100 100 100 100 100 100 100 100 100 100 100 100 100 100 100 100 100 100 100 100 100 100 100 100 100 100 100 100
0 0 0 0 0 0 0 0 4 94 24 81 100 100 97 100 100 100 100 100 100 100 100 100 100 100 100 100 100 100 100 100 100 100 100 100 100 100 100 100 100 100 100

GFSMA_prec_cloud_096.txt.gz
Cloud_Cover
80 20 64 66 100 100 87 85 87 100 66 63 78 65 83 100 100 100 100 98 98 90 76 100 100 100 100 14 5 14 93 63 52 78 100 100 100 100 96 100 100 100 100
100 100 87 64 93 100 100 100 94 90 100 95 98 47 69 64 100 100 100 100 39 99 100 100 100 100 100 97 17 34 65 91 22 42 98 100 100 100 100 72 84 99 100
56 100 100 100 100 100 100 100 100 98 100 95 99 95 100 100 68 72 100 100 97 77 100 100 100 100 90 3 42 5 5 10 19 37 87 84 100 100 99 40 41 93 100
10 36 100 98 82 100 100 100 100 100 100 84 82 99 100 100 88 95 88 100 100 100 100 100 65 100 100 72 6 75 36 98 24 7 94 25 100 31 21 100 96 99 100
5 24 47 96 98 54 100 100 100 100 100 98 96 100 100 100 100 100 100 100 100 100 100 100 100 100 100 76 17 99 100 31 9 5 79 23 100 87 100 58 82 54 92
0 34 43 20 100 60 26 68 100 100 100 100 100 100 100 100 100 100 100 100 100 100 100 100 100 100 100 56 24 62 52 41 5 16 6 96 85 44 48 72 79 24 96
5 87 54 52 100 82 41 100 98 100 100 100 100 100 100 100 100 100 100 100 100 100 98 100 100 100 100 100 6 5 75 80 94 6 64 24 80 53 36 97 50 100 60
12 100 98 69 100 100 82 97 100 100 100 100 100 100 100 100 100 100 100 100 100 100 100 100 100 100 94 66 98 93 96 89 75 9 5 8 100 13 23 99 62 62 97
92 100 100 100 100 100 100 100 100 100 100 100 100 100 100 100 100 100 100 100 100 100 100 100 100 96 66 84 30 44 80 80 100 99 52 47 35 25 36 92 37 94 35
91 100 100 100 100 100 100 100 100 100 100 100 100 100 100 100 100 100 100 100 100 100 100 100 64 99 100 87 72 96 96 100 95 100 85 95 100 53 10 5 60 67 90
99 100 100 100 100 100 100 100 100 100 100 100 100 100 100 100 100 100 100 100 100 100 100 100 100 100 100 100 98 98 100 100 100 100 100 100 99 99 72 86 87 100 100
100 100 100 100 100 100 100 100 100 100 100 100 100 100 100 100 100 100 100 100 100 100 100 100 100 100 96 98 100 100 100 95 100 100 100 100 93 92 99 100 100 98 100
100 100 100 100 100 100 100 100 100 100 100 100 100 100 100 100 100 100 100 100 100 100 100 100 100 100 100 100 100 100 100 85 93 86 100 100 100 100 100 100 86 36 100
100 100 100 100 100 100 100 100 100 100 100 100 100 100 100 100 100 100 100 100 100 100 100 100 100 100 100 100 100 100 100 100 100 100 100 100 100 100 100 96 100 100 100
100 100 100 100 100 100 100 100 100 100 100 100 100 100 100 100 100 100 100 100 100 100 100 100 100 100 100 100 100 100 100 100 100 100 100 100 100 100 100 99 100 100 68
100 100 100 100 100 100 100 100 100 100 100 100 100 100 100 100 100 100 100 100 100 100 100 100 100 100 100 100 100 100 100 100 100 100 100 100 100 100 100 100 100 88 94
100 100 100 100 100 100 100 100 100 100 100 100 100 100 100 100 100 100 100 100 100 100 100 100 100 100 100 100 100 100 100 100 100 100 100 100 100 100 100 100 100 100 100
100 100 100 100 100 100 100 100 100 100 100 100 100 100 100 100 100 100 100 100 100 100 100 100 100 100 100 100 100 100 100 100 100 100 100 100 100 100 100 100 100 100 100
100 100 100 100 100 100 100 100 100 100 100 100 100 100 100 100 100 100 100 100 100 100 100 100 100 100 100 100 100 100 100 100 100 100 100 100 100 100 100 100 100 100 100
100 100 100 100 100 100 100 100 100 100 100 100 100 100 100 100 100 100 100 100 100 100 100 100 100 100 100 100 100 100 100 100 100 100 100 100 100 100 100 100 100 100 100
91 100 100 100 100 100 100 100 100 100 100 100 100 100 100 100 100 100 100 100 100 100 100 100 100 100 100 100 100 100 100 100 100 100 100 100 100 100 100 100 100 100 99
98 100 100 100 100 100 100 100 100 100 100 100 100 100 100 100 100 100 100 100 100 100 100 100 100 100 100 100 100 100 100 100 100 100 100 95 83 100 100 100 100 100 100
99 90 80 76 100 100 100 100 100 100 100 100 100 100 100 100 100 100 100 100 100 100 100 100 100 100 100 100 100 100 100 100 99 95 100 100 100 100 100 100 100 100 100
2 0 0 2 4 8 44 87 100 100 100 100 100 100 100 100 100 100 100 100 100 100 100 100 100 100 100 100 100 100 100 100 100 100 100 100 100 100 100 100 100 100 100
5 5 5 4 0 0 0 0 2 5 31 82 100 99 99 100 100 100 100 100 100 100 100 100 100 100 100 100 100 100 100 100 100 100 100 100 100 100 100 100 100 100 100
3 5 5 5 4 2 0 0 0 5 5 5 5 5 5 48 100 100 100 100 100 100 100 100 100 100 100 100 100 100 100 100 100 100 100 100 100 100 100 100 100 100 100

GFSMA_prec_cloud_099.txt.gz
Cloud_Cover
100 100 79 100 42 53 81 100 33 77 37 13 9 82 83 56 80 80 95 100 80 69 54 10 98 95 100 100 100 94 41 11 30 5 5 6 84 34 47 100 88 26 100
98 98 100 100 15 57 62 71 85 100 56 91 100 86 14 76 19 43 87 100 100 100 78 20 86 100 100 100 100 36 87 5 65 7 5 22 81 100 66 87 84 65 72
68 37 95 33 100 75 35 62 100 100 100 47 27 67 92 7 75 5 40 62 98 100 100 100 100 100 100 100 100 100 71 5 25 5 37 47 30 5 72 100 96 14 55
0 10 36 96 74 43 99 61 100 73 100 100 94 100 87 51 66 66 11 97 100 100 98 100 100 100 100 100 100 100 100 6 67 82 39 14 70 5 24 28 36 100 100
0 16 14 20 98 100 100 87 100 82 100 87 100 100 60 84 44 12 95 96 100 100 100 100 100 100 100 100 100 79 100 22 38 23 96 99 14 5 43 54 77 69 100
34 44 21 22 29 29 100 100 100 73 100 91 100 100 100 100 100 100 100 98 100 100 100 100 100 100 100 100 100 100 100 85 84 38 100 74 9 54 41 90 100 87 100
3 66 55 40 20 86 69 100 100 100 64 76 100 92 100 100 100 100 100 100 100 100 100 100 100 100 100 100 100 100 73 100 76 60 98 12 98 6 30 32 100 100 100
32 95 99 39 37 82 100 100 100 100 100 72 100 100 100 100 100 100 100 100 100 100 100 100 100 100 100 100 100 95 91 100 99 62 84 91 24 71 15 12 41 14 16
35 97 70 34 76 100 100 100 100 100 87 98 100 100 100 100 100 100 100 100 100 100 100 100 100 100 99 100 100 82 96 100 100 100 100 78 56 52 95 49 100 51 37
28 49 94 56 69 100 100 100 100 100 89 98 100 100 100 100 100 100 100 100 100 100 100 100 100 100 100 100 100 100 100 100 100 100 100 100 100 100 100 100 78 84 17
82 68 100 98 89 60 100 100 100 100 100 100 100 100 100 100 100 100 100 100 100 100 100 100 100 100 100 100 100 100 100 100 100 100 100 100 100 100 100 71 92 100 92
100 99 100 100 95 100 99 100 100 100 100 100 100 100 100 100 100 100 100 100 100 100 100 100 100 100 100 100 100 100 100 100 100 100 100 100 100 100 100 100 24 100 33
100 100 100 100 100 100 100 100 100 100 100 100 100 100 100 100 100 100 100 100 100 100 100 100 100 100 100 100 100 100 100 100 100 100 100 100 100 100 100 99 70 70 100
100 100 100 100 100 100 100 100 100 100 100 100 100 100 100 100 100 100 100 100 100 100 100 100 100 100 100 100 100 100 100 100 100 100 100 100 100 100 100 100 100 100 100
100 100 100 100 100 100 100 100 100 100 100 100 100 100 100 100 100 100 100 100 100 100 100 100 100 100 100 100 100 100 100 100 100 100 100 100 100 100 100 100 100 100 88
100 100 100 100 100 100 100 100 100 100 100 100 100 100 100 100 100 100 100 100 100 100 100 100 100 100 100 100 100 100 100 100 100 100 100 100 100 100 90 100 100 100 100
100 100 100 100 100 100 100 100 100 100 100 100 100 100 100 100 100 100 100 100 100 100 100 100 100 100 100 100 100 100 100 100 100 100 100 100 100 100 94 77 100 100 100
100 100 100 100 100 100 100 100 100 100 100 100 100 100 100 100 100 100 100 100 100 100 100 100 100 100 100 100 100 100 100 100 100 100 100 100 47 100 100 100 100 100 100
100 100 100 100 100 100 100 100 100 100 100 100 100 100 100 100 100 100 100 100 100 100 100 100 100 100 100 100 100 100 100 100 100 100 100 100 100 100 100 100 100 100 100
100 100 100 100 100 100 100 100 100 100 100 100 100 100 100 100 100 100 100 100 100 100 100 100 100 100 100 100 100 100 100 100 100 100 100 100 100 100 100 100 100 100 100
95 100 100 100 100 100 100 100 100 100 100 100 100 100 100 100 100 100 100 100 100 100 100 100 100 100 100 100 100 100 100 100 100 100 100 100 100 100 100 100 100 100 100
98 78 5 30 100 77 100 100 100 100 100 100 100 100 100 100 100 100 100 100 100 100 100 100 100 100 100 100 100 100 100 100 100 100 100 100 100 100 100 100 100 100 100
1 3 4 3 1 3 18 22 8 40 93 100 100 100 100 100 100 100 100 100 100 100 100 100 100 100 100 100 100 100 100 100 100 100 100 100 100 100 100 100 100 100 100
3 4 2 0 0 0 0 2 4 4 5 20 69 100 100 100 100 99 100 100 100 100 100 100 100 100 100 100 100 100 100 100 100 100 100 100 100 100 100 100 100 100 100
0 0 0 0 0 0 0 0 0 0 5 5 5 5 17 73 100 99 100 100 100 100 94 100 100 100 100 100 100 100 100 100 100 100 100 100 100 100 100 100 100 100 100
4 2 4 1 0 0 0 0 0 5 5 5 5 5 5 5 5 15 7 64 100 100 97 78 100 100 100 100 100 100 100 100 100 100 100 100 100 100 100 100 100 100 100

GFSMA_prec_cloud_102.txt.gz
Cloud_Cover
100 100 100 84 30 11 64 6 100 80 51 64 82 17 18 80 100 92 43 16 94 88 100 100 100 72 27 45 89 100 100 100 100 98 5 29 16 70 100 44 97 100 71
97 84 78 100 100 81 65 56 100 66 15 100 79 75 10 19 36 93 100 100 98 87 98 92 100 100 78 26 53 80 100 100 100 100 100 5 5 34 100 100 100 99 97
84 83 75 64 100 98 74 88 90 70 40 56 100 100 73 94 99 80 99 100 100 99 86 94 98 100 100 100 100 96 100 100 100 100 84 5 63 88 100 100 90 8 97
72 46 64 35 12 17 46 44 95 72 84 43 69 98 100 70 76 45 16 41 50 100 100 75 76 100 100 100 100 100 100 100 100 100 100 98 93 27 95 100 76 12 69
81 44 52 10 6 97 13 57 98 99 98 95 96 91 100 100 100 90 100 88 5 27 100 100 96 100 100 100 100 100 100 100 100 100 100 100 89 94 98 100 85 9 5
36 5 5 4 20 91 66 66 100 100 100 100 99 85 100 100 100 98 100 100 100 100 100 100 100 100 100 100 100 100 100 100 100 100 100 97 100 100 100 98 70 17 38
2 1 21 18 80 96 56 63 53 21 99 100 100 100 42 100 100 8 100 100 100 100 100 100 100 100 100 100 100 100 100 100 75 100 100 100 100 100 61 30 18 5 66
39 37 30 21 20 58 98 94 60 70 77 100 100 100 100 36 82 88 100 94 100 100 100 100 100 100 100 100 100 100 100 100 84 100 99 100 100 88 91 66 38 33 30
95 70 72 82 80 61 44 58 56 58 100 100 100 92 100 100 6 5 80 71 100 100 100 100 100 100 100 100 100 100 100 100 100 100 100 100 100 83 99 100 100 100 98
100 100 66 54 34 34 83 40 40 90 100 100 100 100 100 100 67 90 55 100 100 100 100 100 100 100 100 100 100 100 100 100 100 100 100 100 100 100 97 100 100 100 100
98 100 100 83 50 46 100 76 100 100 100 100 100 100 100 100 100 100 100 100 100 100 100 100 100 100 100 100 100 100 100 100 100 100 100 100 100 100 100 100 100 100 100
100 100 100 100 50 100 100 82 49 100 100 100 100 100 100 100 100 100 100 100 100 100 100 100 100 100 100 100 100 100 100 100 100 100 100 100 100 100 100 100 100 100 100
100 100 100 100 100 100 100 100 100 100 100 100 100 100 100 100 100 100 100 100 100 100 100 100 100 100 100 100 100 100 100 100 100 100 100 100 100 100 100 100 100 98 100
100 100 100 100 100 100 100 100 100 100 100 100 100 100 100 100 100 100 100 100 100 100 100 100 100 100 100 100 100 100 100 100 100 100 100 100 100 100 100 100 100 100 100
100 100 100 100 100 100 100 100 100 100 100 100 100 100 100 100 100 100 100 100 100 100 100 100 100 100 100 100 100 100 100 100 100 100 100 100 100 100 100 100 100 100 100
100 100 100 100 100 100 100 100 100 100 100 100 100 100 100 100 100 100 100 100 100 100 100 100 100 100 100 100 100 100 100 100 100 100 100 100 100 100 100 100 100 100 100
100 100 100 100 100 100 100 100 100 100 100 100 100 100 100 100 100 100 100 100 100 100 100 100 100 100 100 100 100 100 100 100 100 100 100 100 100 100 100 100 100 100 100
100 100 100 100 100 100 100 100 100 100 100 100 100 100 100 100 100 100 100 100 100 100 100 100 100 100 100 100 100 100 100 100 100 100 100 100 100 100 100 100 100 100 100
100 100 100 100 100 100 100 100 100 100 100 100 100 100 100 100 100 100 100 100 100 100 100 100 100 100 100 100 100 100 100 100 100 100 100 100 100 100 100 100 98 95 100
99 84 100 100 100 100 100 100 100 100 100 100 100 100 100 100 100 100 100 100 100 100 100 100 100 100 100 100 100 100 100 100 100 100 100 100 100 100 100 100 100 100 100
60 97 100 100 95 82 100 100 100 100 100 100 100 100 100 100 100 100 100 100 100 100 100 100 100 100 100 100 100 100 100 100 100 100 100 100 100 100 100 100 100 100 100
71 100 100 92 68 14 93 100 100 99 100 100 100 100 100 100 100 100 100 100 100 100 100 100 100 100 100 100 100 100 100 100 100 100 100 100 100 100 100 100 100 70 100
0 2 12 3 0 0 1 4 6 5 5 14 64 100 100 94 100 100 100 100 100 100 100 100 100 100 100 100 100 100 100 100 100 100 100 100 100 100 100 100 100 100 100
0 0 0 0 0 0 0 0 0 0 0 0 0 0 6 30 56 62 87 100 100 98 100 100 100 100 100 100 100 100 100 100 100 100 100 100 100 100 100 100 100 100 100
0 0 0 0 2 0 0 0 0 0 0 0 0 0 5 3 1 5 5 5 7 28 88 99 100 100 100 100 100 100 100 100 100 100 100 100 100 100 100 100 100 100 100
0 0 4 5 5 4 2 0 0 0 3 0 5 0 5 5 5 5 5 5 5 5 5 5 9 72 100 91 97 100 100 100 100 100 100 100 100 100 100 100 100 100 100

GFSMA_prec_cloud_105.txt.gz
Cloud_Cover
100 100 94 100 35 20 14 68 99 97 77 79 41 3 12 26 12 6 5 5 6 31 87 29 65 47 88 99 100 100 100 100 96 58 99 100 100 100 100 100 100 97 54
38 96 97 99 99 65 33 94 100 100 90 100 100 75 20 13 49 9 5 4 4 27 78 100 100 100 100 94 99 84 100 100 100 100 100 100 100 100 94 93 81 92 52
4 5 82 77 74 62 5 59 94 100 82 86 100 94 28 56 93 41 67 5 5 16 38 93 97 100 100 100 100 73 44 100 100 100 100 100 100 100 100 98 100 100 23
30 5 5 30 5 81 96 10 5 5 5 5 5 100 56 41 77 99 100 100 54 61 29 48 52 97 100 100 100 100 53 100 100 100 100 100 100 100 99 100 100 100 99
32 5 5 34 77 33 88 26 5 11 8 6 8 16 19 71 56 61 100 100 100 66 100 99 100 70 38 20 100 100 100 100 100 100 100 100 100 85 100 100 100 100 89
0 0 0 0 11 29 23 73 7 4 8 29 32 99 95 72 21 99 100 30 100 100 76 89 100 100 100 98 95 100 100 100 100 100 100 100 100 99 100 100 100 100 100
5 3 0 0 1 3 12 92 30 53 16 37 51 77 100 100 96 33 78 98 76 78 61 100 100 100 100 100 100 100 100 100 100 100 100 100 100 100 100 100 100 100 100
16 27 18 21 0 0 44 42 5 37 72 39 53 36 94 100 100 98 71 16 19 100 100 28 99 98 99 100 100 100 100 100 100 100 100 100 100 100 100 100 100 100 100
68 51 22 16 13 0 0 0 0 5 61 91 68 62 97 100 100 81 2 6 8 10 100 73 100 100 100 100 100 100 100 100 100 100 100 100 100 96 100 100 100 100 100
27 34 94 100 100 9 45 3 5 5 14 95 95 54 38 91 100 100 98 9 57 14 8 18 88 100 98 98 100 100 100 100 100 100 100 100 100 100 100 100 100 100 100
66 70 100 99 100 95 26 2 14 22 28 56 85 100 100 99 100 100 100 100 41 8 96 100 100 100 100 100 100 100 100 100 100 100 100 100 100 100 100 100 100 100 95
61 80 99 100 100 100 100 84 32 49 99 91 96 100 100 100 100 100 100 100 100 98 99 100 100 100 100 100 100 100 100 100 100 100 100 100 100 100 100 100 100 100 100
91 100 100 100 100 100 100 100 100 99 100 100 100 100 100 100 100 100 100 100 100 100 100 100 100 100 100 100 100 100 100 100 100 100 100 100 100 100 100 100 100 100 100
100 100 100 100 100 93 100 100 100 100 100 100 100 100 100 100 100 100 100 100 100 100 100 100 100 100 100 100 100 100 100 100 100 100 100 100 100 100 100 100 100 100 100
100 100 98 100 100 100 100 100 100 100 100 100 100 100 100 100 100 100 100 100 100 100 100 100 100 100 100 100 100 100 100 100 100 100 100 100 100 100 100 100 100 100 100
100 100 100 100 100 100 100 100 100 100 100 100 100 100 100 100 100 100 100 100 100 100 100 100 100 100 100 100 100 100 100 100 100 100 100 100 100 100 100 100 100 100 100
100 100 100 100 100 100 100 100 100 100 100 100 100 100 100 100 100 100 100 100 100 100 100 100 100 100 100 100 100 100 100 100 100 100 100 100 100 100 100 100 100 100 100
100 100 100 100 100 100 100 100 100 100 100 100 100 100 100 100 100 100 100 100 100 100 100 100 100 100 100 100 100 100 100 100 100 100 100 100 100 100 100 100 100 100 100
100 100 100 100 100 100 100 100 100 100 100 100 100 100 100 100 100 100 100 100 100 100 100 100 100 100 100 100 100 100 100 100 100 100 100 100 100 100 100 100 100 100 100
73 69 100 97 100 100 100 100 100 100 100 100 100 100 100 100 100 100 100 100 100 100 100 100 100 100 100 100 100 100 100 100 100 100 100 100 100 100 100 100 100 100 100
63 100 99 57 96 98 100 100 100 100 100 100 100 100 100 100 100 100 100 100 100 100 100 100 100 100 100 100 100 100 100 100 100 100 100 100 100 100 100 100 100 100 100
0 0 0 14 100 100 100 100 100 100 100 100 100 100 100 100 100 100 100 100 100 100 100 100 100 100 100 100 100 100 100 100 100 100 100 100 100 100 100 100 99 100 95
0 0 0 0 0 0 1 4 6 20 45 29 40 3 72 100 100 100 100 100 100 100 100 100 100 100 100 100 100 100 100 100 100 100 100 100 100 100 100 100 100 100 100
0 0 0 0 0 0 0 0 0 0 0 0 0 0 0 0 4 36 49 86 100 100 100 100 100 100 100 100 100 100 100 100 100 100 100 100 100 100 100 100 100 100 100
0 0 0 0 0 0 0 0 0 0 0 0 0 0 0 2 5 5 5 5 3 6 31 80 100 100 100 100 100 100 100 100 100 100 100 100 100 100 100 100 100 100 100
0 0 0 0 0 0 0 0 5 3 2 0 0 0 3 5 5 10 19 5 5 5 5 5 5 5 5 11 95 76 98 100 100 100 100 100 100 100 100 100 100 100 100

GFSMA_prec_cloud_108.txt.gz
Cloud_Cover
84 32 96 95 91 81 58 18 5 17 19 6 5 5 5 4 0 0 4 7 18 30 76 7 7 19 5 13 61 100 88 56 40 56 77 100 100 100 100 100 100 100 100
3 0 2 84 88 91 100 95 14 9 17 100 63 16 84 13 5 4 4 5 5 5 5 4 4 1 12 26 66 72 100 100 96 99 100 65 100 100 100 100 100 100 100
0 0 0 0 3 17 97 100 99 73 5 100 99 11 7 99 64 5 5 5 88 26 98 65 8 40 5 6 49 61 100 100 100 100 100 99 100 100 100 100 100 100 100
19 38 0 1 12 5 5 5 91 95 36 66 13 5 11 34 100 28 100 81 26 37 100 95 95 18 9 16 11 37 56 82 88 69 96 100 100 100 100 100 100 100 43
98 25 1 43 5 5 5 5 5 4 5 6 74 5 29 94 5 60 94 100 100 25 28 37 90 92 22 50 25 92 29 70 57 3 5 74 100 100 100 100 100 100 100
42 65 5 6 5 4 4 4 4 3 5 5 68 64 5 22 86 5 22 41 45 42 18 18 56 97 98 68 97 88 100 100 100 100 100 100 100 100 100 100 100 100 100
0 2 6 6 5 4 1 0 0 0 0 0 20 34 29 9 5 43 0 97 100 95 100 100 87 97 100 100 56 96 100 88 90 100 100 100 33 100 100 100 100 100 100
36 77 28 12 6 3 0 0 0 0 0 0 6 96 100 71 61 100 23 80 95 88 66 100 34 94 95 84 88 12 80 100 100 100 100 100 91 90 100 100 100 100 100
45 86 46 65 28 17 4 0 0 2 7 0 0 41 94 100 98 7 32 5 5 23 86 99 71 13 34 92 100 58 100 31 96 100 100 100 100 100 100 100 100 100 100
59 100 81 98 99 79 95 100 94 7 8 38 21 0 17 97 98 85 94 69 20 20 98 100 99 92 99 48 100 36 89 100 26 83 100 100 100 100 100 100 100 100 81
88 100 100 100 100 100 96 100 100 100 100 73 46 55 44 89 100 100 100 77 100 100 57 19 16 47 100 54 83 85 99 100 28 24 100 100 100 100 100 100 100 100 100
100 100 100 100 81 26 69 100 100 100 100 91 83 97 100 99 100 100 100 100 100 100 100 100 83 19 85 100 100 100 100 100 86 99 100 100 100 100 100 100 100 100 100
99 96 74 100 35 39 78 100 100 100 100 100 100 50 89 93 100 94 100 100 100 100 100 100 100 100 99 100 100 100 100 100 100 90 100 100 100 100 100 100 100 100 100
100 100 54 100 100 100 100 100 100 100 100 100 100 100 100 100 100 100 100 100 100 100 100 100 100 100 100 100 100 100 100 100 100 99 100 100 100 100 100 100 100 100 100
100 100 100 100 100 99 84 100 100 100 100 100 100 100 100 100 100 100 100 100 100 100 100 100 100 100 100 100 100 100 100 100 100 100 100 100 100 100 100 100 100 100 100
100 100 100 100 100 100 100 100 100 100 100 100 100 100 100 100 100 100 100 100 100 100 100 100 100 100 100 100 100 100 100 100 100 100 100 100 100 100 100 100 100 100 100
100 100 100 100 100 100 100 100 100 100 100 100 100 100 100 100 100 100 100 100 100 100 100 100 100 100 100 100 100 100 100 100 100 100 100 100 100 100 100 100 100 100 100
100 100 100 100 100 100 100 100 100 100 100 100 100 100 100 100 100 100 100 100 100 100 100 100 100 100 100 100 100 100 100 100 100 100 100 100 100 100 100 100 100 100 100
100 100 100 100 100 100 99 100 100 100 100 100 100 100 100 100 100 100 100 100 100 100 100 100 100 100 100 100 100 100 100 100 100 100 100 100 100 100 100 100 100 100 100
91 87 96 98 99 100 100 94 100 99 100 100 100 100 100 100 100 100 100 100 100 100 100 100 100 100 100 100 100 100 100 100 100 100 100 100 100 100 100 100 100 100 100
6 6 4 6 15 48 50 100 100 100 100 100 100 100 100 100 100 100 100 100 100 100 100 100 100 100 100 100 100 100 100 100 100 100 100 100 100 100 100 100 100 100 100
0 0 0 0 0 0 0 2 5 46 100 100 100 100 100 100 100 100 100 100 100 100 100 100 100 100 100 100 100 100 100 100 100 100 100 100 100 100 100 100 100 100 100
5 4 4 3 2 0 0 0 1 1 0 1 7 27 80 92 100 100 100 100 100 100 100 100 100 100 100 100 100 100 100 100 100 100 100 100 100 100 100 100 100 100 100
0 0 0 0 0 0 0 3 5 5 0 0 0 0 0 2 4 12 74 99 100 100 88 97 100 100 100 100 100 100 100 100 100 100 100 100 100 100 100 100 100 100 100
0 1 0 0 0 0 0 0 5 3 0 2 0 0 0 0 4 8 84 5 5 12 25 56 5 19 100 99 100 100 100 100 100 100 100 100 100 100 100 100 100 100 100
0 0 0 0 0 1 4 5 5 9 74 7 5 2 0 5 39 92 100 100 72 5 5 2 5 5 0 4 5 6 98 100 100 100 100 100 100 100 100 100 100 100 100

GFSMA_prec_cloud_111.txt.gz
Cloud_Cover
1 0 2 86 100 100 86 29 21 74 56 17 15 5 5 32 7 5 3 0 2 3 5 5 5 7 28 5 5 24 15 5 5 5 10 100 100 82 87 100 100 100 100
10 5 9 0 47 100 98 44 36 34 100 80 93 59 10 5 40 6 7 5 5 5 5 5 5 5 7 33 4 0 2 6 12 62 91 100 100 100 100 100 100 100 100
11 4 74 63 7 8 58 1 6 9 29 76 51 93 100 67 84 100 38 25 5 5 11 35 5 7 5 5 5 5 4 0 31 10 28 37 87 90 98 92 100 100 100
5 3 0 0 0 0 0 4 0 1 14 4 70 98 97 22 82 84 82 100 100 95 73 5 13 6 7 65 75 91 17 5 4 31 5 5 6 50 88 74 17 84 100
100 100 5 0 0 0 0 5 5 5 5 5 15 33 79 7 3 33 6 44 80 84 30 96 44 88 27 41 99 84 98 19 5 5 4 5 71 76 95 100 61 100 100
80 100 100 8 4 0 3 68 20 5 5 5 5 5 3 4 7 4 6 4 4 7 64 94 30 45 92 99 100 100 100 100 95 23 17 69 57 86 49 95 100 99 100
100 100 59 29 5 5 4 17 5 5 5 3 38 4 7 6 12 4 11 8 39 3 83 100 97 98 85 100 100 100 98 100 100 39 5 12 45 5 35 95 100 100 100
90 100 49 94 100 86 14 9 5 3 0 1 2 19 45 38 0 0 7 10 8 5 4 4 32 91 78 64 100 100 100 100 36 73 5 3 9 36 93 95 100 100 100
100 95 99 100 100 100 100 100 100 97 91 30 44 82 100 14 4 6 36 31 23 5 19 2 11 85 100 100 42 79 97 100 49 72 6 5 19 65 62 94 100 100 94
100 79 96 100 100 100 98 54 81 94 100 100 48 98 50 37 90 77 6 2 0 5 5 5 5 5 59 100 100 90 58 100 100 100 70 65 5 29 74 100 100 99 100
100 100 98 82 100 100 76 91 67 45 69 100 100 95 98 100 66 100 100 100 31 2 100 64 5 72 96 96 100 100 100 100 100 100 96 100 29 16 97 100 100 100 100
100 100 100 100 98 100 91 73 45 29 31 81 100 100 100 77 72 100 75 59 53 41 100 100 98 61 91 99 100 100 100 100 100 100 99 23 12 19 99 100 100 100 100
85 100 100 100 100 100 100 100 49 70 94 100 100 100 100 100 100 92 92 100 100 63 77 100 100 98 72 99 100 100 100 100 100 94 100 91 97 93 99 100 100 100 100
100 100 100 100 100 86 18 41 44 17 7 60 100 100 100 100 100 100 100 100 100 100 100 100 100 100 100 100 100 79 100 100 100 100 100 100 100 100 95 58 100 100 100
100 100 100 100 100 100 100 100 100 100 100 45 98 100 100 100 100 100 99 100 100 100 100 100 100 100 100 100 100 100 100 100 100 100 100 100 100 100 100 100 100 100 100
97 100 100 100 100 100 100 100 100 100 100 99 89 100 100 100 100 100 100 100 100 100 100 100 100 100 100 100 100 100 100 100 100 100 100 100 100 100 100 100 100 100 100
100 100 98 100 100 92 100 100 100 100 100 100 100 74 100 100 100 100 100 100 100 100 100 100 100 100 100 100 100 100 100 100 100 100 100 100 100 100 100 100 100 100 100
94 94 100 98 91 100 100 87 100 97 79 96 100 100 100 100 100 100 100 100 100 100 100 100 100 100 100 100 100 100 100 100 100 100 100 100 100 100 100 100 100 100 100
48 68 93 100 100 96 100 100 100 100 100 90 68 100 94 100 100 100 100 100 100 100 100 100 100 100 100 100 100 100 100 100 100 100 100 100 100 100 100 100 100 100 100
3 4 5 5 5 5 14 71 66 24 36 100 33 100 100 100 100 100 100 100 100 100 100 100 98 100 100 100 100 100 100 100 100 100 100 100 100 100 100 100 100 100 100
0 0 1 0 0 0 1 3 5 4 2 64 97 80 100 100 96 100 100 100 100 100 100 100 100 100 100 100 100 100 100 100 100 100 100 100 100 100 100 100 100 100 100
0 0 0 0 0 0 0 0 3 4 0 0 0 3 5 94 75 100 100 100 92 89 100 100 100 100 100 100 100 100 100 100 100 100 100 100 100 100 100 100 100 100 100
0 0 0 0 0 0 0 0 5 5 0 0 0 0 0 0 10 64 99 100 100 100 100 100 100 100 100 100 100 100 100 100 100 100 100 100 100 100 100 100 100 100 100
5 5 1 2 0 0 0 0 5 2 0 0 0 0 0 0 0 5 10 33 75 100 31 96 83 100 100 100 100 100 100 100 100 100 100 100 100 100 100 100 100 100 100
11 0 4 0 0 0 0 0 5 5 5 5 4 4 5 4 4 5 58 88 5 5 11 10 93 63 60 100 36 91 100 100 100 100 100 100 100 100 100 100 100 100 100
6 2 4 0 1 0 0 5 44 76 90 48 68 75 5 49 90 65 83 83 73 6 5 5 2 6 36 64 96 100 100 100 100 100 100 100 100 100 100 100 100 100 100

GFSMA_prec_cloud_114.txt.gz
Cloud_Cover
86 25 19 14 34 96 94 32 52 34 30 68 32 26 18 14 5 5 5 5 5 5 4 3 4 5 2 1 0 0 2 5 0 1 4 5 5 5 5 8 72 100 100
42 6 15 19 14 9 32 27 22 47 52 49 62 47 64 50 37 12 9 5 8 16 7 5 5 5 5 29 83 11 5 0 0 25 20 5 4 6 22 5 5 57 100
69 5 5 13 8 1 4 9 98 75 78 50 73 89 92 64 65 100 99 58 49 67 82 5 5 5 5 5 8 99 5 10 5 5 3 3 0 4 23 5 5 5 37
100 4 38 8 40 59 39 0 0 4 26 33 28 34 31 56 95 77 66 94 100 99 58 80 55 40 6 6 5 12 49 5 96 5 5 4 1 3 16 5 4 10 98
10 100 7 56 14 39 49 9 0 0 0 1 10 9 14 22 5 51 6 68 61 62 95 100 100 90 84 62 82 73 91 76 100 93 77 5 7 5 18 30 5 5 78
0 86 100 90 65 73 38 24 26 80 1 0 5 5 0 2 14 19 14 57 82 10 5 5 27 38 41 90 36 100 23 18 100 93 100 83 77 14 5 98 52 5 5
83 81 60 78 62 100 95 100 20 72 5 5 12 5 7 0 0 5 6 35 5 5 5 5 5 5 5 43 5 95 54 100 65 97 94 100 90 6 5 39 100 23 12
80 88 100 98 98 100 100 100 100 98 72 78 47 46 30 31 25 9 4 8 7 5 5 5 5 5 5 98 72 13 28 88 76 87 33 100 94 70 54 48 93 80 13
100 100 87 100 100 100 100 100 100 100 99 100 100 100 46 1 3 0 11 16 5 5 0 5 93 27 43 4 79 100 56 49 100 97 49 100 100 100 97 100 90 100 100
100 100 100 100 100 100 100 100 100 100 100 100 100 99 100 86 90 48 6 12 61 2 0 0 0 16 56 6 7 23 97 68 94 86 94 100 100 100 100 100 94 59 100
100 100 98 95 99 100 100 100 100 100 100 100 100 100 100 40 99 100 97 83 12 82 36 0 0 0 5 5 5 5 42 99 81 54 79 100 100 100 100 100 26 95 59
96 100 50 48 70 88 100 100 100 99 96 75 100 88 100 100 99 100 100 100 97 87 8 0 0 4 5 5 24 98 21 94 100 97 100 100 100 100 100 100 100 78 100
100 100 78 100 100 100 85 78 85 55 5 15 48 72 73 100 100 100 100 100 100 11 68 89 4 59 99 100 43 100 56 100 100 94 100 100 100 100 100 100 100 100 100
100 100 100 95 98 96 98 100 100 54 7 6 38 76 93 69 100 100 100 100 59 41 98 36 62 98 48 54 64 100 64 100 100 100 100 100 100 100 100 100 100 100 100
99 98 100 100 100 100 100 100 86 86 100 97 100 100 100 100 85 100 100 100 100 100 100 100 100 100 100 100 88 100 99 100 100 100 100 100 100 100 100 100 100 100 100
100 97 100 100 100 100 74 95 100 100 100 100 100 100 98 100 99 100 98 100 100 100 100 100 100 100 100 100 100 100 100 100 100 100 100 100 100 100 100 100 100 100 100
5 22 76 70 79 100 100 92 94 98 100 100 100 100 100 100 100 100 100 94 100 100 100 100 100 100 100 100 100 100 100 100 100 100 100 100 100 100 100 100 100 100 100
0 0 0 0 2 6 34 28 68 5 68 99 98 100 93 100 100 100 94 100 100 100 100 100 100 100 100 100 100 100 100 100 100 100 100 100 100 100 100 100 100 100 100
0 0 0 0 0 0 0 0 0 2 3 7 60 100 100 100 100 100 100 100 93 99 100 100 100 100 100 100 100 100 100 100 100 100 100 100 100 100 100 100 100 100 100
0 0 0 0 0 0 0 0 0 0 0 0 0 0 12 11 5 99 100 100 95 60 99 100 100 100 100 100 100 100 100 100 100 100 100 100 100 100 100 100 100 100 100
2 4 28 6 0 0 0 0 4 5 5 0 0 0 0 0 0 5 10 68 100 100 100 74 98 100 100 100 100 100 100 100 100 100 100 100 100 100 100 100 100 100 100
6 7 7 5 5 5 5 6 5 5 0 0 0 0 0 0 0 0 1 28 11 51 100 100 100 82 99 100 100 100 100 100 100 100 100 100 100 100 100 100 100 100 100
22 12 78 16 43 69 75 44 5 5 0 0 0 2 1 0 0 1 0 5 5 12 66 16 92 100 100 100 100 100 100 100 100 100 100 100 100 100 100 100 100 100 100
100 100 21 5 5 5 5 3 5 1 0 0 0 5 5 5 5 41 49 5 5 5 5 5 5 21 56 100 100 100 100 100 100 100 100 100 100 100 100 100 100 100 100
64 5 56 5 58 5 5 5 5 5 5 5 5 5 5 5 5 88 92 5 5 5 5 5 5 18 87 12 48 100 98 100 100 100 100 96 100 100 100 100 100 100 100
30 95 97 96 6 5 5 5 6 5 5 5 5 5 5 56 91 96 77 20 70 5 5 6 23 5 5 5 44 6 32 96 100 100 100 100 100 100 100 100 100 100 100

GFSMA_prec_cloud_117.txt.gz
Cloud_Cover
100 100 100 100 62 28 33 29 41 37 38 45 48 39 27 22 28 17 19 6 5 5 5 5 5 28 27 9 5 4 0 0 21 2 6 2 2 4 0 0 0 0 5
22 98 100 100 36 15 24 32 80 58 95 56 50 80 64 66 81 75 37 44 9 5 64 61 5 5 20 35 58 5 7 3 40 49 22 23 4 4 19 5 5 5 2
0 3 83 58 52 11 0 11 37 69 91 71 84 82 71 81 77 81 100 99 86 61 36 98 42 5 5 5 14 43 88 21 5 5 5 11 36 5 33 63 3 1 0
0 0 0 84 31 53 33 19 10 40 68 81 96 76 62 60 40 78 88 100 100 100 100 97 99 86 61 52 38 44 28 16 5 5 5 5 9 5 4 3 14 6 0
14 4 10 12 100 65 96 35 8 66 28 36 37 10 19 31 25 15 30 8 60 90 100 100 100 100 100 100 100 100 98 100 100 22 8 5 81 33 16 5 18 33 18
99 90 91 89 73 96 100 98 72 46 16 94 49 10 2 4 13 18 4 3 1 2 27 63 100 98 100 96 97 100 100 100 71 76 92 94 5 42 94 79 6 92 92
41 66 100 100 100 100 83 100 93 86 69 68 70 71 5 5 0 1 1 7 0 4 4 5 0 2 5 98 90 32 77 100 100 94 81 100 49 60 11 97 97 75 100
53 64 96 100 100 100 100 100 100 100 100 100 99 54 5 6 5 5 3 0 0 4 2 1 6 14 5 4 8 48 24 16 30 100 92 92 72 8 34 16 93 100 98
92 100 100 100 85 100 100 100 100 100 100 100 100 100 74 41 22 5 5 19 15 6 1 2 5 5 5 5 5 5 21 100 82 93 100 100 99 92 71 7 56 99 97
100 78 100 100 89 96 100 100 87 100 100 100 100 100 100 100 100 60 16 35 6 80 0 44 2 0 0 0 0 0 5 5 23 95 100 100 100 100 100 99 90 100 100
100 100 100 100 100 100 100 100 100 82 97 100 100 100 100 100 96 100 81 89 94 49 25 34 48 72 4 0 0 0 0 0 1 2 4 84 100 100 100 100 100 100 100
100 100 100 90 100 100 100 100 100 100 100 100 85 100 100 100 100 100 100 100 53 66 100 100 76 64 5 37 5 2 1 0 5 5 5 22 46 82 100 100 100 100 100
71 100 100 100 88 96 100 100 100 70 100 100 100 100 96 99 100 76 100 88 83 56 100 100 97 100 100 100 100 74 5 6 3 3 5 53 56 43 33 100 88 100 100
72 95 73 88 100 100 100 100 100 100 100 100 95 82 32 95 82 100 44 70 85 69 17 88 100 100 100 100 100 100 100 47 49 13 5 49 100 95 99 100 100 100 100
4 5 34 36 38 17 35 32 90 68 55 95 100 90 43 40 48 13 5 4 100 100 99 19 34 100 100 100 100 100 100 100 100 97 100 100 99 100 90 100 100 100 100
2 1 3 2 4 28 61 77 93 100 94 38 18 32 62 100 93 71 94 73 15 52 100 100 67 96 100 100 100 100 98 100 100 100 100 100 100 100 63 100 100 100 100
0 0 0 0 0 0 0 0 0 0 0 3 9 48 97 80 92 81 32 85 100 84 61 100 93 72 98 100 100 100 100 100 100 100 100 100 100 100 100 100 100 100 100
0 4 1 0 3 5 49 5 0 0 0 0 0 3 0 0 1 4 5 5 6 12 100 100 99 100 100 100 100 100 100 100 100 100 100 100 100 100 100 100 100 100 100
41 64 100 94 21 10 15 45 28 16 1 1 1 0 0 0 5 0 0 0 1 5 6 100 99 90 100 100 100 100 100 100 100 100 100 100 100 100 100 100 100 100 100
96 95 12 6 5 5 3 1 0 1 4 2 0 0 1 2 1 5 5 2 0 5 3 5 90 100 89 100 100 100 100 100 100 100 100 100 100 100 100 100 100 100 100
42 37 58 9 32 5 11 12 40 24 31 10 5 4 0 2 5 5 5 4 10 16 6 19 5 21 100 74 88 96 100 100 100 100 100 100 100 100 100 100 100 100 100
5 5 5 5 78 70 13 60 27 5 0 0 0 2 0 0 4 2 5 5 46 18 34 100 80 13 51 32 86 84 100 100 100 100 100 100 100 100 100 100 100 100 100
6 5 7 24 6 5 14 71 88 100 10 0 0 5 3 1 3 4 5 5 5 5 8 25 24 11 40 58 21 98 99 100 100 100 100 100 100 100 100 100 100 100 100
14 28 22 6 17 96 18 61 89 5 5 5 3 5 5 5 5 8 18 5 5 5 5 5 5 6 5 14 53 96 98 100 100 100 100 100 100 100 100 100 100 100 100
5 5 5 14 5 5 58 10 5 5 5 5 1 5 5 5 5 72 63 5 5 5 5 5 5 6 8 50 14 54 96 100 100 100 100 100 100 100 100 100 100 100 100
99 96 86 45 55 78 52 8 5 5 5 5 5 5 5 5 61 97 100 84 89 5 5 5 5 5 5 5 5 5 65 97 52 98 100 100 100 100 87 96 100 100 100

GFSMA_prec_cloud_120.txt.gz
Cloud_Cover
5 4 24 86 100 100 100 54 46 41 61 64 76 76 48 38 34 37 39 10 5 4 6 5 5 5 5 23 9 13 10 14 7 46 7 2 9 1 0 0 1 5 5
53 14 5 0 60 100 100 100 68 78 100 100 100 100 82 44 28 41 68 39 7 67 39 45 22 8 5 5 18 97 5 5 5 73 100 60 5 4 30 30 10 5 5
4 1 4 3 0 4 92 41 46 70 100 100 100 100 100 100 100 93 38 61 74 73 98 95 72 94 95 27 5 13 69 59 5 5 5 23 42 56 8 100 100 21 5
23 38 45 44 7 16 22 100 100 71 98 100 100 100 100 100 100 100 100 22 86 100 100 100 100 100 100 100 100 90 95 100 75 7 18 5 5 5 16 5 5 5 74
100 99 91 47 21 47 32 42 88 98 75 34 65 42 32 44 85 57 44 23 5 5 6 98 89 100 100 100 100 100 100 100 93 83 98 54 13 38 5 5 5 5 21
100 100 100 42 98 100 100 99 93 85 100 48 92 59 16 8 63 26 9 3 15 8 4 74 52 70 99 100 100 100 99 100 100 100 100 100 66 22 59 5 5 5 22
100 100 100 100 100 100 100 100 77 99 100 100 100 100 99 42 88 96 51 18 19 8 10 0 1 3 14 25 16 63 100 95 83 100 100 100 100 88 98 63 5 89 72
73 81 99 100 99 100 100 100 71 23 87 100 100 100 100 100 99 90 94 89 90 20 11 5 0 0 0 4 3 4 5 5 5 8 63 97 100 99 92 81 100 42 100
83 97 99 100 97 100 100 100 100 91 93 93 100 100 100 100 100 100 99 83 54 96 86 66 88 4 2 0 0 0 0 0 0 2 8 88 90 70 95 100 78 100 72
34 54 61 58 90 100 99 84 79 100 97 98 93 100 100 100 100 100 100 100 100 84 47 53 85 86 16 5 3 0 0 0 0 0 0 2 20 88 14 82 20 100 100
96 100 100 100 100 99 100 100 80 94 49 98 99 100 94 75 100 100 100 100 100 100 100 73 46 54 64 93 88 100 100 100 82 1 0 0 0 0 3 5 5 6 97
5 5 5 22 26 43 64 92 70 5 93 86 100 88 59 99 100 100 100 100 99 100 100 96 66 79 100 100 100 100 100 74 98 99 86 16 1 0 0 0 3 5 82
1 2 3 2 2 11 57 90 80 68 20 67 65 67 83 100 42 63 98 79 100 100 100 100 85 96 96 100 100 100 100 100 100 100 100 99 36 0 1 0 0 5 26
0 0 0 0 0 0 0 0 0 3 26 95 100 100 97 90 99 100 100 68 96 89 99 100 100 100 100 100 100 100 100 100 100 100 100 98 100 74 2 2 79 95 10
0 0 0 1 5 8 2 0 0 0 0 0 0 0 5 17 35 82 100 31 40 96 38 17 7 14 5 5 34 100 100 100 100 100 100 100 100 100 100 96 8 91 15
54 30 27 5 5 5 5 5 5 5 5 4 2 0 0 0 1 3 5 7 19 38 100 100 100 100 100 40 71 100 99 100 100 100 100 100 100 100 100 100 96 90 82
100 89 54 94 70 49 5 5 10 5 5 5 0 3 5 3 0 0 0 0 8 16 68 18 8 34 100 92 82 91 100 100 100 100 100 100 100 100 100 100 100 96 100
6 36 39 5 7 31 18 5 5 5 5 5 5 5 5 5 5 5 2 4 0 0 51 8 5 5 5 5 5 92 94 100 100 100 100 100 100 100 100 100 100 100 95
7 76 42 5 5 5 11 37 6 19 3 0 4 5 5 5 5 0 3 5 4 3 5 5 5 5 5 4 5 33 96 85 100 100 100 100 100 100 100 100 100 100 100
8 13 7 6 5 5 5 5 0 1 0 4 0 0 0 5 3 5 5 5 5 5 5 5 5 8 5 5 5 5 91 43 76 98 100 100 100 100 100 100 100 100 100
25 6 5 5 5 5 9 69 15 5 2 4 0 0 5 3 5 5 5 5 22 81 5 9 56 100 56 5 8 9 14 100 77 86 99 100 100 100 100 100 100 100 100
93 100 100 61 12 5 5 19 6 72 5 0 4 4 4 2 2 5 5 8 73 80 82 75 69 47 12 14 14 53 44 48 100 100 100 100 100 100 100 100 100 100 100
54 53 96 78 48 100 61 53 6 5 5 41 100 5 4 5 3 5 5 5 5 5 11 5 5 6 32 5 81 86 100 86 79 100 100 100 100 100 100 100 100 100 100
100 100 100 100 100 100 98 21 5 5 5 61 67 5 5 5 5 5 9 5 5 5 5 5 5 5 44 94 100 100 83 55 19 16 74 48 100 92 100 100 100 100 100
100 100 97 100 99 100 14 24 5 5 5 31 5 5 5 5 5 80 97 77 5 5 5 5 5 12 7 35 9 5 68 92 86 54 54 92 100 99 100 100 100 100 100
98 100 100 93 97 100 93 5 68 5 5 5 5 5 5 5 83 88 100 90 86 5 15 48 7 5 5 5 3 5 8 100 100 99 5 14 100 50 98 100 100 100 100